[[{"header":{"parameterUnit":"m.s-1","parameterCategory":1,"la1":31.0,"la2":29.5877,"lo1":-88.7671,"lo2":-86.6584,"dy":0.0162,"dx":0.0185,"nx":115,"ny":88,"refTime":"2024-02-01T06:00:00:Z","depth":0,"parameterNumber":2,"parameterNumberName":"U-component_of_WINDS"},"data":[0.0,0.0,0.0,0.0,0.0,0.0,0.0,0.0,0.0,0.0,0.0,0.0,0.0,0.0,0.0,0.0,0.0,0.0,0.0,0.0,0.0,0.0,0.0,0.0,0.0,0.0,0.0,0.0,0.0,0.0,0.0,0.0,0.0,0.0,0.0,0.0,0.0,0.0,0.0,0.0,0.0,0.0,0.0,0.0,0.0,0.0,0.0,0.0,0.0,0.0,0.0,0.0,0.0,0.0,0.0,0.0,0.0,0.0,0.0,0.0,0.0,0.0,0.0,0.0,0.0,0.0,0.0,0.0,0.0,0.0,0.0,0.0,0.0,0.0,0.0,0.0,0.0,0.0,0.0,0.0,0.0,0.0,0.0,0.0,0.0,0.0,0.0,0.0,0.0,0.0,0.0,0.0,0.0,0.0,0.0,0.0,0.0,0.0,0.0,0.0,0.0,0.0,0.0,0.0,0.0,0.0,0.0,0.0,0.0,0.0,0.0,0.0,0.0,0.0,0.0,0.0,0.0,0.0,0.0,0.0,0.0,0.0,0.0,0.0,0.0,0.0,0.0,0.0,0.0,0.0,0.0,0.0,0.0,0.0,0.0,0.0,0.0,0.0,0.0,0.0,0.0,0.0,0.0,0.0,0.0,0.0,0.0,0.0,0.0,0.0,0.0,0.0,0.0,0.0,0.0,0.0,0.0,0.0,0.0,0.0,0.0,0.0,0.0,0.0,0.0,0.0,0.0,0.0,0.0,0.0,0.0,0.0,0.0,0.0,0.0,0.0,0.0,0.0,0.0,0.0,0.0,0.0,0.0,0.0,0.0,0.0,0.0,0.0,0.0,0.0,0.0,0.0,0.0,0.0,0.0,0.0,0.0,0.0,0.0,0.0,0.0,0.0,0.0,0.0,0.0,0.0,0.0,0.0,0.0,0.0,0.0,0.0,0.0,0.0,0.0,0.0,0.0,0.0,0.0,0.0,0.0,0.0,0.0,0.0,0.0,0.0,0.0,0.0,0.0,0.0,0.0,0.0,0.0,0.0,0.0,0.0,0.0,0.0,0.0,0.0,0.0,0.0,0.0,0.0,0.0,0.0,0.0,0.0,0.0,0.0,0.0,0.0,0.0,0.0,0.0,0.0,0.0,0.0,0.0,0.0,0.0,0.0,0.0,0.0,0.0,0.0,0.0,0.0,0.0,0.0,0.0,0.0,0.0,0.0,0.0,0.0,0.0,0.0,0.0,0.0,0.0,0.0,0.0,0.0,0.0,0.0,0.0,0.0,0.0,0.0,0.0,0.0,0.0,0.0,0.0,0.0,0.0,0.0,0.0,0.0,0.0,0.0,0.0,0.0,0.0,0.0,0.0,0.0,0.0,0.0,0.0,0.0,0.0,0.0,0.0,0.0,0.0,0.0,0.0,0.0,0.0,0.0,0.0,0.0,0.0,0.0,0.0,0.0,0.0,0.0,0.0,0.0,0.0,0.0,0.0,0.0,0.0,0.0,0.0,0.0,0.0,0.0,0.0,0.0,0.0,0.0,0.0,0.0,0.0,0.0,0.0,0.0,0.0,0.0,0.0,0.0,0.0,0.0,0.0,0.0,0.0,0.0,0.0,0.0,0.0,0.0,0.0,0.0,0.0,0.0,0.0,0.0,0.0,0.0,0.0,0.0,0.0,0.0,0.0,0.0,0.0,0.0,0.0,0.0,0.0,0.0,0.0,0.0,0.0,0.0,0.0,0.0,0.0,0.0,0.0,0.0,0.0,0.0,0.0,0.0,0.0,0.0,0.0,0.0,0.0,0.0,0.0,0.0,0.0,0.0,0.0,0.0,0.0,0.0,0.0,0.0,0.0,0.0,0.0,0.0,0.0,0.0,0.0,0.0,0.0,0.0,0.0,0.0,0.0,0.0,0.0,0.0,0.0,0.0,0.0,0.0,0.0,0.0,0.0,0.0,0.0,0.0,0.0,0.0,0.0,0.0,0.0,0.0,0.0,0.0,0.0,0.0,0.0,0.0,0.0,0.0,0.0,0.0,0.0,0.0,0.0,0.0,0.0,0.0,0.0,0.0,0.0,0.0,0.0,0.0,0.0,0.0,0.0,0.0,0.0,0.0,0.0,0.0,0.0,0.0,0.0,0.0,0.0,0.0,0.0,0.0,0.0,0.0,0.0,0.0,0.0,0.0,0.0,0.0,0.0,0.0,0.0,0.0,0.0,0.0,0.0,0.0,0.0,0.0,0.0,0.0,0.0,0.0,0.0,0.0,0.0,0.0,0.0,0.0,0.0,0.0,0.0,0.0,0.0,0.0,0.0,0.0,0.0,0.0,0.0,0.0,0.0,0.0,0.0,0.0,0.0,0.0,0.0,0.0,0.0,0.0,0.0,0.0,0.0,0.0,0.0,0.0,0.0,0.0,0.0,0.0,0.0,0.0,0.0,0.0,0.0,0.0,0.0,0.0,0.0,0.0,0.0,0.0,0.0,0.0,0.0,0.0,0.0,0.0,0.0,0.0,0.0,0.0,0.0,0.0,0.0,0.0,0.0,0.0,0.0,0.0,0.0,0.0,0.0,0.0,0.0,0.0,0.0,0.0,0.0,0.0,0.0,0.0,0.0,0.0,0.0,0.0,0.0,0.0,0.0,0.0,0.0,0.0,0.0,0.0,0.0,0.0,0.0,0.0,0.0,0.0,0.0,0.0,0.0,0.0,0.0,0.0,0.0,0.0,0.0,0.0,0.0,0.0,0.0,0.0,0.0,0.0,0.0,0.0,0.0,0.0,0.0,0.0,0.0,0.0,0.0,0.0,0.0,0.0,0.0,0.0,0.0,0.0,0.0,0.0,0.0,0.0,0.0,0.0,0.0,0.0,0.0,0.0,0.0,0.0,0.0,0.0,0.0,0.0,0.0,0.0,0.0,0.0,0.0,0.0,0.0,0.0,0.0,0.0,0.0,0.0,0.0,0.0,0.0,0.0,0.0,0.0,0.0,0.0,0.0,0.0,0.0,0.0,0.0,0.0,0.0,0.0,0.0,0.0,0.0,0.0,0.0,0.0,0.0,0.0,0.0,0.0,0.0,0.0,0.0,0.0,0.0,0.0,0.0,0.0,0.0,0.0,0.0,0.0,0.0,0.0,0.0,0.0,0.0,0.0,0.0,0.0,0.0,0.0,0.0,0.0,0.0,0.0,0.0,0.0,0.0,0.0,0.0,0.0,0.0,0.0,0.0,0.0,0.0,0.0,0.0,0.0,0.0,0.0,0.0,0.0,0.0,0.0,0.0,0.0,0.0,0.0,0.0,0.0,0.0,0.0,0.0,0.0,0.0,0.0,0.0,0.0,0.0,0.0,0.0,0.0,0.0,0.0,0.0,0.0,0.0,0.0,0.0,0.0,0.0,0.0,0.0,0.0,0.0,0.0,0.0,0.0,0.0,0.0,0.0,0.0,0.0,0.0,0.0,0.0,0.0,0.0,0.0,0.0,0.0,0.0,0.0,0.0,0.0,0.0,0.0,0.0,0.0,0.0,0.0,0.0,0.0,0.0,0.0,0.0,0.0,0.0,0.0,0.0,0.0,0.0,0.0,0.0,0.0,0.0,0.0,0.0,0.0,0.0,0.0,0.0,0.0,0.0,0.0,0.0,0.0,0.0,0.0,0.0,0.0,0.0,0.0,0.0,0.0,0.0,0.0,0.0,0.0,0.0,0.0,0.0,0.0,0.0,0.0,0.0,0.0,0.0,0.0,0.0,0.0,0.0,0.0,0.0,0.0,0.0,0.0,0.0,0.0,0.0,0.0,0.0,0.0,0.0,0.0,0.0,0.0,0.0,0.0,0.0,0.0,0.0,0.0,0.0,0.0,0.0,0.0,0.0,0.0,0.0,0.0,0.0,0.0,0.0,0.0,0.0,0.0,0.0,0.0,0.0,0.0,0.0,0.0,0.0,0.0,0.0,0.0,0.0,0.0,0.0,0.0,0.0,0.0,0.0,0.0,0.0,0.0,0.0,0.0,0.0,0.0,0.0,0.0,0.0,0.0,0.0,0.0,0.0,0.0,0.0,0.0,0.0,0.0,0.0,0.0,0.0,0.0,0.0,0.0,0.0,0.0,0.0,0.0,0.0,0.0,0.0,0.0,0.0,0.0,0.0,0.0,0.0,0.0,0.0,0.0,0.0,0.0,0.0,0.0,0.0,0.0,0.0,0.0,0.0,0.0,0.0,0.0,0.0,0.0,0.0,0.0,0.0,0.0,0.0,0.0,0.0,0.0,0.0,0.0,0.0,0.0,0.0,7.011,0.0,0.0,0.0,0.0,0.0,0.0,0.0,0.0,0.0,0.0,0.0,0.0,0.0,0.0,0.0,0.0,0.0,0.0,0.0,0.0,0.0,0.0,0.0,0.0,0.0,0.0,0.0,0.0,0.0,0.0,0.0,0.0,0.0,0.0,0.0,0.0,0.0,0.0,0.0,0.0,0.0,0.0,0.0,0.0,0.0,0.0,0.0,0.0,0.0,0.0,0.0,0.0,0.0,0.0,0.0,0.0,0.0,0.0,0.0,0.0,0.0,0.0,0.0,0.0,0.0,0.0,0.0,0.0,0.0,0.0,0.0,0.0,0.0,0.0,0.0,0.0,0.0,0.0,0.0,0.0,0.0,0.0,0.0,0.0,0.0,0.0,0.0,0.0,0.0,0.0,0.0,0.0,0.0,0.0,0.0,0.0,0.0,0.0,0.0,0.0,0.0,0.0,0.0,0.0,0.0,0.0,0.0,0.0,0.0,0.0,7.2532,7.2496,7.2165,7.1394,7.011,0.0,0.0,0.0,0.0,0.0,0.0,0.0,0.0,0.0,0.0,0.0,0.0,0.0,0.0,0.0,0.0,0.0,0.0,0.0,0.0,0.0,0.0,0.0,0.0,0.0,0.0,0.0,0.0,0.0,0.0,0.0,0.0,0.0,0.0,0.0,0.0,0.0,0.0,0.0,0.0,0.0,0.0,0.0,0.0,0.0,0.0,0.0,0.0,0.0,0.0,0.0,0.0,0.0,0.0,0.0,0.0,0.0,0.0,0.0,0.0,0.0,0.0,0.0,0.0,0.0,0.0,0.0,0.0,0.0,0.0,0.0,0.0,0.0,0.0,0.0,0.0,0.0,0.0,0.0,0.0,0.0,0.0,0.0,0.0,0.0,0.0,0.0,0.0,0.0,0.0,0.0,0.0,0.0,0.0,0.0,0.0,0.0,0.0,0.0,0.0,0.0,0.0,0.0,0.0,0.0,0.0,0.0,0.0,0.0,0.0,0.0,0.0,7.2532,7.1725,7.0146,0.0,0.0,0.0,0.0,0.0,0.0,0.0,0.0,0.0,0.0,0.0,0.0,0.0,0.0,0.0,0.0,0.0,0.0,0.0,0.0,0.0,0.0,0.0,0.0,0.0,0.0,0.0,0.0,0.0,0.0,0.0,0.0,0.0,0.0,0.0,0.0,0.0,0.0,0.0,0.0,0.0,0.0,0.0,0.0,0.0,0.0,0.0,0.0,0.0,0.0,0.0,0.0,0.0,0.0,0.0,0.0,0.0,0.0,0.0,0.0,0.0,0.0,0.0,0.0,0.0,0.0,0.0,0.0,0.0,0.0,0.0,0.0,0.0,0.0,0.0,0.0,0.0,0.0,0.0,0.0,0.0,0.0,0.0,0.0,0.0,0.0,0.0,0.0,0.0,0.0,0.0,0.0,0.0,0.0,0.0,0.0,0.0,0.0,0.0,0.0,0.0,0.0,0.0,0.0,0.0,0.0,0.0,0.0,0.0,0.0,7.2532,7.2532,7.2496,0.0,7.0183,0.0,0.0,0.0,0.0,0.0,0.0,0.0,0.0,0.0,0.0,0.0,0.0,0.0,0.0,0.0,0.0,0.0,0.0,0.0,0.0,0.0,0.0,0.0,0.0,0.0,0.0,0.0,0.0,0.0,0.0,0.0,0.0,0.0,0.0,0.0,0.0,0.0,0.0,0.0,0.0,0.0,0.0,0.0,0.0,0.0,0.0,0.0,0.0,0.0,0.0,0.0,0.0,0.0,0.0,0.0,0.0,0.0,0.0,0.0,0.0,0.0,0.0,0.0,0.0,0.0,0.0,0.0,0.0,0.0,0.0,0.0,0.0,0.0,0.0,0.0,0.0,0.0,0.0,0.0,0.0,0.0,0.0,0.0,0.0,0.0,0.0,0.0,0.0,0.0,0.0,0.0,0.0,0.0,0.0,0.0,0.0,0.0,0.0,0.0,0.0,0.0,0.0,0.0,0.0,0.0,0.0,0.0,0.0,0.0,0.0,7.2532,7.2532,7.2055,7.1505,0.0,0.0,0.0,0.0,0.0,0.0,0.0,0.0,0.0,0.0,0.0,0.0,0.0,0.0,0.0,0.0,0.0,0.0,0.0,0.0,0.0,0.0,0.0,0.0,0.0,0.0,0.0,0.0,0.0,0.0,0.0,0.0,0.0,0.0,0.0,0.0,0.0,0.0,0.0,0.0,0.0,0.0,0.0,0.0,0.0,0.0,0.0,0.0,0.0,0.0,0.0,0.0,0.0,0.0,0.0,0.0,0.0,0.0,0.0,0.0,0.0,0.0,0.0,0.0,0.0,0.0,0.0,0.0,0.0,0.0,0.0,0.0,0.0,0.0,0.0,0.0,0.0,0.0,0.0,0.0,0.0,0.0,0.0,0.0,0.0,0.0,0.0,0.0,0.0,0.0,0.0,0.0,0.0,0.0,0.0,0.0,0.0,0.0,0.0,0.0,0.0,0.0,0.0,0.0,0.0,0.0,0.0,0.0,0.0,0.0,7.2532,7.2532,7.2496,7.1945,7.1541,7.1321,0.0,0.0,0.0,0.0,0.0,0.0,0.0,0.0,0.0,0.0,0.0,0.0,0.0,0.0,0.0,0.0,0.0,0.0,0.0,0.0,0.0,0.0,0.0,0.0,0.0,0.0,0.0,0.0,0.0,0.0,0.0,0.0,0.0,0.0,0.0,0.0,0.0,0.0,0.0,0.0,0.0,0.0,0.0,0.0,0.0,0.0,0.0,0.0,0.0,0.0,0.0,0.0,0.0,0.0,0.0,0.0,0.0,0.0,0.0,0.0,0.0,0.0,0.0,0.0,0.0,0.0,0.0,0.0,0.0,0.0,0.0,0.0,0.0,0.0,0.0,0.0,0.0,0.0,0.0,0.0,0.0,0.0,0.0,0.0,0.0,0.0,0.0,0.0,0.0,0.0,0.0,0.0,0.0,0.0,0.0,0.0,0.0,0.0,0.0,0.0,0.0,0.0,0.0,0.0,0.0,0.0,0.0,0.0,7.2532,7.2532,7.2532,7.2532,7.2459,7.2092,0.0,0.0,0.0,0.0,0.0,0.0,0.0,0.0,0.0,0.0,0.0,0.0,0.0,0.0,0.0,0.0,0.0,0.0,0.0,0.0,0.0,0.0,0.0,0.0,0.0,0.0,0.0,0.0,0.0,0.0,0.0,0.0,0.0,0.0,0.0,0.0,0.0,0.0,0.0,0.0,0.0,0.0,0.0,0.0,0.0,0.0,0.0,0.0,0.0,0.0,0.0,0.0,0.0,0.0,0.0,0.0,0.0,0.0,0.0,0.0,0.0,0.0,0.0,0.0,0.0,0.0,0.0,0.0,0.0,0.0,0.0,0.0,0.0,0.0,0.0,0.0,0.0,0.0,0.0,0.0,0.0,0.0,0.0,0.0,0.0,0.0,0.0,0.0,0.0,0.0,0.0,0.0,0.0,0.0,0.0,0.0,0.0,0.0,0.0,0.0,0.0,0.0,0.0,0.0,0.0,0.0,0.0,0.0,0.0,7.2532,7.2532,7.2532,7.2532,7.2532,7.2349,0.0,0.0,0.0,0.0,0.0,0.0,0.0,0.0,0.0,0.0,0.0,0.0,0.0,0.0,0.0,0.0,0.0,0.0,0.0,0.0,0.0,0.0,0.0,0.0,0.0,0.0,0.0,0.0,0.0,0.0,0.0,0.0,0.0,0.0,0.0,0.0,0.0,0.0,0.0,0.0,0.0,0.0,0.0,0.0,0.0,0.0,0.0,0.0,0.0,0.0,0.0,0.0,0.0,0.0,0.0,0.0,0.0,0.0,0.0,0.0,0.0,0.0,0.0,0.0,0.0,0.0,0.0,0.0,0.0,0.0,0.0,0.0,0.0,0.0,0.0,0.0,0.0,0.0,0.0,0.0,0.0,0.0,0.0,0.0,0.0,0.0,0.0,0.0,0.0,0.0,0.0,0.0,0.0,0.0,0.0,0.0,0.0,0.0,0.0,0.0,0.0,0.0,0.0,0.0,0.0,0.0,0.0,0.0,0.0,7.2532,0.0,7.2532,7.2532,7.2532,7.2532,0.0,0.0,0.0,0.0,0.0,0.0,0.0,0.0,0.0,0.0,0.0,0.0,0.0,0.0,0.0,0.0,0.0,0.0,0.0,0.0,0.0,0.0,0.0,0.0,0.0,0.0,0.0,0.0,0.0,0.0,0.0,0.0,0.0,0.0,0.0,0.0,0.0,0.0,0.0,0.0,0.0,0.0,0.0,0.0,0.0,0.0,0.0,0.0,0.0,0.0,0.0,0.0,0.0,0.0,0.0,0.0,0.0,0.0,0.0,0.0,0.0,0.0,0.0,0.0,0.0,0.0,0.0,0.0,0.0,0.0,0.0,0.0,0.0,0.0,0.0,0.0,0.0,0.0,0.0,0.0,0.0,0.0,0.0,0.0,0.0,0.0,0.0,0.0,0.0,0.0,0.0,0.0,0.0,0.0,0.0,0.0,0.0,0.0,0.0,0.0,0.0,0.0,0.0,0.0,0.0,0.0,0.0,0.0,7.2532,7.2532,7.2532,7.2569,7.2532,7.2532,7.2532,0.0,0.0,0.0,0.0,0.0,0.0,0.0,0.0,0.0,0.0,0.0,0.0,0.0,0.0,0.0,0.0,0.0,0.0,0.0,0.0,0.0,0.0,0.0,0.0,0.0,0.0,0.0,0.0,0.0,0.0,0.0,0.0,0.0,0.0,0.0,0.0,0.0,0.0,0.0,0.0,0.0,0.0,0.0,0.0,0.0,0.0,0.0,0.0,0.0,0.0,0.0,0.0,0.0,0.0,0.0,0.0,0.0,0.0,0.0,0.0,0.0,0.0,0.0,0.0,0.0,0.0,0.0,0.0,0.0,0.0,0.0,0.0,0.0,0.0,0.0,0.0,0.0,0.0,0.0,0.0,0.0,0.0,0.0,0.0,0.0,0.0,0.0,0.0,0.0,0.0,0.0,0.0,0.0,0.0,0.0,0.0,0.0,0.0,0.0,0.0,0.0,0.0,0.0,0.0,0.0,0.0,0.0,0.0,0.0,7.3303,7.334,7.334,7.334,7.334,7.3046,0.0,0.0,0.0,0.0,0.0,0.0,0.0,0.0,0.0,0.0,0.0,0.0,0.0,0.0,0.0,0.0,0.0,0.0,0.0,0.0,0.0,0.0,0.0,0.0,0.0,0.0,0.0,0.0,0.0,0.0,0.0,0.0,0.0,0.0,0.0,0.0,0.0,0.0,0.0,0.0,0.0,0.0,0.0,0.0,0.0,0.0,0.0,0.0,0.0,0.0,0.0,0.0,0.0,0.0,0.0,0.0,0.0,0.0,0.0,0.0,0.0,0.0,0.0,0.0,0.0,0.0,0.0,0.0,0.0,0.0,0.0,0.0,0.0,0.0,0.0,0.0,0.0,0.0,0.0,0.0,0.0,0.0,0.0,0.0,0.0,0.0,0.0,0.0,0.0,0.0,0.0,0.0,0.0,0.0,0.0,0.0,0.0,0.0,0.0,0.0,0.0,0.0,0.0,0.0,0.0,0.0,0.0,0.0,0.0,7.4551,7.4294,7.4147,7.4147,7.3854,7.345,7.2973,0.0,0.0,0.0,0.0,0.0,0.0,0.0,0.0,0.0,0.0,0.0,0.0,0.0,0.0,0.0,0.0,0.0,0.0,0.0,0.0,0.0,0.0,0.0,0.0,0.0,0.0,0.0,0.0,0.0,0.0,0.0,0.0,0.0,0.0,0.0,0.0,0.0,0.0,0.0,0.0,0.0,0.0,0.0,0.0,0.0,0.0,0.0,0.0,0.0,0.0,0.0,0.0,0.0,0.0,0.0,0.0,0.0,0.0,0.0,0.0,0.0,0.0,0.0,0.0,0.0,0.0,0.0,0.0,0.0,0.0,0.0,0.0,0.0,0.0,0.0,0.0,0.0,0.0,0.0,0.0,0.0,0.0,0.0,0.0,0.0,0.0,0.0,0.0,0.0,0.0,0.0,0.0,0.0,0.0,0.0,0.0,0.0,0.0,0.0,0.0,0.0,0.0,0.0,0.0,0.0,0.0,0.0,0.0,7.624,7.5542,7.5139,7.4955,7.4258,7.378,0.0,0.0,0.0,0.0,0.0,0.0,0.0,0.0,0.0,0.0,0.0,0.0,0.0,0.0,0.0,0.0,0.0,0.0,0.0,0.0,0.0,0.0,0.0,0.0,0.0,0.0,0.0,0.0,0.0,0.0,0.0,0.0,0.0,0.0,0.0,0.0,0.0,0.0,0.0,0.0,0.0,0.0,0.0,0.0,0.0,0.0,0.0,0.0,0.0,0.0,0.0,0.0,0.0,0.0,0.0,0.0,0.0,0.0,0.0,0.0,0.0,0.0,0.0,0.0,0.0,0.0,0.0,0.0,0.0,0.0,0.0,0.0,0.0,0.0,0.0,0.0,0.0,0.0,0.0,0.0,0.0,0.0,0.0,0.0,0.0,0.0,0.0,0.0,0.0,0.0,0.0,0.0,0.0,0.0,0.0,0.0,0.0,0.0,0.0,0.0,0.0,0.0,0.0,0.0,0.0,0.0,0.0,0.0,0.0,7.7928,7.8332,7.7635,7.5873,7.5579,7.4918,0.0,0.0,0.0,0.0,0.0,0.0,0.0,0.0,0.0,0.0,0.0,0.0,0.0,0.0,0.0,0.0,0.0,0.0,0.0,0.0,0.0,0.0,0.0,0.0,0.0,0.0,0.0,0.0,0.0,0.0,0.0,0.0,0.0,0.0,0.0,0.0,0.0,0.0,0.0,0.0,0.0,0.0,0.0,0.0,0.0,0.0,0.0,0.0,0.0,0.0,0.0,0.0,0.0,0.0,0.0,0.0,0.0,0.0,0.0,0.0,0.0,0.0,0.0,0.0,0.0,0.0,0.0,0.0,0.0,0.0,0.0,0.0,0.0,0.0,0.0,0.0,0.0,0.0,0.0,0.0,0.0,0.0,0.0,0.0,0.0,0.0,0.0,0.0,0.0,0.0,0.0,0.0,0.0,0.0,0.0,0.0,0.0,0.0,0.0,0.0,0.0,0.0,0.0,0.0,0.0,0.0,0.0,0.0,7.8259,7.9103,7.9543,7.9103,7.7708,7.6974,7.5873,0.0,0.0,0.0,0.0,0.0,0.0,0.0,0.0,0.0,0.0,0.0,0.0,0.0,0.0,0.0,0.0,0.0,0.0,0.0,0.0,0.0,0.0,0.0,0.0,0.0,0.0,0.0,0.0,0.0,0.0,0.0,0.0,0.0,0.0,0.0,0.0,0.0,0.0,0.0,0.0,0.0,0.0,0.0,0.0,0.0,0.0,0.0,0.0,0.0,0.0,0.0,0.0,0.0,0.0,0.0,0.0,0.0,0.0,0.0,0.0,0.0,0.0,0.0,0.0,0.0,0.0,0.0,0.0,0.0,0.0,0.0,0.0,0.0,0.0,0.0,0.0,0.0,0.0,0.0,0.0,0.0,0.0,0.0,0.0,0.0,0.0,0.0,0.0,0.0,0.0,0.0,0.0,0.0,0.0,0.0,0.0,0.0,0.0,0.0,0.0,0.0,0.0,0.0,0.0,0.0,0.0,0.0,0.0,7.9176,7.9874,7.9984,7.9984,7.9874,7.8332,7.6754,0.0,0.0,0.0,0.0,0.0,0.0,0.0,0.0,0.0,0.0,0.0,0.0,0.0,0.0,0.0,0.0,0.0,0.0,0.0,0.0,0.0,0.0,0.0,0.0,0.0,0.0,0.0,0.0,0.0,0.0,0.0,0.0,0.0,0.0,0.0,0.0,0.0,0.0,0.0,0.0,0.0,0.0,0.0,0.0,0.0,0.0,0.0,0.0,0.0,0.0,0.0,0.0,0.0,0.0,0.0,0.0,0.0,0.0,0.0,0.0,0.0,0.0,0.0,0.0,0.0,0.0,0.0,0.0,0.0,0.0,0.0,0.0,0.0,0.0,0.0,0.0,0.0,0.0,0.0,0.0,0.0,0.0,0.0,0.0,0.0,0.0,0.0,0.0,0.0,0.0,0.0,0.0,0.0,0.0,0.0,0.0,0.0,0.0,0.0,0.0,0.0,0.0,0.0,0.0,0.0,0.0,0.0,0.0,8.0571,8.0755,8.1379,8.1379,8.0755,7.9176,7.7855,0.0,0.0,0.0,0.0,0.0,0.0,0.0,0.0,0.0,0.0,0.0,0.0,0.0,0.0,0.0,0.0,0.0,0.0,0.0,0.0,0.0,0.0,0.0,0.0,0.0,0.0,0.0,0.0,0.0,0.0,0.0,0.0,0.0,0.0,0.0,0.0,0.0,0.0,0.0,0.0,0.0,0.0,0.0,0.0,0.0,0.0,0.0,0.0,7.2532,0.0,0.0,0.0,0.0,0.0,0.0,0.0,0.0,0.0,0.0,0.0,0.0,0.0,0.0,0.0,0.0,0.0,0.0,0.0,0.0,0.0,0.0,0.0,0.0,0.0,0.0,0.0,0.0,0.0,0.0,0.0,0.0,0.0,0.0,0.0,0.0,0.0,0.0,0.0,0.0,0.0,0.0,0.0,0.0,0.0,0.0,0.0,0.0,0.0,0.0,0.0,0.0,0.0,0.0,0.0,0.0,0.0,0.0,0.0,8.1562,8.1599,8.237,8.237,8.1562,8.0388,7.8956,0.0,0.0,0.0,0.0,0.0,0.0,0.0,0.0,0.0,0.0,0.0,0.0,0.0,0.0,0.0,0.0,0.0,0.0,0.0,0.0,0.0,0.0,0.0,0.0,0.0,0.0,0.0,0.0,0.0,0.0,0.0,0.0,0.0,0.0,0.0,0.0,0.0,0.0,0.0,0.0,0.0,0.0,0.0,0.0,0.0,0.0,0.0,0.0,0.0,0.0,0.0,0.0,0.0,0.0,0.0,0.0,0.0,0.0,0.0,0.0,0.0,0.0,0.0,0.0,0.0,0.0,0.0,0.0,0.0,0.0,0.0,0.0,0.0,0.0,0.0,0.0,0.0,0.0,0.0,0.0,0.0,0.0,0.0,0.0,0.0,0.0,0.0,0.0,0.0,0.0,0.0,0.0,0.0,0.0,0.0,0.0,0.0,0.0,0.0,0.0,0.0,0.0,0.0,0.0,0.0,0.0,0.0,8.1562,8.237,8.2406,8.3177,8.3214,8.2406,8.1746,8.0204,7.7818,0.0,0.0,0.0,0.0,0.0,0.0,0.0,0.0,0.0,0.0,0.0,0.0,0.0,0.0,0.0,0.0,0.0,0.0,0.0,0.0,0.0,0.0,0.0,0.0,0.0,0.0,0.0,0.0,0.0,0.0,0.0,0.0,0.0,0.0,0.0,0.0,0.0,0.0,7.2679,7.3266,0.0,0.0,0.0,0.0,0.0,0.0,0.0,0.0,7.4478,0.0,0.0,0.0,0.0,0.0,0.0,0.0,0.0,0.0,0.0,0.0,0.0,0.0,0.0,0.0,0.0,0.0,0.0,0.0,0.0,0.0,0.0,0.0,0.0,0.0,0.0,0.0,0.0,0.0,0.0,0.0,0.0,0.0,0.0,0.0,0.0,0.0,0.0,0.0,0.0,0.0,0.0,0.0,0.0,0.0,0.0,0.0,0.0,0.0,0.0,0.0,0.0,0.0,0.0,0.0,0.0,8.0791,8.237,8.3214,8.3214,8.3985,8.4022,8.3251,8.3067,8.1893,7.9507,0.0,0.0,0.0,0.0,0.0,0.0,0.0,0.0,0.0,0.0,0.0,0.0,0.0,0.0,0.0,0.0,0.0,0.0,0.0,0.0,0.0,0.0,0.0,0.0,0.0,0.0,0.0,0.0,0.0,0.0,0.0,0.0,0.0,0.0,0.0,0.0,0.0,0.0,0.0,7.3597,7.3891,0.0,0.0,0.0,0.0,0.0,0.0,0.0,0.0,7.4588,0.0,0.0,0.0,0.0,0.0,0.0,0.0,0.0,0.0,0.0,0.0,0.0,0.0,0.0,0.0,0.0,0.0,0.0,0.0,0.0,0.0,0.0,0.0,0.0,0.0,0.0,0.0,0.0,0.0,0.0,0.0,0.0,0.0,0.0,0.0,0.0,0.0,0.0,0.0,0.0,0.0,0.0,0.0,0.0,0.0,0.0,0.0,0.0,0.0,0.0,0.0,0.0,0.0,0.0,0.0,8.1709,8.3618,8.4462,8.4058,8.4792,8.4829,8.4058,8.3618,8.248,0.0,0.0,0.0,0.0,0.0,0.0,0.0,0.0,0.0,0.0,0.0,0.0,0.0,0.0,0.0,0.0,0.0,0.0,0.0,0.0,0.0,0.0,0.0,0.0,0.0,0.0,0.0,0.0,0.0,0.0,0.0,0.0,0.0,0.0,0.0,0.0,0.0,0.0,0.0,0.0,7.4404,7.4918,7.4918,0.0,0.0,0.0,0.0,0.0,0.0,7.5909,7.5873,0.0,0.0,0.0,0.0,0.0,0.0,0.0,0.0,0.0,0.0,0.0,0.0,0.0,0.0,0.0,0.0,0.0,0.0,0.0,0.0,0.0,0.0,0.0,0.0,0.0,0.0,0.0,0.0,0.0,0.0,0.0,0.0,0.0,0.0,0.0,0.0,0.0,0.0,0.0,0.0,0.0,0.0,0.0,0.0,0.0,0.0,0.0,0.0,0.0,0.0,0.0,0.0,0.0,0.0,0.0,8.2517,8.4646,8.549,8.4903,8.5637,8.5673,8.4866,8.4095,8.2884,0.0,0.0,0.0,0.0,0.0,0.0,0.0,0.0,0.0,0.0,0.0,0.0,0.0,0.0,0.0,0.0,0.0,0.0,0.0,0.0,0.0,0.0,0.0,0.0,0.0,0.0,0.0,0.0,0.0,0.0,0.0,0.0,0.0,0.0,0.0,0.0,0.0,0.0,0.0,0.0,0.0,7.6166,7.5726,7.635,0.0,0.0,0.0,0.0,7.6827,7.7414,0.0,0.0,0.0,0.0,0.0,0.0,0.0,0.0,0.0,0.0,0.0,0.0,0.0,0.0,0.0,0.0,0.0,0.0,0.0,0.0,0.0,0.0,0.0,0.0,0.0,0.0,0.0,0.0,0.0,0.0,0.0,0.0,0.0,0.0,0.0,0.0,0.0,0.0,0.0,0.0,0.0,0.0,0.0,0.0,0.0,0.0,0.0,0.0,0.0,0.0,0.0,0.0,0.0,0.0,0.0,0.0,8.3287,8.4939,8.5747,8.571,8.6444,8.6481,8.5673,8.4903,8.3691,0.0,0.0,0.0,0.0,0.0,0.0,0.0,0.0,0.0,0.0,0.0,0.0,0.0,0.0,0.0,0.0,0.0,0.0,0.0,0.0,0.0,0.0,0.0,0.0,0.0,0.0,0.0,0.0,0.0,0.0,0.0,0.0,0.0,0.0,0.0,0.0,0.0,0.0,0.0,0.0,0.0,7.7414,7.8075,7.8846,7.9323,0.0,0.0,7.936,7.936,7.9433,0.0,0.0,0.0,0.0,0.0,0.0,0.0,0.0,0.0,0.0,0.0,0.0,0.0,0.0,0.0,0.0,0.0,0.0,0.0,0.0,0.0,0.0,0.0,0.0,0.0,0.0,0.0,0.0,0.0,0.0,0.0,0.0,0.0,0.0,0.0,0.0,0.0,0.0,0.0,0.0,0.0,0.0,0.0,0.0,0.0,0.0,0.0,0.0,0.0,0.0,0.0,0.0,0.0,0.0,0.0,8.4205,8.5453,8.6554,8.7362,8.7839,8.8206,8.7986,8.7178,8.6371,8.5013,0.0,0.0,0.0,0.0,0.0,0.0,0.0,0.0,0.0,0.0,0.0,0.0,0.0,0.0,0.0,0.0,0.0,0.0,0.0,0.0,0.0,0.0,0.0,0.0,0.0,0.0,0.0,0.0,0.0,0.0,0.0,0.0,0.0,0.0,0.0,0.0,0.0,0.0,0.0,0.0,0.0,0.0,7.914,7.958,0.0,0.0,0.0,7.98,7.98,0.0,0.0,0.0,0.0,0.0,0.0,0.0,0.0,0.0,0.0,0.0,0.0,0.0,0.0,0.0,0.0,0.0,0.0,0.0,0.0,0.0,0.0,0.0,0.0,0.0,0.0,0.0,0.0,0.0,0.0,0.0,0.0,0.0,0.0,0.0,0.0,0.0,0.0,0.0,0.0,0.0,0.0,0.0,0.0,0.0,0.0,0.0,0.0,0.0,0.0,0.0,0.0,0.0,0.0,0.0,0.0,0.0,8.6995,8.7802,8.861,8.9381,8.9417,8.9124,8.85,8.7545,0.0,0.0,0.0,0.0,0.0,0.0,0.0,0.0,0.0,0.0,0.0,0.0,0.0,0.0,0.0,0.0,0.0,0.0,0.0,0.0,0.0,0.0,0.0,0.0,0.0,0.0,0.0,7.312,0.0,0.0,0.0,0.0,0.0,0.0,0.0,0.0,0.0,0.0,0.0,0.0,0.0,0.0,7.9176,7.9984,8.0241,8.0388,0.0,0.0,8.0388,8.0388,8.0388,8.0131,0.0,0.0,0.0,0.0,0.0,0.0,0.0,0.0,0.0,0.0,0.0,0.0,0.0,0.0,0.0,0.0,0.0,0.0,0.0,0.0,0.0,0.0,0.0,0.0,0.0,0.0,0.0,0.0,0.0,0.0,0.0,0.0,0.0,0.0,0.0,0.0,0.0,0.0,0.0,0.0,0.0,0.0,0.0,0.0,0.0,0.0,0.0,0.0,0.0,0.0,0.0,0.0,0.0,0.0,0.0,8.6958,8.7802,8.861,8.9381,8.9417,8.9417,8.9307,8.7839,8.6921,0.0,0.0,0.0,0.0,0.0,0.0,0.0,0.0,0.0,0.0,0.0,0.0,0.0,0.0,0.0,0.0,0.0,0.0,0.0,0.0,0.0,0.0,0.0,0.0,0.0,0.0,0.0,0.0,0.0,0.0,0.0,0.0,0.0,0.0,0.0,0.0,0.0,0.0,0.0,0.0,0.0,8.0021,8.0791,8.1562,8.2003,0.0,8.2039,8.2039,8.2003,8.2039,8.1746,8.0975,0.0,0.0,0.0,0.0,0.0,0.0,0.0,0.0,0.0,0.0,0.0,0.0,0.0,0.0,0.0,0.0,0.0,0.0,0.0,0.0,0.0,0.0,0.0,0.0,0.0,0.0,0.0,0.0,0.0,0.0,0.0,0.0,0.0,0.0,0.0,0.0,0.0,0.0,0.0,0.0,0.0,0.0,0.0,0.0,0.0,0.0,0.0,0.0,0.0,0.0,0.0,0.0,0.0,8.5894,8.8463,8.8793,8.9564,9.0812,9.0886,9.0665,9.0152,8.9087,8.8023,0.0,0.0,0.0,0.0,0.0,0.0,0.0,0.0,0.0,0.0,0.0,0.0,0.0,0.0,0.0,0.0,0.0,0.0,0.0,0.0,0.0,0.0,0.0,0.0,0.0,0.0,0.0,0.0,7.5946,7.5836,7.635,0.0,0.0,0.0,0.0,0.0,0.0,0.0,0.0,0.0,0.0,8.0828,8.1636,8.2003,0.0,0.0,8.2186,8.2186,8.2186,8.2186,8.1929,8.1122,8.0755,0.0,0.0,0.0,0.0,0.0,0.0,0.0,0.0,0.0,0.0,0.0,0.0,0.0,0.0,0.0,0.0,0.0,0.0,0.0,0.0,0.0,0.0,0.0,0.0,0.0,0.0,0.0,0.0,0.0,0.0,0.0,0.0,0.0,0.0,0.0,0.0,0.0,0.0,0.0,0.0,0.0,0.0,0.0,0.0,0.0,0.0,0.0,0.0,0.0,0.0,0.0,0.0,8.6187,8.9381,8.9417,9.0188,9.1767,9.1803,9.151,9.0959,9.0188,8.9234,0.0,0.0,0.0,0.0,0.0,0.0,0.0,0.0,0.0,0.0,0.0,0.0,0.0,0.0,0.0,0.0,0.0,0.0,0.0,0.0,0.0,0.0,0.0,0.0,0.0,0.0,0.0,0.0,7.7194,7.6974,7.7304,0.0,0.0,0.0,0.0,0.0,0.0,0.0,0.0,0.0,0.0,8.1305,8.2076,8.2186,8.2186,8.2186,8.2186,8.2186,8.2186,8.2186,8.2076,8.1782,0.0,0.0,0.0,0.0,0.0,0.0,0.0,0.0,0.0,0.0,0.0,0.0,0.0,0.0,0.0,0.0,0.0,0.0,0.0,0.0,0.0,0.0,0.0,0.0,0.0,0.0,0.0,8.3398,0.0,0.0,8.226,0.0,0.0,0.0,0.0,0.0,0.0,0.0,0.0,0.0,0.0,0.0,0.0,0.0,0.0,0.0,0.0,0.0,0.0,0.0,0.0,0.0,0.0,8.6224,8.9344,8.9417,9.0188,9.173,9.1803,9.1767,9.173,9.0996,9.0555,9.0445,0.0,0.0,0.0,0.0,0.0,0.0,0.0,0.0,0.0,0.0,0.0,0.0,0.0,0.0,0.0,0.0,0.0,0.0,0.0,0.0,0.0,0.0,0.0,0.0,0.0,0.0,7.8442,7.8552,7.8185,0.0,0.0,0.0,0.0,0.0,0.0,0.0,0.0,0.0,8.0865,8.1012,8.1305,8.2076,8.2186,8.2223,8.2223,8.2223,8.2223,8.2223,8.2223,8.248,0.0,0.0,0.0,0.0,0.0,0.0,0.0,0.0,0.0,0.0,0.0,0.0,0.0,0.0,0.0,0.0,0.0,0.0,0.0,0.0,0.0,0.0,0.0,0.0,0.0,0.0,0.0,8.4205,8.4205,0.0,0.0,0.0,0.0,0.0,0.0,0.0,0.0,0.0,0.0,0.0,8.7802,8.7802,0.0,0.0,0.0,0.0,0.0,0.0,0.0,0.0,0.0,0.0,0.0,0.0,8.6701,8.9271,8.9417,9.0188,9.173,9.1803,9.1803,9.1803,9.1033,9.0372,8.9821,0.0,0.0,0.0,0.0,0.0,0.0,0.0,0.0,0.0,0.0,0.0,0.0,0.0,0.0,0.0,0.0,0.0,0.0,0.0,0.0,0.0,0.0,0.0,0.0,0.0,7.8846,0.0,0.0,0.0,0.0,0.0,0.0,0.0,0.0,0.0,0.0,0.0,8.0681,8.0975,8.1452,8.2113,8.2884,8.2994,8.3214,0.0,0.0,0.0,0.0,0.0,0.0,0.0,0.0,0.0,0.0,0.0,0.0,0.0,0.0,8.2316,8.0186,7.9847,7.98,7.98,0.0,0.0,0.0,0.0,0.0,0.0,0.0,0.0,0.0,0.0,0.0,0.0,0.0,0.0,8.5453,0.0,8.5453,0.0,0.0,0.0,0.0,0.0,0.0,0.0,0.0,8.8243,8.8904,8.9417,8.9417,8.8867,0.0,8.7839,8.7325,0.0,0.0,0.0,0.0,0.0,0.0,0.0,0.0,8.7288,8.9344,8.9711,9.0482,9.173,9.1803,9.1803,9.1803,9.1217,9.0484,8.9642,8.8688,8.7735,0.0,0.0,0.0,0.0,0.0,0.0,0.0,0.0,0.0,0.0,0.0,0.0,0.0,0.0,0.0,0.0,0.0,0.0,0.0,0.0,0.0,0.0,0.0,7.9984,0.0,0.0,0.0,0.0,0.0,0.0,0.0,0.0,0.0,8.0755,8.1562,8.226,8.226,8.27,8.3251,8.3765,0.0,0.0,0.0,0.0,0.0,0.0,0.0,8.4535,8.4278,8.4682,8.5013,8.5013,8.4792,8.4572,8.4595,0.0,0.0,8.1835,8.1469,8.1461,8.1452,8.1452,8.1636,8.215,8.226,8.2435,0.0,0.0,0.0,0.0,0.0,0.0,0.0,0.0,8.7105,8.7068,0.0,8.7105,0.0,0.0,0.0,0.0,8.5967,8.6775,0.0,0.0,8.9087,8.9454,8.9528,8.9528,8.9491,8.9454,8.9417,8.9417,8.9197,8.6261,0.0,0.0,0.0,0.0,0.0,0.0,8.7839,8.9454,9.0225,9.0996,9.1767,9.1803,9.1803,9.1803,9.1583,9.1031,9.0112,9.0116,8.913,8.6648,8.6644,0.0,0.0,0.0,0.0,0.0,0.0,0.0,0.0,0.0,0.0,0.0,0.0,0.0,0.0,0.0,0.0,0.0,0.0,0.0,0.0,8.0479,0.0,0.0,0.0,0.0,0.0,0.0,0.0,0.0,0.0,8.2333,8.2333,8.3618,8.4609,8.4572,0.0,0.0,0.0,0.0,8.4646,8.4719,8.4682,8.4682,8.4646,8.4682,8.4939,8.5637,0.0,0.0,8.582,8.5196,8.4756,8.4688,8.4792,8.4682,8.4646,8.4499,8.4462,8.4462,8.4389,8.4572,8.4609,8.4462,8.4535,8.8426,0.0,0.0,0.0,0.0,8.6921,8.7766,8.872,8.872,8.872,8.872,8.872,0.0,0.0,0.0,0.0,0.0,0.0,8.916,8.9895,9.0152,9.0555,9.1106,9.1106,9.0812,9.0298,9.0262,8.9968,8.9381,8.85,8.7766,8.7178,0.0,0.0,0.0,0.0,8.8647,9.0188,9.0482,9.0996,9.1767,9.1657,9.1472,9.1358,9.1358,9.1173,9.0842,9.0406,8.9786,8.8982,8.7414,0.0,0.0,0.0,0.0,0.0,0.0,0.0,0.0,0.0,0.0,0.0,0.0,0.0,0.0,0.0,0.0,0.0,0.0,0.0,8.1725,8.2391,8.226,0.0,0.0,0.0,0.0,0.0,0.0,0.0,0.0,0.0,8.4756,8.4646,8.4609,0.0,0.0,8.4792,8.538,8.5453,8.5637,8.6261,8.6334,0.0,8.5527,8.593,8.6187,8.5857,8.6261,8.6664,8.6664,8.6481,8.6334,8.6265,8.6334,8.6334,8.6261,8.5353,8.4694,8.4578,8.4609,8.4792,8.5306,8.5453,8.5637,8.9748,8.8426,8.8096,8.7986,8.8023,8.8463,8.9124,8.9895,8.9895,8.9895,8.9895,8.9895,8.9711,8.9417,8.9417,0.0,0.0,0.0,9.0152,9.0629,9.0922,9.1363,9.1767,9.1803,9.1546,9.1106,9.1069,9.0849,9.0372,9.0372,8.9968,8.916,0.0,0.0,8.8683,8.8906,8.9494,9.0447,9.063,9.1033,9.1546,9.1358,9.1093,9.0704,9.0819,9.074,9.0429,9.019,8.9869,8.9386,8.8164,8.6967,0.0,0.0,0.0,0.0,0.0,0.0,0.0,0.0,0.0,0.0,0.0,7.835,7.8631,0.0,0.0,0.0,8.0796,8.2106,8.3045,8.35,0.0,0.0,0.0,0.0,0.0,0.0,0.0,8.3141,8.4682,8.5783,8.5783,8.5637,8.5563,8.5563,8.5563,8.5747,8.6224,0.0,8.6444,8.6921,8.7031,8.6848,8.6371,8.6664,8.6848,8.6371,8.6664,8.6995,8.7031,8.7031,8.7031,8.7031,8.7031,8.7031,8.7031,8.6159,8.5573,8.5532,8.5563,8.5747,8.6187,8.6261,8.6444,9.0702,9.0665,8.9895,8.9564,8.9528,8.9528,8.9968,9.0665,9.0702,9.0702,9.0702,9.0702,9.0298,8.9638,8.9601,0.0,8.9638,9.0372,9.0702,9.0739,9.1473,9.1803,9.1803,9.1803,9.1803,9.1803,9.1803,9.1803,9.1767,9.1767,9.1436,9.0702,8.9968,8.9564,8.9564,9.0008,9.0337,9.0411,9.0765,9.0975,9.113,9.0897,9.0501,8.9809,9.0095,8.9845,8.9178,8.9845,8.9652,8.8482,8.8788,8.7825,8.547,0.0,0.0,0.0,0.0,0.0,0.0,0.0,0.0,0.0,0.0,0.0,0.0,0.0,0.0,0.0,8.2457,0.0,8.3738,8.4165,0.0,0.0,0.0,8.4609,8.4609,8.4646,8.4682,8.4682,0.0,0.0,8.5894,8.6554,8.7031,8.7031,8.7031,8.7031,8.7031,8.6995,8.7031,8.7031,8.7068,8.7105,8.7142,8.7252,8.7362,8.7288,8.7142,8.7142,8.7142,8.7031,8.7031,8.7031,8.7031,8.7031,8.7031,8.6958,8.7031,8.6921,8.6958,8.6995,8.6958,8.6958,8.6958,9.151,9.1473,9.1289,9.0886,9.0335,9.0335,9.0776,9.151,9.151,9.151,9.151,9.151,9.14,9.1253,9.1216,9.1216,9.1253,9.1436,9.151,9.151,9.1693,9.1803,9.1803,9.1803,9.1803,9.1803,9.1803,9.1803,9.1803,9.1803,9.1693,9.151,9.1326,9.0922,9.0372,9.0301,9.0594,9.1216,9.102,9.0661,9.0222,9.0177,8.9809,8.9162,8.93,8.9213,8.8686,8.9213,8.9028,8.8157,8.7801,8.7095,8.5948,8.4809,0.0,0.0,0.0,0.0,0.0,0.0,0.0,0.0,0.0,7.9507,7.9515,0.0,8.0595,0.0,8.2718,8.3939,8.4316,8.4862,0.0,0.0,8.4609,8.4609,8.4609,8.5159,8.549,8.5527,8.6224,8.6738,8.6738,8.6885,8.7031,8.7031,8.7031,8.7031,8.7031,8.7031,8.7031,8.7105,8.7545,8.7912,8.7949,8.8463,8.8793,8.883,8.8353,8.7912,8.7912,8.7399,8.7031,8.7031,8.7031,8.7031,8.7068,8.7031,8.7031,8.7031,8.7031,8.7031,8.7031,8.7031,8.7031,9.1803,9.1803,9.1803,9.1546,9.1143,9.1143,9.1363,9.1803,9.1803,9.1803,9.1803,9.1803,9.1803,9.1803,9.1803,9.1803,9.1803,9.1803,9.1803,9.1803,9.1803,9.1803,9.1803,9.1803,9.1803,9.1803,9.1803,9.1803,9.1803,9.1803,9.1803,9.1803,9.1803,9.1583,9.1143,9.085,9.092,9.1206,9.0625,9.0012,8.9471,8.93,8.9039,8.8452,8.8506,8.8149,8.7374,8.7886,8.7799,8.6931,8.6938,8.6573,8.5704,8.4931,8.4013,0.0,0.0,0.0,0.0,0.0,0.0,0.0,0.0,0.0,0.0,0.0,8.1734,8.2204,8.3565,8.4691,8.5223,8.5664,8.5874,8.5642,8.5673,8.582,8.6151,8.6591,8.6995,8.7362,8.7802,8.8096,8.8096,8.8096,8.8096,8.8096,8.8096,8.7949,8.7619,8.7545,8.7655,8.8059,8.8463,8.8757,8.872,8.9124,8.9417,8.9381,8.905,8.872,8.8757,8.839,8.8096,8.8096,8.8092,8.8056,8.8059,8.8096,8.8096,8.8096,8.8096,8.7839,8.7178,8.7031,8.7031,9.1803,9.1803,9.1803,9.1803,9.1803,9.1803,9.1803,9.1803,9.1803,9.1803,9.1803,9.1803,9.1803,9.1803,9.1803,9.1803,9.1803,9.1803,9.1803,9.1803,9.1803,9.1803,9.1803,9.1803,9.1803,9.1803,9.1803,9.1803,9.1803,9.1803,9.1803,9.1803,9.1803,9.184,9.195,9.158,9.1239,9.0819,9.0012,8.9421,8.8899,8.8596,8.827,8.7714,8.7714,8.7141,8.5872,8.6557,8.6411,8.542,8.5976,8.5919,8.5002,8.5103,8.4598,0.0,8.3351,0.0,0.0,0.0,0.0,0.0,0.0,0.0,0.0,8.268,8.3508,8.4273,8.4906,8.5549,8.6316,8.6611,8.6865,8.7256,8.7325,8.7582,8.8243,8.8353,8.861,8.9344,8.9417,8.9417,8.9344,8.9417,8.9381,8.9307,8.9271,8.9087,8.8683,8.8426,8.861,8.9344,8.9528,8.9601,8.9748,8.9784,8.9784,8.9784,8.9674,8.9564,8.9564,8.9454,8.9381,8.9344,8.9231,8.9301,8.9381,8.931,8.931,8.9307,8.9271,8.8867,8.7802,8.7472,8.7325,9.1803,9.1803,9.1803,9.1803,9.1803,9.1803,9.1803,9.1803,9.1803,9.1803,9.1803,9.1803,9.1803,9.1803,9.1803,9.1803,9.1803,9.1803,9.1803,9.1803,9.1803,9.1803,9.1803,9.1803,9.1803,9.1803,9.1803,9.1803,9.1803,9.1803,9.1803,9.1803,9.1803,9.217,9.2831,0.0,0.0,0.0,9.0048,8.9628,8.8899,8.8452,8.7936,8.7275,8.7178,0.0,8.5422,8.5994,8.5741,8.4411,8.4757,0.0,0.0,0.0,0.0,0.0,0.0,0.0,0.0,0.0,0.0,0.0,8.486,8.4456,8.2572,8.3787,8.5194,8.619,8.6926,8.7486,8.8026,8.8325,8.8726,8.8906,8.8977,8.905,8.916,8.9197,8.9271,8.9381,8.9417,8.9417,8.9491,8.9417,8.9454,8.9491,8.9417,8.9638,9.0078,8.9564,8.9271,8.9454,9.0005,9.0629,9.1253,9.1289,9.1179,9.1289,9.0776,9.0408,9.0335,8.9858,8.9454,8.9491,8.9381,8.9417,8.9454,8.9385,8.9531,8.9383,8.9454,8.9344,8.905,8.894,8.8904,9.1803,9.1803,9.1803,9.1803,0.0,9.1803,9.1803,9.1803,9.1803,9.1803,9.1803,9.1803,9.1803,9.1803,9.1803,9.1803,9.1803,9.1803,9.1803,9.1803,9.1803,9.1803,9.1803,9.1803,9.1803,9.1803,9.1803,9.1803,9.1803,9.2244,9.2427,9.2464,9.2831,9.3235,9.3675,9.3338,9.2654,9.1614,9.1115,9.0387,8.9503,8.887,8.8135,8.7309,8.7213,0.0,0.0,0.0,0.0,0.0,0.0,0.0,0.0,8.4776,0.0,8.4677,8.4691,8.4765,8.4773,8.5141,8.5616,8.601,8.6567,8.6215,8.4727,8.5656,8.6633,8.7321,8.7841,8.8346,8.8763,8.8947,8.9202,8.9346,8.9417,8.9564,8.9931,9.0005,9.0152,9.0519,9.0592,9.0592,9.0592,9.0592,9.0592,9.0592,9.0592,9.0702,9.1033,9.0519,9.0115,9.0519,9.0886,9.1326,9.1693,9.1803,9.1803,9.173,9.1473,9.1216,9.1179,9.0886,9.0592,9.0592,9.0592,9.0592,9.0592,9.0593,9.0557,9.0629,9.0592,9.0592,9.0555,9.0005,8.9381,9.1803,9.1803,9.1803,9.1803,9.1803,9.1803,9.1803,9.1803,9.1803,0.0,0.0,9.1803,9.1803,9.1803,9.1803,9.1803,9.1803,9.1803,9.1803,9.1803,9.1803,9.1803,9.1803,9.1803,9.1877,9.2024,9.2024,9.2097,9.2281,9.2978,9.3308,9.3382,9.3969,9.4373,9.452,9.4212,9.3856,9.3452,9.2324,9.1283,9.0499,8.9739,8.8896,8.8076,8.765,8.7004,8.6238,8.6347,8.6114,8.5378,8.5742,8.5886,8.5707,8.6029,8.6205,8.6293,8.6724,8.7014,8.7346,8.7556,8.7789,8.7933,8.8281,8.8201,8.7407,8.7735,8.8129,8.8432,8.8822,8.9126,8.9532,8.9605,8.9678,8.9821,8.9821,9.0115,9.0702,9.0812,9.1069,9.1657,9.173,9.1767,9.173,9.1693,9.1803,9.1767,9.1657,9.1803,9.173,9.1216,9.1033,9.1546,9.1657,9.1767,9.1803,9.1803,9.1803,9.1803,9.1767,9.1803,9.1803,9.1803,9.1803,9.1657,9.1767,9.173,9.1767,9.1693,9.1803,9.1803,9.1803,9.1803,9.1693,9.0776,8.9931,9.1803,9.1803,9.1803,9.1803,9.1803,9.1803,9.1803,9.1803,9.1803,9.1803,9.1803,9.1803,9.1803,9.1803,9.1803,9.1803,9.1803,9.1803,9.1803,9.1803,9.1803,9.1803,9.1803,9.1803,9.2207,9.2868,9.2941,9.3272,9.3896,9.4042,9.4116,9.4153,9.4226,9.4666,9.5251,9.5601,9.5575,9.5494,9.3326,9.2094,9.1762,9.0976,9.0481,9.0023,8.9237,8.8345,8.7539,8.7185,8.6572,8.5832,8.6064,8.6188,8.6188,8.6311,8.6451,8.6724,8.6894,8.7062,8.7474,8.7717,8.8324,8.9325,9.0248,9.0357,8.9434,8.9361,8.9807,9.0616,9.0844,9.1104,9.1179,9.1254,9.129,9.14,9.1436,9.151,9.1583,9.1583,9.162,9.1767,9.1803,9.1803,9.1803,9.1803,9.1803,9.1803,9.1803,9.1803,9.1767,9.1693,9.1657,9.1767,9.1803,9.1803,9.1803,9.1803,9.1803,9.1803,9.1803,9.1803,9.1803,9.1803,9.1803,9.1803,9.1803,9.1803,9.1803,9.1803,9.1803,9.1803,9.1803,9.1803,9.1803,9.1473,9.1363,9.2758,9.3125,9.3161,9.3161,9.3161,9.3161,9.3161,9.3161,9.3161,9.2648,9.184,9.1803,9.1803,9.1803,9.1803,9.1803,9.1803,9.1803,9.206,9.2501,9.2501,9.2758,9.3125,9.3125,9.3382,9.3749,9.3749,9.3932,9.4299,9.474,9.496,9.4997,9.5364,9.5768,9.6171,9.6192,9.618,9.618,9.4638,9.3467,9.2776,9.2425,9.1853,9.1118,9.0489,9.0078,8.9689,8.9371,8.8714,8.7937,8.8117,8.794,8.7551,8.7816,8.8042,8.8178,8.8518,8.885,8.9176,8.9459,8.9952,9.0623,9.1139,9.1212,9.0922,9.0698,9.0881,9.1285,9.1583,9.1657,9.1657,9.173,9.1803,9.1803,9.1803,9.1803,9.1803,9.1803,9.1803,9.1803,9.1803,9.1803,9.1803,9.1803,9.1803,9.1803,9.1803,9.1803,9.1803,9.1803,9.1803,9.1803,9.1803,9.1803,9.1803,9.1803,9.1803,9.1803,9.1803,9.1803,9.1803,9.1803,9.1803,9.1803,9.1803,9.1803,9.1803,9.1803,9.1803,9.1803,9.1803,9.1803,9.1803,9.1803,9.1803,9.3712,9.4299,9.4299,9.4299,9.4299,9.4299,9.4299,9.4299,9.4263,9.3565,9.2464,9.2354,9.2354,9.2354,9.2354,9.2354,9.2354,9.2354,9.2721,9.3345,9.3345,9.3712,9.4263,9.4299,9.4373,9.4556,9.4556,9.4666,9.4887,9.5474,9.5804,9.5841,9.6392,9.6722,9.6685,9.6453,9.6411,9.6375,9.5612,9.4783,9.4035,9.374,9.3191,9.2442,9.1961,9.18,9.18,9.1406,9.0925,9.0356,9.0285,8.9965,8.929,8.9534,8.9636,8.9579,9.0048,9.0537,9.0819,9.113,9.1358,9.1583,9.1583,9.1657,9.1803,9.1657,9.1583,9.1583,9.173,9.1803,9.1803,9.1803,9.1803,9.1803,9.1803,9.1803,9.1803,9.1803,9.1803,9.1803,9.1803,9.1803,9.1803,9.1803,9.1803,9.1803,9.1803,9.1803,9.1803,9.1803,9.1803,9.1803,9.1803,9.1803,9.1803,9.1803,9.1803,9.1803,9.1803,9.1803,9.1803,9.1803,9.1803,9.1803,9.1803,9.1803,9.1803,9.1803,9.1803,9.1803,9.1803,9.1803,9.1803,9.1803,9.1803,9.4226,9.4299,9.4373,9.4299,9.4373,9.4336,9.4373,9.4373,9.4299,9.4226,9.4079,9.4079,9.4042,9.4042,9.4006,9.3969,9.3969,9.4042,9.4079,9.4153,9.4189,9.4226,9.4373,9.4336,9.4666,9.5327,9.5401,9.5731,9.6318,9.6502,9.6575,9.6612,9.6649,9.6722,9.6722,9.6531,9.6411,9.6411,9.61,9.574,9.5503,9.5085,9.4792,9.472,9.374,9.3294,9.3294,9.2576,9.2144,9.2073,9.2073,9.1749,9.1018,9.0995,9.0756,9.0321,9.0493,9.0819,9.1358,9.1433,9.1583,9.173,9.1803,9.1803,9.1803,9.1803,9.1803,9.1803,9.1803,9.1803,9.1803,9.1803,9.1803,9.1803,9.1803,9.1803,9.1803,9.1803,9.1803,9.1803,9.1803,9.1803,9.1803,9.1803,9.1803,9.1803,9.1803,9.1803,9.1803,9.1913,9.1913,9.1877,9.184,9.1877,9.184,9.1803,9.1803,9.1803,9.1803,9.1803,9.1803,9.1803,9.1803,9.1803,9.1803,9.1803,9.1803,9.1803,9.1803,9.1803,9.1803,9.1803,9.1803,9.1803,9.1803,9.529,9.5731,9.5731,9.5731,9.5731,9.5694,9.5731,9.5694,9.5694,9.5694,9.5731,9.5694,9.518,9.4299,9.4299,9.4299,9.4299,9.4299,9.4556,9.4997,9.5034,9.5254,9.5694,9.5731,9.5914,9.6171,9.6208,9.6392,9.6649,9.6722,9.6722,9.6722,9.6722,9.6722,9.6685,9.6645,9.6531,9.6568,9.6453,9.6375,9.6259,9.5858,9.5612,9.5576,9.5036,9.4723,9.4602,9.4143,9.3661,9.3057,9.2985,9.2626,9.187,9.2088,9.211,9.1913,9.1879,9.183,9.1545,9.1546,9.173,9.1803,9.1803,9.1803,9.1803,9.1803,9.1803,9.1803,9.1803,9.1803,9.1803,9.1803,9.1803,9.1803,9.1803,9.1803,9.1803,9.1803,9.1803,9.1803,9.1803,9.1803,9.1803,9.1803,9.1803,9.1803,9.1803,9.1877,9.184,9.2207,9.2537,9.2648,9.2941,9.2758,9.2134,9.1803,9.1803,9.1803,9.1803,9.1803,9.1877,9.1803,9.1803,9.184,9.1913,9.1913,9.1803,9.1803,9.1803,9.184,9.1803,9.1803,9.1803,9.1803,9.1803,9.6171,9.6649,9.6722,9.6722,9.6722,9.6722,9.6722,9.6722,9.6722,9.6722,9.6722,9.6722,9.6098,9.507,9.496,9.496,9.496,9.496,9.5254,9.5804,9.5841,9.6135,9.6685,9.6722,9.6722,9.6722,9.6685,9.6685,9.6722,9.6722,9.6722,9.6722,9.6722,9.6722,9.6722,9.6722,9.6722,9.6722,9.6722,9.6722,9.6608,9.6375,9.6216,9.61,9.5858,9.5695,9.5566,9.5362,9.4855,9.4107,9.4071,9.371,9.3001,9.3298,9.3433,9.3296,9.3217,9.2862,9.2278,9.239,9.2501,9.2501,9.2464,9.2501,9.2464,9.2464,9.2464,9.2537,9.2464,9.2427,9.1803,9.1803,9.1803,9.1803,9.1803,9.1803,9.1803,9.1803,9.1803,9.1803,9.1803,9.1913,9.2097,9.2207,9.2281,9.2537,9.2537,9.2464,9.2537,9.3051,9.3418,9.3418,9.3932,9.3749,9.2721,9.2611,9.2464,9.2464,9.2611,9.2648,9.2464,9.2501,9.2501,9.2941,9.2647,9.2574,9.2794,9.2648,9.2317,9.217,9.2024,9.1877,9.1803,9.1803,9.1803,9.6685,9.6722,9.6722,9.6722,9.6722,9.6722,9.6722,9.6722,9.6722,9.6722,9.6722,9.6722,9.6649,9.6502,9.6428,9.6575,9.6539,9.6465,9.6502,9.6575,9.6612,9.6649,9.6685,9.6722,9.6722,9.6722,9.6722,9.6722,9.6722,9.6722,9.6722,9.6722,9.6759,9.6759,9.6795,9.6832,9.6759,9.6869,9.6869,9.6795,9.6795,9.6759,9.6641,9.6448,9.61,9.602,9.5939,9.5777,9.5576,9.5576,9.5503,9.514,9.4532,9.4584,9.4531,9.4029,9.396,9.4,9.4041,9.4042,9.4042,9.4116,9.3969,9.4116,9.3932,9.3932,9.3932,9.4116,9.3969,9.3455,9.2244,9.2097,9.2024,9.1987,9.1913,9.1913,9.1877,9.206,9.184,9.1913,9.2024,9.2354,9.2941,9.3051,9.3345,9.3786,9.4079,9.4042,9.3932,9.4116,9.4226,9.4263,9.4373,9.4299,9.4189,9.3786,9.3896,9.3859,9.3639,9.3969,9.4116,9.4189,9.4116,9.408,9.3897,9.386,9.4117,9.3969,9.3602,9.3161,9.2391,9.2097,9.2134,9.1877,9.1803,9.6722,9.6722,9.6722,9.6722,9.6722,9.6722,9.6722,9.6722,9.6722,9.6722,9.6722,9.6722,9.6722,9.6722,9.6722,9.6722,9.6722,9.6722,9.6722,9.6722,9.6722,9.6722,9.6722,9.6722,9.6722,9.6722,9.6722,9.6722,9.6722,9.6722,9.6722,9.6795,9.7199,9.7456,9.753,9.8007,9.8227,9.8227,9.8264,9.8227,9.819,9.8264,9.7929,9.7379,9.6787,9.6375,9.6296,9.6216,9.602,9.5939,9.5858,9.5713,9.5539,9.5699,9.557,9.5028,9.4918,9.4774,9.4373,9.4299,9.4299,9.4299,9.4299,9.4336,9.4299,9.4299,9.4299,9.4299,9.4299,9.3896,9.3602,9.3382,9.3382,9.3382,9.3382,9.3345,9.3382,9.3382,9.3382,9.3382,9.3382,9.3565,9.3712,9.3859,9.3969,9.4226,9.4299,9.4336,9.441,9.4703,9.507,9.518,9.5511,9.5841,9.5841,9.4813,9.4263,9.4263,9.4226,9.4263,9.4373,9.4483,9.441,9.452,9.4595,9.4632,9.4593,9.4446,9.4189,9.3969,9.3198,9.2684,9.2648,9.2427,9.2097,9.6722,9.6722,9.6722,9.6722,9.6722,9.6722,9.6722,9.6722,9.6722,9.6722,9.6722,9.6722,9.6722,9.6722,9.6722,9.6722,9.6722,9.6722,9.6722,9.6722,9.6722,9.6722,9.6722,9.6722,9.6722,9.6759,9.6979,9.7089,9.7126,9.7346,9.7493,9.753,9.8043,9.8264,9.8374,9.8851,9.9108,9.9108,9.9108,9.9108,9.9108,9.9108,9.8851,9.83,9.775,9.7122,9.6526,9.6453,9.6296,9.6216,9.61,9.618,9.6296,9.6375,9.6311,9.5988,9.5914,9.5694,9.518,9.507,9.507,9.507,9.5107,9.507,9.507,9.507,9.507,9.507,9.507,9.507,9.507,9.507,9.4887,9.4446,9.4299,9.4299,9.4299,9.4263,9.4263,9.4189,9.4189,9.4336,9.463,9.4666,9.4813,9.4997,9.507,9.507,9.518,9.5511,9.5914,9.5951,9.6282,9.6502,9.6465,9.5731,9.5364,9.5327,9.518,9.5034,9.4887,9.4923,9.496,9.4997,9.5034,9.507,9.4997,9.4813,9.4703,9.4666,9.4079,9.3492,9.3308,9.3051,9.2758,9.6722,9.6722,9.6722,9.6722,9.6722,9.6722,9.6722,9.6722,9.6722,9.6722,9.6722,9.6722,9.6722,9.6722,9.6722,9.6722,9.6722,9.6795,9.6795,9.6722,9.6722,9.6722,9.6722,9.6795,9.6906,9.6979,9.7566,9.7897,9.7933,9.8521,9.8888,9.8998,9.9035,9.9108,9.9108,9.9255,9.9255,9.9328,9.9365,9.9292,9.9145,9.9292,9.9292,9.9145,9.9035,9.8337,9.6906,9.6677,9.6558,9.6484,9.6448,9.649,9.6645,9.6685,9.6685,9.6649,9.6649,9.6649,9.6612,9.6539,9.6428,9.6428,9.6575,9.6465,9.6392,9.6465,9.6465,9.6428,9.6465,9.6539,9.6502,9.6465,9.5951,9.4666,9.4593,9.4593,9.452,9.4373,9.4336,9.4483,9.4556,9.474,9.5254,9.5511,9.5731,9.6208,9.6392,9.6392,9.6318,9.6428,9.6612,9.6612,9.6649,9.6685,9.6722,9.6685,9.6649,9.6575,9.6392,9.6245,9.6061,9.6061,9.5951,9.5988,9.5951,9.5988,9.5914,9.5731,9.5547,9.5401,9.4777,9.4336,9.4153,9.3932,9.3603,9.6722,9.6722,9.6722,9.6722,9.6722,9.6722,9.6722,9.6722,9.6722,9.6722,9.6722,9.6722,9.6722,9.6722,9.6722,9.6722,9.6759,9.7199,9.7236,9.6832,9.6759,9.6759,9.6832,9.7273,9.7823,9.83,9.8594,9.8741,9.8778,9.9035,9.9108,9.9181,9.9695,9.9916,9.9952,10.0429,10.076,10.076,10.076,10.076,10.0723,10.0723,10.0466,9.9989,9.9916,9.9402,9.8447,9.8295,9.8002,9.7489,9.7415,9.7195,9.6832,9.6722,9.6722,9.6722,9.6722,9.6722,9.6722,9.6722,9.6722,9.6722,9.6722,9.6722,9.6722,9.6722,9.6722,9.6722,9.6722,9.6722,9.6722,9.6722,9.6428,9.5988,9.5951,9.5878,9.5804,9.5878,9.5951,9.5951,9.5951,9.6098,9.6245,9.6318,9.6392,9.6612,9.6722,9.6722,9.6722,9.6722,9.6722,9.6722,9.6722,9.6722,9.6722,9.6722,9.6722,9.6722,9.6722,9.6722,9.6722,9.6722,9.6722,9.6722,9.6722,9.6685,9.6649,9.6502,9.6245,9.6061,9.5584,9.529,9.5144,9.4813,9.4558,9.6722,9.6722,9.6722,9.6722,9.6722,9.6722,9.6722,9.6722,9.6722,9.6869,9.7089,9.7163,9.7346,9.753,9.7603,9.7603,9.7676,9.8154,9.808,9.764,9.7603,9.7603,9.764,9.808,9.8557,9.9071,9.9402,9.9548,9.9585,9.9842,9.9989,10.0099,10.0503,10.076,10.076,10.12,10.1494,10.1494,10.1457,10.1494,10.1494,10.1494,10.1237,10.0796,10.0723,10.0466,10.0026,9.9989,9.9475,9.8557,9.8337,9.797,9.7236,9.7163,9.7016,9.6759,9.6722,9.6722,9.6722,9.6722,9.6722,9.6722,9.6722,9.6722,9.6722,9.6722,9.6722,9.6722,9.6722,9.6722,9.6722,9.6722,9.6722,9.6685,9.6649,9.6722,9.6722,9.6722,9.6685,9.6612,9.6649,9.6722,9.6722,9.6722,9.6722,9.6722,9.6722,9.6722,9.6722,9.6722,9.6722,9.6722,9.6722,9.6722,9.6722,9.6722,9.6722,9.6722,9.6722,9.6722,9.6722,9.6722,9.6722,9.6722,9.6722,9.6722,9.6685,9.6685,9.6539,9.6392,9.6245,9.6135,9.5914,9.5768,9.5437,9.6722,9.6722,9.6722,9.6759,9.6832,9.6832,9.6942,9.6942,9.6942,9.7383,9.786,9.797,9.8337,9.8924,9.8814,9.8851,9.9071,9.9108,9.9145,9.9108,9.9181,9.9181,9.9108,9.9108,9.9292,9.9512,10.0062,10.0356,10.0393,10.0943,10.1494,10.131,10.131,10.1457,10.1384,10.1494,10.1494,10.1494,10.1494,10.1494,10.1494,10.1494,10.1457,10.142,10.1384,10.1347,10.1274,10.12,10.065,9.9402,9.9071,9.8668,9.8117,9.797,9.764,9.7089,9.6869,9.6832,9.6795,9.6759,9.6722,9.6722,9.6722,9.6722,9.6722,9.6722,9.6722,9.6722,9.6722,9.6722,9.6722,9.6722,9.6722,9.6722,9.6722,9.6722,9.6722,9.6722,9.6722,9.6722,9.6722,9.6722,9.6722,9.6722,9.6722,9.6722,9.6722,9.6722,9.6722,9.6722,9.6722,9.6722,9.6722,9.6722,9.6722,9.6722,9.6722,9.6722,9.6722,9.6722,9.6722,9.6722,9.6722,9.6722,9.6722,9.6722,9.6722,9.6722,9.6722,9.6612,9.6575,9.6685,9.6575,9.6318,9.6135,9.6722,9.6722,9.6722,9.7052,9.753,9.7566,9.7933,9.8411,9.8447,9.8521,9.8778,9.8814,9.8924,9.9108,9.9145,9.9108,9.9328,9.9732,9.9989,10.0099,10.0613,10.0466,10.0099,9.9989,10.0283,10.076,10.0943,10.1164,10.12,10.1384,10.1494,10.1494,10.1494,10.1494,10.1494,10.1494,10.1494,10.1494,10.1494,10.1494,10.1494,10.1494,10.1494,10.1494,10.1494,10.1494,10.1494,10.1494,10.1053,10.0062,9.9402,9.9035,9.8814,9.8778,9.8631,9.8337,9.786,9.7603,9.7456,9.7089,9.6795,9.6722,9.6795,9.6722,9.6722,9.6722,9.6722,9.6722,9.6722,9.6722,9.6722,9.6722,9.6722,9.6722,9.6722,9.6722,9.6722,9.6722,9.6722,9.6722,9.6722,9.6722,9.6722,9.6722,9.6722,9.6722,9.6722,9.6722,9.6722,9.6722,9.6722,9.6722,9.6722,9.6722,9.6722,9.6722,9.6722,9.6722,9.6722,9.6722,9.6722,9.6722,9.6722,9.6722,9.6722,9.6722,9.6722,9.6722,9.6722,9.6722,9.6722,9.6722,9.6722,9.6575,9.6539,9.7383,9.7713,9.7713,9.797,9.8374,9.8411,9.8668,9.9035,9.9108,9.9328,9.9548,9.9622,9.9769,10.0099,10.0136,10.0099,10.0172,10.0576,10.0796,10.087,10.1237,10.1164,10.087,10.0796,10.1053,10.142,10.1494,10.1457,10.1457,10.1494,10.1494,10.1494,10.1494,10.1494,10.1494,10.1494,10.1494,10.1494,10.1494,10.1494,10.1494,10.1494,10.1494,10.1494,10.1494,10.1494,10.1494,10.1494,10.1237,10.0796,10.0356,9.9952,9.9622,9.9622,9.9438,9.9145,9.8631,9.8411,9.8337,9.7933,9.7566,9.7273,9.7199,9.7016,9.6795,9.6722,9.6722,9.6722,9.6722,9.6722,9.6722,9.6722,9.6722,9.6722,9.6722,9.6722,9.6722,9.6722,9.6722,9.6722,9.6722,9.6722,9.6722,9.6722,9.6722,9.6722,9.6722,9.6722,9.6722,9.6722,9.6722,9.6722,9.6722,9.6722,9.6722,9.6722,9.6722,9.6722,9.6722,9.6722,9.6722,9.6722,9.6722,9.6722,9.6722,9.6722,9.6722,9.6722,9.6722,9.6722,9.6722,9.6722,9.6722,9.6722,9.6722,9.8447,9.9108,9.9108,9.9145,9.9218,9.9218,9.9365,9.9402,9.9512,9.9842,10.0319,10.0393,10.0723,10.1494,10.12,10.142,10.1384,10.131,10.1384,10.142,10.1494,10.142,10.1384,10.1347,10.1384,10.1494,10.1494,10.1494,10.1494,10.1494,10.1494,10.1494,10.1494,10.1494,10.1494,10.1494,10.1494,10.1494,10.1494,10.1494,10.1494,10.1494,10.1494,10.1494,10.1494,10.1494,10.1494,10.1494,10.1457,10.1457,10.1494,10.1017,10.0466,10.0429,10.0136,9.9585,9.9402,9.9255,9.9181,9.9035,9.8741,9.8154,9.8007,9.775,9.7309,9.7236,9.7236,9.7273,9.6979,9.7163,9.7163,9.7052,9.7052,9.7052,9.6906,9.6832,9.6722,9.6722,9.6722,9.6722,9.6722,9.6722,9.6722,9.6722,9.6722,9.6722,9.6722,9.6722,9.6722,9.6722,9.6722,9.6722,9.6722,9.6722,9.6722,9.6722,9.6722,9.6722,9.6722,9.6722,9.6722,9.6722,9.6722,9.6722,9.6722,9.6722,9.6722,9.6722,9.6722,9.6722,9.6722,9.6722,9.6722,9.6722,9.6722,9.8961,9.9108,9.9108,9.9475,9.9989,10.0062,10.0393,10.0907,10.0943,10.0943,10.12,10.12,10.131,10.1494,10.1494,10.1494,10.1494,10.1494,10.1494,10.1494,10.1494,10.1494,10.1494,10.1494,10.1494,10.1494,10.1494,10.1494,10.1494,10.1494,10.1494,10.1494,10.1494,10.1494,10.1494,10.1494,10.1494,10.1494,10.1494,10.1494,10.1494,10.1494,10.1494,10.1494,10.1494,10.1494,10.1494,10.1494,10.1494,10.1494,10.1457,10.1347,10.12,10.1164,10.1017,10.076,10.0283,10.0026,9.9952,9.9548,9.9071,9.8924,9.8814,9.8778,9.8668,9.8484,9.8521,9.8594,9.8594,9.8411,9.8374,9.8521,9.819,9.7787,9.764,9.7419,9.6906,9.6722,9.6722,9.6722,9.6722,9.6722,9.6722,9.6722,9.6722,9.6722,9.6722,9.6722,9.6722,9.6722,9.6722,9.6722,9.6722,9.6722,9.6722,9.6722,9.6722,9.6722,9.6722,9.6722,9.6722,9.6722,9.6722,9.6722,9.6722,9.6722,9.6722,9.6722,9.6722,9.6722,9.6722,9.6722,9.6722,9.6722,9.6722,9.9916,10.0209,10.0209,10.0466,10.0796,10.0833,10.109,10.142,10.1494,10.1494,10.1494,10.1494,10.1494,10.1494,10.1494,10.1494,10.1494,10.1494,10.1494,10.1494,10.1494,10.1494,10.1494,10.1494,10.1494,10.1494,10.1494,10.1494,10.1494,10.1494,10.1494,10.1494,10.1494,10.1494,10.1494,10.1531,10.1494,10.1494,10.1494,10.1494,10.1494,10.1494,10.1494,10.1494,10.1494,10.1494,10.1494,10.1494,10.1494,10.1494,10.1494,10.1494,10.1494,10.1494,10.1494,10.1384,10.1164,10.0833,10.0686,10.0503,10.0099,9.9695,9.9659,9.9402,9.9218,9.9108,9.9108,9.9108,9.9071,9.9071,9.9108,9.9071,9.8814,9.8631,9.8484,9.8264,9.7823,9.7199,9.6722,9.6722,9.6722,9.6722,9.6722,9.6906,9.6832,9.6869,9.6832,9.6795,9.6722,9.6722,9.6722,9.6722,9.6722,9.6722,9.6722,9.6722,9.6722,9.6722,9.6722,9.6722,9.6722,9.6722,9.6722,9.6722,9.6722,9.6722,9.6722,9.6722,9.6722,9.6722,9.6722,9.6722,9.6722,9.6722,9.6722,10.087,10.1494,10.1494,10.1494,10.1494,10.1457,10.1457,10.1494,10.1494,10.1494,10.1494,10.1494,10.1494,10.1494,10.1494,10.1494,10.1494,10.1494,10.1494,10.1494,10.1494,10.1494,10.1494,10.1494,10.1494,10.1494,10.1494,10.1494,10.1494,10.1494,10.1494,10.1494,10.1494,10.1494,10.1494,10.1641,10.1788,10.1824,10.2045,10.2081,10.2045,10.2045,10.2008,10.1788,10.1531,10.1494,10.1494,10.1494,10.1494,10.1494,10.1494,10.1494,10.1494,10.1494,10.1494,10.1494,10.1384,10.1347,10.1347,10.131,10.1053,10.0503,10.0466,10.0209,9.9732,9.9695,9.9732,9.9659,9.9695,9.9695,9.9475,9.9695,9.9548,9.9328,9.9292,9.9218,9.8888,9.786,9.7383,9.7236,9.7493,9.7566,9.7456,9.7493,9.7236,9.7052,9.7016,9.7016,9.6979,9.7052,9.7273,9.7456,9.7603,9.7676,9.764,9.7566,9.7493,9.7346,9.7199,9.7089,9.7089,9.7089,9.7126,9.6759,9.6722,9.6722,9.6722,9.6722,9.6722,9.6722,9.6722,9.6722,9.6722,9.6722,9.6722,10.1384,10.1494,10.1494,10.1494,10.1494,10.1494,10.1494,10.1494,10.1494,10.1494,10.1494,10.1494,10.1494,10.1494,10.1494,10.1494,10.1494,10.1494,10.1494,10.1494,10.1531,10.1604,10.1641,10.1788,10.1677,10.1494,10.1604,10.1677,10.1567,10.1494,10.1788,10.1604,10.1641,10.1641,10.1861,10.2118,10.2485,10.2558,10.2962,10.3219,10.3256,10.3219,10.2999,10.2522,10.2045,10.1714,10.1567,10.1531,10.1494,10.1494,10.1494,10.1494,10.1494,10.1494,10.1494,10.1494,10.1494,10.1494,10.1494,10.1457,10.142,10.131,10.12,10.1237,10.1017,10.098,10.0796,10.087,10.0907,10.1017,10.109,10.0833,10.065,10.0319,10.0062,9.9879,9.9328,9.8961,9.8704,9.8704,9.8704,9.8521,9.83,9.819,9.8154,9.808,9.8117,9.8117,9.8154,9.83,9.8484,9.8668,9.8814,9.8814,9.8814,9.8704,9.8631,9.8484,9.83,9.8043,9.797,9.7787,9.7566,9.7163,9.6832,9.6722,9.6722,9.6722,9.6722,9.6722,9.6722,9.6722,9.6722,9.6722,9.6722,10.1413,10.1494,10.1494,10.1494,10.1494,10.1494,10.1494,10.1494,10.1494,10.1494,10.1494,10.1494,10.1494,10.1494,10.1494,10.1494,10.1494,10.1494,10.1494,10.1531,10.1898,10.2118,10.2191,10.2485,10.2705,10.2742,10.2742,10.2448,10.2228,10.2595,10.2595,10.2742,10.2742,10.2742,10.2779,10.3109,10.3293,10.3439,10.3696,10.3953,10.3917,10.3917,10.3623,10.3329,10.2925,10.2558,10.2155,10.2118,10.1898,10.1604,10.1494,10.1494,10.1494,10.1494,10.1494,10.1494,10.1494,10.1494,10.1494,10.1494,10.1457,10.1494,10.1494,10.1494,10.1494,10.142,10.1494,10.1494,10.1494,10.1494,10.142,10.1494,10.1274,10.1053,10.0907,10.0686,10.0429,10.0319,10.0246,10.0062,9.9475,9.9108,9.8961,9.8924,9.9035,9.9108,9.9145,9.9218,9.9292,9.9328,9.9438,9.9402,9.9438,9.9438,9.9475,9.9475,9.9512,9.9438,9.9328,9.9071,9.8814,9.8594,9.8121,9.7607,9.7276,9.7056,9.6722,9.6722,9.6722,9.6722,9.6722,9.6722,9.6722,9.6722,9.6722,10.125,10.1413,10.1457,10.1494,10.1494,10.1494,10.1494,10.1494,10.1494,10.1494,10.1494,10.1494,10.1494,10.1494,10.1531,10.1567,10.1677,10.1751,10.1898,10.2228,10.2669,10.2962,10.3146,10.3476,10.3733,10.3623,10.399,10.3696,10.3146,10.3403,10.377,10.3696,10.3806,10.388,10.3806,10.3953,10.4063,10.4173,10.4357,10.4394,10.4394,10.421,10.4137,10.4063,10.399,10.3513,10.2999,10.2925,10.2669,10.2228,10.1934,10.1788,10.1714,10.1567,10.1494,10.1494,10.1494,10.1494,10.1494,10.1494,10.1494,10.1494,10.1494,10.1494,10.1494,10.1494,10.1494,10.1494,10.1494,10.1494,10.1494,10.1494,10.1494,10.1457,10.142,10.1457,10.131,10.1237,10.1164,10.076,10.0099,9.9879,9.9879,9.9952,10.0136,10.0136,10.0172,10.0136,10.0172,10.0062,10.0062,9.9916,9.9879,9.9879,9.9952,10.0062,10.0136,10.0209,10.0099,9.9952,9.9659,9.9365,9.8778,9.8305,9.7941,9.772,9.7239,9.6722,9.6722,9.6722,9.6722,9.6722,9.6722,9.6722,9.6722,10.1168,10.125,10.1413,10.1494,10.1494,10.1494,10.1494,10.1494,10.1494,10.1494,10.1494,10.1494,10.1494,10.1604,10.1641,10.1971,10.2375,10.2595,10.2852,10.3293,10.3623,10.377,10.377,10.3806,10.4173,10.432,10.4761,10.4467,10.41,10.4063,10.4027,10.41,10.4173,10.3953,10.4284,10.4724,10.4944,10.5091,10.5642,10.6009,10.5862,10.5311,10.5018,10.4798,10.443,10.399,10.3806,10.377,10.3623,10.3439,10.2852,10.2595,10.2448,10.1824,10.1567,10.1494,10.1494,10.1494,10.1494,10.1494,10.1494,10.1494,10.1494,10.1494,10.1494,10.1494,10.1494,10.1494,10.1494,10.1494,10.1494,10.1494,10.1494,10.1494,10.1494,10.1494,10.1494,10.1494,10.1494,10.1457,10.076,10.0907,10.1017,10.1127,10.1237,10.12,10.1164,10.1053,10.098,10.0796,10.0723,10.0576,10.054,10.054,10.0503,10.0613,10.065,10.0833,10.076,10.0686,10.0429,10.0099,9.9695,9.926,9.8782,9.8272,9.7644,9.7163,9.6869,9.6722,9.6722,9.6722,9.6722,9.6722,9.6722,10.0834,10.1204,10.1413,10.1494,10.1494,10.1494,10.1494,10.1494,10.1494,10.1494,10.1494,10.1494,10.1714,10.2155,10.2595,10.3036,10.3329,10.3366,10.3513,10.4027,10.4357,10.4577,10.4724,10.5054,10.5311,10.5275,10.5605,10.5715,10.5348,10.5238,10.5311,10.5238,10.5275,10.5385,10.5128,10.5605,10.5789,10.5935,10.6192,10.6339,10.6302,10.6046,10.5825,10.5825,10.5422,10.5054,10.4687,10.4577,10.432,10.4027,10.3476,10.3403,10.3329,10.2999,10.2705,10.2191,10.2191,10.1971,10.1604,10.1531,10.1494,10.1494,10.1494,10.1494,10.1494,10.1494,10.1494,10.1494,10.1494,10.1494,10.1494,10.1494,10.1494,10.1494,10.1494,10.1494,10.1494,10.1494,10.1494,10.1494,10.1494,10.1494,10.1494,10.1457,10.1384,10.1384,10.1347,10.131,10.1274,10.1237,10.1237,10.131,10.1274,10.1274,10.12,10.12,10.1127,10.12,10.12,10.1127,10.109,10.0796,10.0393,10.0099,9.9769,9.9035,9.8154,9.7566,9.7313,9.6979,9.6722,9.6722,9.6722,9.6722,9.6722,10.1074,10.167,10.1515,10.1494,10.1494,10.1494,10.1494,10.1494,10.1751,10.1824,10.1861,10.2045,10.2485,10.2962,10.3549,10.388,10.4173,10.421,10.4357,10.4687,10.5054,10.5385,10.5568,10.6046,10.6266,10.6376,10.6192,10.6229,10.6266,10.6266,10.6192,10.6376,10.6119,10.6229,10.6339,10.6266,10.6266,10.6302,10.6339,10.6376,10.6376,10.6376,10.6339,10.6339,10.6302,10.6082,10.5568,10.5458,10.5054,10.4761,10.432,10.421,10.4173,10.3843,10.3513,10.3072,10.2999,10.2632,10.2045,10.1714,10.1531,10.1494,10.1494,10.1494,10.1494,10.1494,10.1494,10.1494,10.1494,10.1494,10.1494,10.1494,10.1494,10.1494,10.1494,10.1494,10.1494,10.1494,10.1494,10.1494,10.1494,10.1494,10.1494,10.1494,10.1494,10.1494,10.1494,10.1494,10.1494,10.1494,10.1494,10.1494,10.1494,10.1494,10.1494,10.1494,10.1494,10.1494,10.1494,10.1457,10.1347,10.131,10.1053,10.0833,10.0533,10.0019,9.9292,9.8525,9.7717,9.7423,9.7089,9.6795,9.6722,9.6722,9.6685,10.2621,10.2998,10.1743,10.1405,10.1567,10.1494,10.1531,10.1751,10.2375,10.2632,10.2705,10.3329,10.366,10.388,10.41,10.4504,10.5018,10.5018,10.5385,10.5862,10.6266,10.6156,10.6229,10.6266,10.6376,10.6376,10.6376,10.6376,10.6376,10.6376,10.6376,10.6376,10.6376,10.6376,10.6376,10.6376,10.6376,10.6376,10.6376,10.6376,10.6376,10.6376,10.6376,10.6376,10.6376,10.6339,10.6302,10.6192,10.6082,10.5862,10.5348,10.5054,10.4944,10.4577,10.421,10.3917,10.3806,10.3403,10.2779,10.2045,10.1567,10.1494,10.1494,10.1494,10.1494,10.1494,10.1494,10.1494,10.1494,10.1494,10.1494,10.1494,10.1494,10.1494,10.1494,10.1494,10.1494,10.1494,10.1494,10.1494,10.1494,10.1494,10.1494,10.1494,10.1494,10.1494,10.1494,10.1494,10.1494,10.1494,10.1494,10.1494,10.1494,10.1494,10.1494,10.1494,10.1494,10.1494,10.1494,10.1494,10.1457,10.142,10.1384,10.131,10.1053,10.0723,10.0319,9.9328,9.8562,9.786,9.7383,9.6906,9.6722,9.6722,9.6685,10.2352,10.2994,10.2511,10.2631,10.2962,10.2962,10.2962,10.2999,10.3293,10.3439,10.3513,10.4247,10.4651,10.4761,10.5275,10.5568,10.5899,10.5899,10.6119,10.6266,10.6376,10.6376,10.6376,10.6376,10.6376,10.6376,10.6376,10.6376,10.6376,10.6376,10.6376,10.6376,10.6376,10.6376,10.6376,10.6376,10.6376,10.6376,10.6376,10.6376,10.6376,10.6376,10.6376,10.6376,10.6376,10.6376,10.6376,10.6376,10.6376,10.6302,10.6009,10.5862,10.5789,10.5422,10.5091,10.4724,10.4651,10.421,10.3476,10.2669,10.2045,10.1531,10.1494,10.1494,10.1494,10.1494,10.1494,10.1494,10.1494,10.1494,10.1494,10.1494,10.1494,10.1494,10.1494,10.1494,10.1494,10.1494,10.1494,10.1494,10.1494,10.1494,10.1494,10.1494,10.1494,10.1494,10.1494,10.1494,10.1494,10.1494,10.1494,10.1494,10.1494,10.1494,10.1494,10.1494,10.1494,10.1494,10.1494,10.1494,10.1494,10.1494,10.1457,10.1494,10.1494,10.1164,10.0686,10.0026,9.9218,9.8337,9.753,9.6795,9.6722,9.6685,9.6612,10.2667,10.3492,10.3758,10.39,10.3917,10.388,10.388,10.3953,10.4137,10.4467,10.4651,10.5275,10.5495,10.5678,10.6009,10.6302,10.6302,10.6302,10.6339,10.6376,10.6376,10.6376,10.6376,10.6376,10.6376,10.6376,10.6376,10.6376,10.6376,10.6376,10.6376,10.6376,10.6376,10.6376,10.6376,10.6376,10.6376,10.6376,10.6376,10.6376,10.6376,10.6376,10.6376,10.6376,10.6376,10.6376,10.6376,10.6376,10.6376,10.6376,10.6339,10.6339,10.6376,10.6302,10.6046,10.5715,10.5385,10.5091,10.4284,10.3256,10.2485,10.2045,10.1567,10.1531,10.1494,10.1494,10.1494,10.1494,10.1494,10.1494,10.1494,10.1494,10.1494,10.1494,10.1494,10.1494,10.1494,10.1494,10.1494,10.1494,10.1494,10.1494,10.1494,10.1494,10.1494,10.1494,10.1494,10.1494,10.1494,10.1494,10.1494,10.1494,10.1494,10.1494,10.1494,10.1494,10.1494,10.1494,10.1494,10.1494,10.1494,10.1494,10.1494,10.1494,10.1494,10.1494,10.109,10.0429,9.9548,9.8594,9.7713,9.6795,9.6608,9.6572,9.6388,10.3988,10.4887,10.5234,10.4887,10.41,10.3917,10.399,10.4247,10.4798,10.5458,10.6009,10.6229,10.6229,10.6266,10.6339,10.6376,10.6376,10.6376,10.6376,10.6376,10.6376,10.6376,10.6376,10.6376,10.6376,10.6376,10.6376,10.6376,10.6376,10.6376,10.6376,10.6376,10.6376,10.6376,10.6376,10.6376,10.6376,10.6376,10.6376,10.6376,10.6376,10.6376,10.6376,10.6376,10.6376,10.6376,10.6376,10.6376,10.6376,10.6376,10.6376,10.6376,10.6376,10.6376,10.6302,10.6229,10.6229,10.5862,10.5128,10.3623,10.2962,10.2632,10.2191,10.1714,10.1567,10.1531,10.1494,10.1494,10.1494,10.1494,10.1494,10.1494,10.1494,10.1494,10.1494,10.1494,10.1494,10.1494,10.1494,10.1494,10.1494,10.1494,10.1494,10.1494,10.1494,10.1494,10.1494,10.1494,10.1494,10.1494,10.1494,10.1494,10.1494,10.1494,10.1494,10.1494,10.1494,10.1494,10.1494,10.1494,10.1494,10.1494,10.1494,10.1494,10.1494,10.1494,10.1237,10.079,9.9989,9.9071,9.7672,9.6828,9.6604,9.6343,9.616,10.3608,10.4419,10.5071,10.5319,10.5278,10.5448,10.5532,10.5605,10.5862,10.6119,10.6339,10.6376,10.6376,10.6376,10.6376,10.6376,10.6376,10.6376,10.6376,10.6376,10.6376,10.6376,10.6376,10.6376,10.6376,10.6376,10.6376,10.6376,10.6376,10.6376,10.6376,10.6376,10.6376,10.6376,10.6376,10.6376,10.6376,10.6376,10.6376,10.6376,10.6376,10.6376,10.6376,10.6376,10.6376,10.6376,10.6376,10.6376,10.6376,10.6376,10.6376,10.6376,10.6376,10.6376,10.6376,10.6376,10.6376,10.6302,10.5789,10.4908,10.41,10.3513,10.2815,10.2338,10.2301,10.1751,10.1604,10.1494,10.1531,10.1531,10.1494,10.1494,10.1494,10.1494,10.1494,10.1494,10.1494,10.1494,10.1494,10.1494,10.1494,10.1494,10.1494,10.1494,10.1494,10.1494,10.1494,10.1494,10.1494,10.1494,10.1494,10.1494,10.1494,10.1494,10.1494,10.1494,10.1494,10.1494,10.1494,10.1494,10.1494,10.1494,10.1494,10.1494,10.1494,10.1457,10.1274,10.098,10.0466,9.9548,9.8259,9.7039,9.6594,9.618,9.5808,10.3208,10.3999,10.4795,10.547,10.5911,10.6291,10.6376,10.6376,10.6376,10.6376,10.6376,10.6376,10.6376,10.6376,10.6376,10.6376,10.6376,10.6376,10.6376,10.6376,10.6376,10.6376,10.6376,10.6376,10.6376,10.6376,10.6376,10.6376,10.6376,10.6376,10.6376,10.6376,10.6376,10.6376,10.6376,10.6376,10.6376,10.6376,10.6376,10.6376,10.6376,10.6376,10.6376,10.6376,10.6376,10.6376,10.6376,10.6376,10.6376,10.6376,10.6376,10.6376,10.6376,10.6376,10.6376,10.6376,10.6376,10.6376,10.6119,10.5935,10.5238,10.4871,10.377,10.3182,10.2999,10.2448,10.2118,10.1934,10.1714,10.1567,10.1531,10.1531,10.1531,10.1531,10.1494,10.1494,10.1494,10.1494,10.1494,10.1494,10.1494,10.1494,10.1494,10.1494,10.1494,10.1494,10.1494,10.1494,10.1494,10.1494,10.1494,10.1494,10.1494,10.1494,10.1494,10.1494,10.1494,10.1494,10.1494,10.1494,10.1494,10.1494,10.1494,10.1494,10.1494,10.1457,10.1384,10.109,10.0723,9.9939,9.8789,9.7758,9.6801,9.6056,9.5494,10.2904,10.3706,10.4514,10.5163,10.5611,10.6206,10.6376,10.6376,10.6376,10.6376,10.6376,10.6376,10.6376,10.6376,10.6376,10.6376,10.6376,10.6376,10.6376,10.6376,10.6376,10.6376,10.6376,10.6376,10.6376,10.6376,10.6376,10.6376,10.6376,10.6376,10.6376,10.6376,10.6376,10.6376,10.6376,10.6376,10.6376,10.6376,10.6376,10.6376,10.6376,10.6376,10.6376,10.6376,10.6376,10.6376,10.6376,10.6376,10.6376,10.6376,10.6376,10.6376,10.6376,10.6376,10.6376,10.6376,10.6376,10.6376,10.6376,10.6229,10.6229,10.5752,10.4871,10.4247,10.3696,10.3256,10.2852,10.2595,10.2375,10.1934,10.1677,10.1641,10.1604,10.1567,10.1494,10.1494,10.1494,10.1494,10.1494,10.1494,10.1494,10.1494,10.1494,10.1494,10.1494,10.1494,10.1494,10.1494,10.1494,10.1494,10.1494,10.1494,10.1494,10.1494,10.1494,10.1494,10.1494,10.1494,10.1494,10.1494,10.1494,10.1494,10.1494,10.1494,10.1494,10.1457,10.142,10.131,10.1046,10.0188,9.9367,9.8062,9.695,9.5658,9.4902,10.2316,10.2904,10.3902,10.4702,10.547,10.612,10.6376,10.6376,10.6376,10.6376,10.6376,10.6376,10.6376,10.6376,10.6376,10.6376,10.6376,10.6376,10.6376,10.6376,10.6376,10.6376,10.6376,10.6376,10.6376,10.6376,10.6376,10.6376,10.6376,10.6376,10.6376,10.6376,10.6376,10.6376,10.6376,10.6376,10.6376,10.6376,10.6376,10.6376,10.6376,10.6376,10.6376,10.6376,10.6376,10.6376,10.6376,10.6376,10.6376,10.6376,10.6376,10.6376,10.6376,10.6376,10.6376,10.6376,10.6376,10.6376,10.6376,10.6376,10.6376,10.6376,10.5789,10.5385,10.4798,10.41,10.3586,10.3403,10.3146,10.2779,10.2448,10.2338,10.2045,10.1788,10.1714,10.1641,10.1604,10.1494,10.1494,10.1494,10.1494,10.1494,10.1494,10.1494,10.1494,10.1494,10.1494,10.1494,10.1494,10.1494,10.1494,10.1494,10.1494,10.1494,10.1494,10.1494,10.1494,10.1494,10.1494,10.1494,10.1494,10.1494,10.1494,10.1494,10.1494,10.1494,10.1457,10.1303,10.1149,10.0802,9.9896,9.8432,9.7053,9.5688,9.4359,10.1749,10.2594,10.3445,10.4419,10.5326,10.6034,10.6291,10.6376,10.6376,10.6376,10.6376,10.6376,10.6376,10.6376,10.6376,10.6376,10.6376,10.6376,10.6376,10.6376,10.6376,10.6376,10.6376,10.6376,10.6376,10.6376,10.6376,10.6376,10.6376,10.6376,10.6376,10.6376,10.6376,10.6376,10.6376,10.6376,10.6376,10.6376,10.6376,10.6376,10.6376,10.6376,10.6376,10.6376,10.6376,10.6376,10.6376,10.6376,10.6376,10.6376,10.6376,10.6376,10.6376,10.6376,10.6376,10.6376,10.6376,10.6376,10.6376,10.6376,10.6376,10.6376,10.6376,10.6082,10.5568,10.4908,10.4577,10.4284,10.399,10.3696,10.3403,10.3109,10.2595,10.2081,10.1971,10.1824,10.1677,10.1531,10.1494,10.1494,10.1494,10.1494,10.1494,10.1494,10.1494,10.1494,10.1494,10.1494,10.1494,10.1494,10.1494,10.1494,10.1494,10.1494,10.1494,10.1494,10.1494,10.1494,10.1494,10.1494,10.1494,10.1494,10.1494,10.1494,10.1494,10.1494,10.1413,10.1332,10.1177,10.0746,10.0045,9.8563,9.6986,9.5513,9.4267,10.1423,10.2386,10.3143,10.4132,10.529,10.5787,10.6169,10.6376,10.6376,10.6376,10.6376,10.6376,10.6376,10.6376,10.6376,10.6376,10.6376,10.6376,10.6376,10.6376,10.6376,10.6376,10.6376,10.6376,10.6376,10.6376,10.6376,10.6376,10.6376,10.6376,10.6376,10.6376,10.6376,10.6376,10.6376,10.6376,10.6376,10.6376,10.6376,10.6376,10.6376,10.6376,10.6376,10.6376,10.6376,10.6376,10.6376,10.6376,10.6376,10.6376,10.6376,10.6376,10.6376,10.6376,10.6376,10.6376,10.6376,10.6376,10.6376,10.6376,10.6376,10.6376,10.6376,10.6302,10.5935,10.5605,10.5311,10.5165,10.4908,10.4504,10.4173,10.399,10.3586,10.3072,10.2779,10.2412,10.2045,10.1788,10.1494,10.1494,10.1494,10.1494,10.1494,10.1494,10.1494,10.1494,10.1494,10.1494,10.1494,10.1494,10.1494,10.1494,10.1494,10.1494,10.1494,10.1494,10.1494,10.1494,10.1494,10.1494,10.1494,10.1494,10.1494,10.1457,10.142,10.1376,10.1332,10.1168,10.0881,10.0518,9.9738,9.8487,9.6976,9.545,9.3868,10.0683,10.1641,10.3309,10.4324,10.5108,10.5736,10.5997,10.6084,10.6291,10.6376,10.6376,10.6376,10.6376,10.6376,10.6376,10.6376,10.6376,10.6376,10.6376,10.6376,10.6376,10.6376,10.6376,10.6376,10.6376,10.6376,10.6376,10.6376,10.6376,10.6376,10.6376,10.6376,10.6376,10.6376,10.6376,10.6376,10.6376,10.6376,10.6376,10.6376,10.6376,10.6376,10.6376,10.6376,10.6376,10.6376,10.6376,10.6376,10.6376,10.6376,10.6376,10.6376,10.6376,10.6376,10.6376,10.6376,10.6376,10.6376,10.6376,10.6376,10.6376,10.6376,10.6376,10.6376,10.6302,10.6156,10.6046,10.5972,10.5752,10.5311,10.4981,10.4834,10.4541,10.4063,10.3549,10.3036,10.2485,10.2008,10.1604,10.1494,10.1494,10.1494,10.1494,10.1494,10.1494,10.1494,10.1494,10.1494,10.1413,10.1376,10.1413,10.1413,10.1494,10.1494,10.1494,10.1494,10.1494,10.1494,10.1494,10.1494,10.1494,10.1494,10.1413,10.134,10.1303,10.1168,10.0954,10.0749,10.0456,10.0246,9.9407,9.8118,9.6791,9.5237,9.365,10.0079,10.0948,10.2766,10.3902,10.4608,10.5343,10.5823,10.5997,10.6291,10.6376,10.6376,10.6376,10.6376,10.6376,10.6376,10.6376,10.6376,10.6376,10.6376,10.6376,10.6376,10.6376,10.6376,10.6376,10.6376,10.6376,10.6376,10.6376,10.6449,10.6376,10.6376,10.6413,10.6413,10.6413,10.6413,10.6376,10.6376,10.6376,10.6376,10.6376,10.6376,10.6376,10.6376,10.6376,10.6376,10.6376,10.6376,10.6376,10.6376,10.6376,10.6376,10.6376,10.6376,10.6376,10.6376,10.6376,10.6376,10.6376,10.6376,10.6376,10.6376,10.6376,10.6376,10.6376,10.6376,10.6266,10.6266,10.6192,10.6192,10.5825,10.5789,10.5642,10.5201,10.4724,10.4357,10.3917,10.3109,10.2412,10.1898,10.1494,10.1494,10.1494,10.1494,10.1494,10.1494,10.1332,10.1332,10.125,10.125,10.1213,10.1213,10.1213,10.1332,10.1413,10.1494,10.1494,10.1494,10.1494,10.1494,10.1413,10.1332,10.1332,10.1295,10.103,10.0902,10.0846,10.0587,10.0252,10.0054,9.975,9.8964,9.7953,9.6444,9.4995,9.3401,9.9733,10.0535,10.214,10.3208,10.3999,10.4831,10.547,10.5911,10.6206,10.6376,10.6376,10.6376,10.6376,10.6376,10.6376,10.6376,10.6376,10.6376,10.6376,10.6376,10.6376,10.6376,10.6376,10.6376,10.6376,10.6376,10.6376,10.6523,10.6706,10.6706,10.6706,10.6559,10.6523,10.6486,10.6413,10.6376,10.6376,10.6376,10.6376,10.6376,10.6376,10.6376,10.6376,10.6376,10.6376,10.6376,10.6376,10.6376,10.6376,10.6376,10.6376,10.6376,10.6376,10.6376,10.6376,10.6376,10.6376,10.6376,10.6376,10.6376,10.6376,10.6376,10.6376,10.6376,10.6376,10.6376,10.6376,10.6376,10.6376,10.6376,10.6339,10.6229,10.5752,10.5385,10.5054,10.4687,10.3806,10.2889,10.2183,10.1633,10.1523,10.1523,10.1413,10.145,10.1332,10.1168,10.1085,10.0918,10.0834,10.0797,10.0713,10.0797,10.0881,10.1131,10.1413,10.1413,10.1413,10.1494,10.1413,10.1332,10.1168,10.1085,10.0856,10.0537,10.0433,10.0252,9.9893,9.9358,9.9287,9.9107,9.8141,9.7067,9.6096,9.4635,9.2999,9.9264,10.0422,10.1749,10.2594,10.3208,10.4192,10.498,10.547,10.5911,10.6206,10.6376,10.6376,10.6376,10.6376,10.6376,10.6376,10.6376,10.6376,10.6376,10.6376,10.6376,10.6376,10.6523,10.678,10.6449,10.6523,10.6743,10.6853,10.7257,10.7367,10.733,10.7367,10.7367,10.7073,10.6486,10.6486,10.6523,10.6523,10.6413,10.6376,10.6376,10.6376,10.6376,10.6376,10.6376,10.6376,10.6376,10.6376,10.6376,10.6376,10.6376,10.6376,10.6376,10.6376,10.6376,10.6376,10.6376,10.6376,10.6376,10.6376,10.6376,10.6376,10.6376,10.6376,10.6376,10.6376,10.6376,10.6376,10.6376,10.6376,10.6376,10.6376,10.6046,10.5862,10.5605,10.5201,10.4494,10.3457,10.2568,10.1973,10.156,10.1414,10.1111,10.1075,10.0881,10.0749,10.0664,10.0492,10.0369,10.0282,10.0195,10.0282,10.0456,10.0918,10.1168,10.125,10.125,10.1332,10.1332,10.1002,10.0834,10.0664,10.0445,9.9887,9.9532,9.9344,9.892,9.854,9.8193,9.7817,9.7109,9.6204,9.5326,9.4276,9.2631]},{"header":{"parameterUnit":"m.s-1","parameterCategory":1,"la1":31.0,"la2":29.5877,"lo1":-88.7671,"lo2":-86.6584,"dy":0.0162,"dx":0.0185,"nx":115,"ny":88,"refTime":"2024-02-01T06:00:00:Z","depth":0,"parameterNumber":3,"parameterNumberName":"V-component_of_WINDS"},"data":[0.0,0.0,0.0,0.0,0.0,0.0,0.0,0.0,0.0,0.0,0.0,0.0,0.0,0.0,0.0,0.0,0.0,0.0,0.0,0.0,0.0,0.0,0.0,0.0,0.0,0.0,0.0,0.0,0.0,0.0,0.0,0.0,0.0,0.0,0.0,0.0,0.0,0.0,0.0,0.0,0.0,0.0,0.0,0.0,0.0,0.0,0.0,0.0,0.0,0.0,0.0,0.0,0.0,0.0,0.0,0.0,0.0,0.0,0.0,0.0,0.0,0.0,0.0,0.0,0.0,0.0,0.0,0.0,0.0,0.0,0.0,0.0,0.0,0.0,0.0,0.0,0.0,0.0,0.0,0.0,0.0,0.0,0.0,0.0,0.0,0.0,0.0,0.0,0.0,0.0,0.0,0.0,0.0,0.0,0.0,0.0,0.0,0.0,0.0,0.0,0.0,0.0,0.0,0.0,0.0,0.0,0.0,0.0,0.0,0.0,0.0,0.0,0.0,0.0,0.0,0.0,0.0,0.0,0.0,0.0,0.0,0.0,0.0,0.0,0.0,0.0,0.0,0.0,0.0,0.0,0.0,0.0,0.0,0.0,0.0,0.0,0.0,0.0,0.0,0.0,0.0,0.0,0.0,0.0,0.0,0.0,0.0,0.0,0.0,0.0,0.0,0.0,0.0,0.0,0.0,0.0,0.0,0.0,0.0,0.0,0.0,0.0,0.0,0.0,0.0,0.0,0.0,0.0,0.0,0.0,0.0,0.0,0.0,0.0,0.0,0.0,0.0,0.0,0.0,0.0,0.0,0.0,0.0,0.0,0.0,0.0,0.0,0.0,0.0,0.0,0.0,0.0,0.0,0.0,0.0,0.0,0.0,0.0,0.0,0.0,0.0,0.0,0.0,0.0,0.0,0.0,0.0,0.0,0.0,0.0,0.0,0.0,0.0,0.0,0.0,0.0,0.0,0.0,0.0,0.0,0.0,0.0,0.0,0.0,0.0,0.0,0.0,0.0,0.0,0.0,0.0,0.0,0.0,0.0,0.0,0.0,0.0,0.0,0.0,0.0,0.0,0.0,0.0,0.0,0.0,0.0,0.0,0.0,0.0,0.0,0.0,0.0,0.0,0.0,0.0,0.0,0.0,0.0,0.0,0.0,0.0,0.0,0.0,0.0,0.0,0.0,0.0,0.0,0.0,0.0,0.0,0.0,0.0,0.0,0.0,0.0,0.0,0.0,0.0,0.0,0.0,0.0,0.0,0.0,0.0,0.0,0.0,0.0,0.0,0.0,0.0,0.0,0.0,0.0,0.0,0.0,0.0,0.0,0.0,0.0,0.0,0.0,0.0,0.0,0.0,0.0,0.0,0.0,0.0,0.0,0.0,0.0,0.0,0.0,0.0,0.0,0.0,0.0,0.0,0.0,0.0,0.0,0.0,0.0,0.0,0.0,0.0,0.0,0.0,0.0,0.0,0.0,0.0,0.0,0.0,0.0,0.0,0.0,0.0,0.0,0.0,0.0,0.0,0.0,0.0,0.0,0.0,0.0,0.0,0.0,0.0,0.0,0.0,0.0,0.0,0.0,0.0,0.0,0.0,0.0,0.0,0.0,0.0,0.0,0.0,0.0,0.0,0.0,0.0,0.0,0.0,0.0,0.0,0.0,0.0,0.0,0.0,0.0,0.0,0.0,0.0,0.0,0.0,0.0,0.0,0.0,0.0,0.0,0.0,0.0,0.0,0.0,0.0,0.0,0.0,0.0,0.0,0.0,0.0,0.0,0.0,0.0,0.0,0.0,0.0,0.0,0.0,0.0,0.0,0.0,0.0,0.0,0.0,0.0,0.0,0.0,0.0,0.0,0.0,0.0,0.0,0.0,0.0,0.0,0.0,0.0,0.0,0.0,0.0,0.0,0.0,0.0,0.0,0.0,0.0,0.0,0.0,0.0,0.0,0.0,0.0,0.0,0.0,0.0,0.0,0.0,0.0,0.0,0.0,0.0,0.0,0.0,0.0,0.0,0.0,0.0,0.0,0.0,0.0,0.0,0.0,0.0,0.0,0.0,0.0,0.0,0.0,0.0,0.0,0.0,0.0,0.0,0.0,0.0,0.0,0.0,0.0,0.0,0.0,0.0,0.0,0.0,0.0,0.0,0.0,0.0,0.0,0.0,0.0,0.0,0.0,0.0,0.0,0.0,0.0,0.0,0.0,0.0,0.0,0.0,0.0,0.0,0.0,0.0,0.0,0.0,0.0,0.0,0.0,0.0,0.0,0.0,0.0,0.0,0.0,0.0,0.0,0.0,0.0,0.0,0.0,0.0,0.0,0.0,0.0,0.0,0.0,0.0,0.0,0.0,0.0,0.0,0.0,0.0,0.0,0.0,0.0,0.0,0.0,0.0,0.0,0.0,0.0,0.0,0.0,0.0,0.0,0.0,0.0,0.0,0.0,0.0,0.0,0.0,0.0,0.0,0.0,0.0,0.0,0.0,0.0,0.0,0.0,0.0,0.0,0.0,0.0,0.0,0.0,0.0,0.0,0.0,0.0,0.0,0.0,0.0,0.0,0.0,0.0,0.0,0.0,0.0,0.0,0.0,0.0,0.0,0.0,0.0,0.0,0.0,0.0,0.0,0.0,0.0,0.0,0.0,0.0,0.0,0.0,0.0,0.0,0.0,0.0,0.0,0.0,0.0,0.0,0.0,0.0,0.0,0.0,0.0,0.0,0.0,0.0,0.0,0.0,0.0,0.0,0.0,0.0,0.0,0.0,0.0,0.0,0.0,0.0,0.0,0.0,0.0,0.0,0.0,0.0,0.0,0.0,0.0,0.0,0.0,0.0,0.0,0.0,0.0,0.0,0.0,0.0,0.0,0.0,0.0,0.0,0.0,0.0,0.0,0.0,0.0,0.0,0.0,0.0,0.0,0.0,0.0,0.0,0.0,0.0,0.0,0.0,0.0,0.0,0.0,0.0,0.0,0.0,0.0,0.0,0.0,0.0,0.0,0.0,0.0,0.0,0.0,0.0,0.0,0.0,0.0,0.0,0.0,0.0,0.0,0.0,0.0,0.0,0.0,0.0,0.0,0.0,0.0,0.0,0.0,0.0,0.0,0.0,0.0,0.0,0.0,0.0,0.0,0.0,0.0,0.0,0.0,0.0,0.0,0.0,0.0,0.0,0.0,0.0,0.0,0.0,0.0,0.0,0.0,0.0,0.0,0.0,0.0,0.0,0.0,0.0,0.0,0.0,0.0,0.0,0.0,0.0,0.0,0.0,0.0,0.0,0.0,0.0,0.0,0.0,0.0,0.0,0.0,0.0,0.0,0.0,0.0,0.0,0.0,0.0,0.0,0.0,0.0,0.0,0.0,0.0,0.0,0.0,0.0,0.0,0.0,0.0,0.0,0.0,0.0,0.0,0.0,0.0,0.0,0.0,0.0,0.0,0.0,0.0,0.0,0.0,0.0,0.0,0.0,0.0,0.0,0.0,0.0,0.0,0.0,0.0,0.0,0.0,0.0,0.0,0.0,0.0,0.0,0.0,0.0,0.0,0.0,0.0,0.0,0.0,0.0,0.0,0.0,0.0,0.0,0.0,0.0,0.0,0.0,0.0,0.0,0.0,0.0,0.0,0.0,0.0,0.0,0.0,0.0,0.0,0.0,0.0,0.0,0.0,0.0,0.0,0.0,0.0,0.0,0.0,0.0,0.0,0.0,0.0,0.0,0.0,0.0,0.0,0.0,0.0,0.0,0.0,0.0,0.0,0.0,0.0,0.0,0.0,0.0,0.0,0.0,0.0,0.0,0.0,0.0,0.0,0.0,0.0,0.0,0.0,0.0,0.0,0.0,0.0,0.0,0.0,0.0,0.0,0.0,0.0,0.0,0.0,0.0,0.0,0.0,0.0,0.0,0.0,0.0,0.0,0.0,0.0,0.0,0.0,0.0,0.0,0.0,0.0,0.0,0.0,0.0,0.0,0.0,0.0,0.0,0.0,0.0,0.0,0.0,0.0,0.0,0.0,0.0,0.0,0.0,0.0,0.0,0.0,0.0,0.0,0.0,0.0,0.0,0.0,0.0,0.0,0.0,0.0,0.0,0.0,0.0,0.0,0.0,0.0,0.0,0.0,0.0,0.0,0.0,0.0,0.0,0.0,0.0,0.0,0.0,0.0,0.0,0.0,0.0,0.0,0.0,0.0,0.0,0.0,0.0,0.0,0.0,0.0,0.0,0.0,0.0,0.0,0.0,0.0,0.0,0.0,0.0,0.0,0.0,0.0,0.0,0.0,0.0,-2.5518,0.0,0.0,0.0,0.0,0.0,0.0,0.0,0.0,0.0,0.0,0.0,0.0,0.0,0.0,0.0,0.0,0.0,0.0,0.0,0.0,0.0,0.0,0.0,0.0,0.0,0.0,0.0,0.0,0.0,0.0,0.0,0.0,0.0,0.0,0.0,0.0,0.0,0.0,0.0,0.0,0.0,0.0,0.0,0.0,0.0,0.0,0.0,0.0,0.0,0.0,0.0,0.0,0.0,0.0,0.0,0.0,0.0,0.0,0.0,0.0,0.0,0.0,0.0,0.0,0.0,0.0,0.0,0.0,0.0,0.0,0.0,0.0,0.0,0.0,0.0,0.0,0.0,0.0,0.0,0.0,0.0,0.0,0.0,0.0,0.0,0.0,0.0,0.0,0.0,0.0,0.0,0.0,0.0,0.0,0.0,0.0,0.0,0.0,0.0,0.0,0.0,0.0,0.0,0.0,0.0,0.0,0.0,0.0,0.0,0.0,-2.64,-2.6386,-2.6266,-2.5985,-2.5518,0.0,0.0,0.0,0.0,0.0,0.0,0.0,0.0,0.0,0.0,0.0,0.0,0.0,0.0,0.0,0.0,0.0,0.0,0.0,0.0,0.0,0.0,0.0,0.0,0.0,0.0,0.0,0.0,0.0,0.0,0.0,0.0,0.0,0.0,0.0,0.0,0.0,0.0,0.0,0.0,0.0,0.0,0.0,0.0,0.0,0.0,0.0,0.0,0.0,0.0,0.0,0.0,0.0,0.0,0.0,0.0,0.0,0.0,0.0,0.0,0.0,0.0,0.0,0.0,0.0,0.0,0.0,0.0,0.0,0.0,0.0,0.0,0.0,0.0,0.0,0.0,0.0,0.0,0.0,0.0,0.0,0.0,0.0,0.0,0.0,0.0,0.0,0.0,0.0,0.0,0.0,0.0,0.0,0.0,0.0,0.0,0.0,0.0,0.0,0.0,0.0,0.0,0.0,0.0,0.0,0.0,0.0,0.0,0.0,0.0,0.0,0.0,-2.64,-2.6106,-2.5531,0.0,0.0,0.0,0.0,0.0,0.0,0.0,0.0,0.0,0.0,0.0,0.0,0.0,0.0,0.0,0.0,0.0,0.0,0.0,0.0,0.0,0.0,0.0,0.0,0.0,0.0,0.0,0.0,0.0,0.0,0.0,0.0,0.0,0.0,0.0,0.0,0.0,0.0,0.0,0.0,0.0,0.0,0.0,0.0,0.0,0.0,0.0,0.0,0.0,0.0,0.0,0.0,0.0,0.0,0.0,0.0,0.0,0.0,0.0,0.0,0.0,0.0,0.0,0.0,0.0,0.0,0.0,0.0,0.0,0.0,0.0,0.0,0.0,0.0,0.0,0.0,0.0,0.0,0.0,0.0,0.0,0.0,0.0,0.0,0.0,0.0,0.0,0.0,0.0,0.0,0.0,0.0,0.0,0.0,0.0,0.0,0.0,0.0,0.0,0.0,0.0,0.0,0.0,0.0,0.0,0.0,0.0,0.0,0.0,0.0,-2.64,-2.64,-2.6386,0.0,-2.5545,0.0,0.0,0.0,0.0,0.0,0.0,0.0,0.0,0.0,0.0,0.0,0.0,0.0,0.0,0.0,0.0,0.0,0.0,0.0,0.0,0.0,0.0,0.0,0.0,0.0,0.0,0.0,0.0,0.0,0.0,0.0,0.0,0.0,0.0,0.0,0.0,0.0,0.0,0.0,0.0,0.0,0.0,0.0,0.0,0.0,0.0,0.0,0.0,0.0,0.0,0.0,0.0,0.0,0.0,0.0,0.0,0.0,0.0,0.0,0.0,0.0,0.0,0.0,0.0,0.0,0.0,0.0,0.0,0.0,0.0,0.0,0.0,0.0,0.0,0.0,0.0,0.0,0.0,0.0,0.0,0.0,0.0,0.0,0.0,0.0,0.0,0.0,0.0,0.0,0.0,0.0,0.0,0.0,0.0,0.0,0.0,0.0,0.0,0.0,0.0,0.0,0.0,0.0,0.0,0.0,0.0,0.0,0.0,0.0,0.0,-2.64,-2.64,-2.6226,-2.6026,0.0,0.0,0.0,0.0,0.0,0.0,0.0,0.0,0.0,0.0,0.0,0.0,0.0,0.0,0.0,0.0,0.0,0.0,0.0,0.0,0.0,0.0,0.0,0.0,0.0,0.0,0.0,0.0,0.0,0.0,0.0,0.0,0.0,0.0,0.0,0.0,0.0,0.0,0.0,0.0,0.0,0.0,0.0,0.0,0.0,0.0,0.0,0.0,0.0,0.0,0.0,0.0,0.0,0.0,0.0,0.0,0.0,0.0,0.0,0.0,0.0,0.0,0.0,0.0,0.0,0.0,0.0,0.0,0.0,0.0,0.0,0.0,0.0,0.0,0.0,0.0,0.0,0.0,0.0,0.0,0.0,0.0,0.0,0.0,0.0,0.0,0.0,0.0,0.0,0.0,0.0,0.0,0.0,0.0,0.0,0.0,0.0,0.0,0.0,0.0,0.0,0.0,0.0,0.0,0.0,0.0,0.0,0.0,0.0,0.0,-2.64,-2.64,-2.6386,-2.6186,-2.6039,-2.5959,0.0,0.0,0.0,0.0,0.0,0.0,0.0,0.0,0.0,0.0,0.0,0.0,0.0,0.0,0.0,0.0,0.0,0.0,0.0,0.0,0.0,0.0,0.0,0.0,0.0,0.0,0.0,0.0,0.0,0.0,0.0,0.0,0.0,0.0,0.0,0.0,0.0,0.0,0.0,0.0,0.0,0.0,0.0,0.0,0.0,0.0,0.0,0.0,0.0,0.0,0.0,0.0,0.0,0.0,0.0,0.0,0.0,0.0,0.0,0.0,0.0,0.0,0.0,0.0,0.0,0.0,0.0,0.0,0.0,0.0,0.0,0.0,0.0,0.0,0.0,0.0,0.0,0.0,0.0,0.0,0.0,0.0,0.0,0.0,0.0,0.0,0.0,0.0,0.0,0.0,0.0,0.0,0.0,0.0,0.0,0.0,0.0,0.0,0.0,0.0,0.0,0.0,0.0,0.0,0.0,0.0,0.0,0.0,-2.64,-2.64,-2.64,-2.64,-2.6373,-2.6239,0.0,0.0,0.0,0.0,0.0,0.0,0.0,0.0,0.0,0.0,0.0,0.0,0.0,0.0,0.0,0.0,0.0,0.0,0.0,0.0,0.0,0.0,0.0,0.0,0.0,0.0,0.0,0.0,0.0,0.0,0.0,0.0,0.0,0.0,0.0,0.0,0.0,0.0,0.0,0.0,0.0,0.0,0.0,0.0,0.0,0.0,0.0,0.0,0.0,0.0,0.0,0.0,0.0,0.0,0.0,0.0,0.0,0.0,0.0,0.0,0.0,0.0,0.0,0.0,0.0,0.0,0.0,0.0,0.0,0.0,0.0,0.0,0.0,0.0,0.0,0.0,0.0,0.0,0.0,0.0,0.0,0.0,0.0,0.0,0.0,0.0,0.0,0.0,0.0,0.0,0.0,0.0,0.0,0.0,0.0,0.0,0.0,0.0,0.0,0.0,0.0,0.0,0.0,0.0,0.0,0.0,0.0,0.0,0.0,-2.64,-2.64,-2.64,-2.64,-2.64,-2.6333,0.0,0.0,0.0,0.0,0.0,0.0,0.0,0.0,0.0,0.0,0.0,0.0,0.0,0.0,0.0,0.0,0.0,0.0,0.0,0.0,0.0,0.0,0.0,0.0,0.0,0.0,0.0,0.0,0.0,0.0,0.0,0.0,0.0,0.0,0.0,0.0,0.0,0.0,0.0,0.0,0.0,0.0,0.0,0.0,0.0,0.0,0.0,0.0,0.0,0.0,0.0,0.0,0.0,0.0,0.0,0.0,0.0,0.0,0.0,0.0,0.0,0.0,0.0,0.0,0.0,0.0,0.0,0.0,0.0,0.0,0.0,0.0,0.0,0.0,0.0,0.0,0.0,0.0,0.0,0.0,0.0,0.0,0.0,0.0,0.0,0.0,0.0,0.0,0.0,0.0,0.0,0.0,0.0,0.0,0.0,0.0,0.0,0.0,0.0,0.0,0.0,0.0,0.0,0.0,0.0,0.0,0.0,0.0,0.0,-2.64,0.0,-2.64,-2.64,-2.64,-2.64,0.0,0.0,0.0,0.0,0.0,0.0,0.0,0.0,0.0,0.0,0.0,0.0,0.0,0.0,0.0,0.0,0.0,0.0,0.0,0.0,0.0,0.0,0.0,0.0,0.0,0.0,0.0,0.0,0.0,0.0,0.0,0.0,0.0,0.0,0.0,0.0,0.0,0.0,0.0,0.0,0.0,0.0,0.0,0.0,0.0,0.0,0.0,0.0,0.0,0.0,0.0,0.0,0.0,0.0,0.0,0.0,0.0,0.0,0.0,0.0,0.0,0.0,0.0,0.0,0.0,0.0,0.0,0.0,0.0,0.0,0.0,0.0,0.0,0.0,0.0,0.0,0.0,0.0,0.0,0.0,0.0,0.0,0.0,0.0,0.0,0.0,0.0,0.0,0.0,0.0,0.0,0.0,0.0,0.0,0.0,0.0,0.0,0.0,0.0,0.0,0.0,0.0,0.0,0.0,0.0,0.0,0.0,0.0,-2.64,-2.64,-2.64,-2.6413,-2.64,-2.64,-2.64,0.0,0.0,0.0,0.0,0.0,0.0,0.0,0.0,0.0,0.0,0.0,0.0,0.0,0.0,0.0,0.0,0.0,0.0,0.0,0.0,0.0,0.0,0.0,0.0,0.0,0.0,0.0,0.0,0.0,0.0,0.0,0.0,0.0,0.0,0.0,0.0,0.0,0.0,0.0,0.0,0.0,0.0,0.0,0.0,0.0,0.0,0.0,0.0,0.0,0.0,0.0,0.0,0.0,0.0,0.0,0.0,0.0,0.0,0.0,0.0,0.0,0.0,0.0,0.0,0.0,0.0,0.0,0.0,0.0,0.0,0.0,0.0,0.0,0.0,0.0,0.0,0.0,0.0,0.0,0.0,0.0,0.0,0.0,0.0,0.0,0.0,0.0,0.0,0.0,0.0,0.0,0.0,0.0,0.0,0.0,0.0,0.0,0.0,0.0,0.0,0.0,0.0,0.0,0.0,0.0,0.0,0.0,0.0,0.0,-2.668,-2.6694,-2.6694,-2.6694,-2.6694,-2.6587,0.0,0.0,0.0,0.0,0.0,0.0,0.0,0.0,0.0,0.0,0.0,0.0,0.0,0.0,0.0,0.0,0.0,0.0,0.0,0.0,0.0,0.0,0.0,0.0,0.0,0.0,0.0,0.0,0.0,0.0,0.0,0.0,0.0,0.0,0.0,0.0,0.0,0.0,0.0,0.0,0.0,0.0,0.0,0.0,0.0,0.0,0.0,0.0,0.0,0.0,0.0,0.0,0.0,0.0,0.0,0.0,0.0,0.0,0.0,0.0,0.0,0.0,0.0,0.0,0.0,0.0,0.0,0.0,0.0,0.0,0.0,0.0,0.0,0.0,0.0,0.0,0.0,0.0,0.0,0.0,0.0,0.0,0.0,0.0,0.0,0.0,0.0,0.0,0.0,0.0,0.0,0.0,0.0,0.0,0.0,0.0,0.0,0.0,0.0,0.0,0.0,0.0,0.0,0.0,0.0,0.0,0.0,0.0,0.0,-2.7134,-2.7041,-2.6987,-2.6987,-2.6881,-2.6734,-2.656,0.0,0.0,0.0,0.0,0.0,0.0,0.0,0.0,0.0,0.0,0.0,0.0,0.0,0.0,0.0,0.0,0.0,0.0,0.0,0.0,0.0,0.0,0.0,0.0,0.0,0.0,0.0,0.0,0.0,0.0,0.0,0.0,0.0,0.0,0.0,0.0,0.0,0.0,0.0,0.0,0.0,0.0,0.0,0.0,0.0,0.0,0.0,0.0,0.0,0.0,0.0,0.0,0.0,0.0,0.0,0.0,0.0,0.0,0.0,0.0,0.0,0.0,0.0,0.0,0.0,0.0,0.0,0.0,0.0,0.0,0.0,0.0,0.0,0.0,0.0,0.0,0.0,0.0,0.0,0.0,0.0,0.0,0.0,0.0,0.0,0.0,0.0,0.0,0.0,0.0,0.0,0.0,0.0,0.0,0.0,0.0,0.0,0.0,0.0,0.0,0.0,0.0,0.0,0.0,0.0,0.0,0.0,0.0,-2.7749,-2.7495,-2.7348,-2.7281,-2.7028,-2.6854,0.0,0.0,0.0,0.0,0.0,0.0,0.0,0.0,0.0,0.0,0.0,0.0,0.0,0.0,0.0,0.0,0.0,0.0,0.0,0.0,0.0,0.0,0.0,0.0,0.0,0.0,0.0,0.0,0.0,0.0,0.0,0.0,0.0,0.0,0.0,0.0,0.0,0.0,0.0,0.0,0.0,0.0,0.0,0.0,0.0,0.0,0.0,0.0,0.0,0.0,0.0,0.0,0.0,0.0,0.0,0.0,0.0,0.0,0.0,0.0,0.0,0.0,0.0,0.0,0.0,0.0,0.0,0.0,0.0,0.0,0.0,0.0,0.0,0.0,0.0,0.0,0.0,0.0,0.0,0.0,0.0,0.0,0.0,0.0,0.0,0.0,0.0,0.0,0.0,0.0,0.0,0.0,0.0,0.0,0.0,0.0,0.0,0.0,0.0,0.0,0.0,0.0,0.0,0.0,0.0,0.0,0.0,0.0,0.0,-2.8364,-2.8511,-2.8257,-2.7615,-2.7509,-2.7268,0.0,0.0,0.0,0.0,0.0,0.0,0.0,0.0,0.0,0.0,0.0,0.0,0.0,0.0,0.0,0.0,0.0,0.0,0.0,0.0,0.0,0.0,0.0,0.0,0.0,0.0,0.0,0.0,0.0,0.0,0.0,0.0,0.0,0.0,0.0,0.0,0.0,0.0,0.0,0.0,0.0,0.0,0.0,0.0,0.0,0.0,0.0,0.0,0.0,0.0,0.0,0.0,0.0,0.0,0.0,0.0,0.0,0.0,0.0,0.0,0.0,0.0,0.0,0.0,0.0,0.0,0.0,0.0,0.0,0.0,0.0,0.0,0.0,0.0,0.0,0.0,0.0,0.0,0.0,0.0,0.0,0.0,0.0,0.0,0.0,0.0,0.0,0.0,0.0,0.0,0.0,0.0,0.0,0.0,0.0,0.0,0.0,0.0,0.0,0.0,0.0,0.0,0.0,0.0,0.0,0.0,0.0,0.0,-2.8484,-2.8791,-2.8951,-2.8791,-2.8283,-2.8016,-2.7615,0.0,0.0,0.0,0.0,0.0,0.0,0.0,0.0,0.0,0.0,0.0,0.0,0.0,0.0,0.0,0.0,0.0,0.0,0.0,0.0,0.0,0.0,0.0,0.0,0.0,0.0,0.0,0.0,0.0,0.0,0.0,0.0,0.0,0.0,0.0,0.0,0.0,0.0,0.0,0.0,0.0,0.0,0.0,0.0,0.0,0.0,0.0,0.0,0.0,0.0,0.0,0.0,0.0,0.0,0.0,0.0,0.0,0.0,0.0,0.0,0.0,0.0,0.0,0.0,0.0,0.0,0.0,0.0,0.0,0.0,0.0,0.0,0.0,0.0,0.0,0.0,0.0,0.0,0.0,0.0,0.0,0.0,0.0,0.0,0.0,0.0,0.0,0.0,0.0,0.0,0.0,0.0,0.0,0.0,0.0,0.0,0.0,0.0,0.0,0.0,0.0,0.0,0.0,0.0,0.0,0.0,0.0,0.0,-2.8818,-2.9072,-2.9112,-2.9112,-2.9072,-2.8511,-2.7936,0.0,0.0,0.0,0.0,0.0,0.0,0.0,0.0,0.0,0.0,0.0,0.0,0.0,0.0,0.0,0.0,0.0,0.0,0.0,0.0,0.0,0.0,0.0,0.0,0.0,0.0,0.0,0.0,0.0,0.0,0.0,0.0,0.0,0.0,0.0,0.0,0.0,0.0,0.0,0.0,0.0,0.0,0.0,0.0,0.0,0.0,0.0,0.0,0.0,0.0,0.0,0.0,0.0,0.0,0.0,0.0,0.0,0.0,0.0,0.0,0.0,0.0,0.0,0.0,0.0,0.0,0.0,0.0,0.0,0.0,0.0,0.0,0.0,0.0,0.0,0.0,0.0,0.0,0.0,0.0,0.0,0.0,0.0,0.0,0.0,0.0,0.0,0.0,0.0,0.0,0.0,0.0,0.0,0.0,0.0,0.0,0.0,0.0,0.0,0.0,0.0,0.0,0.0,0.0,0.0,0.0,0.0,0.0,-2.9325,-2.9392,-2.9619,-2.9619,-2.9392,-2.8818,-2.8337,0.0,0.0,0.0,0.0,0.0,0.0,0.0,0.0,0.0,0.0,0.0,0.0,0.0,0.0,0.0,0.0,0.0,0.0,0.0,0.0,0.0,0.0,0.0,0.0,0.0,0.0,0.0,0.0,0.0,0.0,0.0,0.0,0.0,0.0,0.0,0.0,0.0,0.0,0.0,0.0,0.0,0.0,0.0,0.0,0.0,0.0,0.0,0.0,-2.64,0.0,0.0,0.0,0.0,0.0,0.0,0.0,0.0,0.0,0.0,0.0,0.0,0.0,0.0,0.0,0.0,0.0,0.0,0.0,0.0,0.0,0.0,0.0,0.0,0.0,0.0,0.0,0.0,0.0,0.0,0.0,0.0,0.0,0.0,0.0,0.0,0.0,0.0,0.0,0.0,0.0,0.0,0.0,0.0,0.0,0.0,0.0,0.0,0.0,0.0,0.0,0.0,0.0,0.0,0.0,0.0,0.0,0.0,0.0,-2.9686,-2.97,-2.998,-2.998,-2.9686,-2.9259,-2.8738,0.0,0.0,0.0,0.0,0.0,0.0,0.0,0.0,0.0,0.0,0.0,0.0,0.0,0.0,0.0,0.0,0.0,0.0,0.0,0.0,0.0,0.0,0.0,0.0,0.0,0.0,0.0,0.0,0.0,0.0,0.0,0.0,0.0,0.0,0.0,0.0,0.0,0.0,0.0,0.0,0.0,0.0,0.0,0.0,0.0,0.0,0.0,0.0,0.0,0.0,0.0,0.0,0.0,0.0,0.0,0.0,0.0,0.0,0.0,0.0,0.0,0.0,0.0,0.0,0.0,0.0,0.0,0.0,0.0,0.0,0.0,0.0,0.0,0.0,0.0,0.0,0.0,0.0,0.0,0.0,0.0,0.0,0.0,0.0,0.0,0.0,0.0,0.0,0.0,0.0,0.0,0.0,0.0,0.0,0.0,0.0,0.0,0.0,0.0,0.0,0.0,0.0,0.0,0.0,0.0,0.0,0.0,-2.9686,-2.998,-2.9993,-3.0274,-3.0287,-2.9993,-2.9753,-2.9192,-2.8323,0.0,0.0,0.0,0.0,0.0,0.0,0.0,0.0,0.0,0.0,0.0,0.0,0.0,0.0,0.0,0.0,0.0,0.0,0.0,0.0,0.0,0.0,0.0,0.0,0.0,0.0,0.0,0.0,0.0,0.0,0.0,0.0,0.0,0.0,0.0,0.0,0.0,0.0,-2.6453,-2.6667,0.0,0.0,0.0,0.0,0.0,0.0,0.0,0.0,-2.7108,0.0,0.0,0.0,0.0,0.0,0.0,0.0,0.0,0.0,0.0,0.0,0.0,0.0,0.0,0.0,0.0,0.0,0.0,0.0,0.0,0.0,0.0,0.0,0.0,0.0,0.0,0.0,0.0,0.0,0.0,0.0,0.0,0.0,0.0,0.0,0.0,0.0,0.0,0.0,0.0,0.0,0.0,0.0,0.0,0.0,0.0,0.0,0.0,0.0,0.0,0.0,0.0,0.0,0.0,0.0,0.0,-2.9406,-2.998,-3.0287,-3.0287,-3.0568,-3.0581,-3.0301,-3.0234,-2.9806,-2.8938,0.0,0.0,0.0,0.0,0.0,0.0,0.0,0.0,0.0,0.0,0.0,0.0,0.0,0.0,0.0,0.0,0.0,0.0,0.0,0.0,0.0,0.0,0.0,0.0,0.0,0.0,0.0,0.0,0.0,0.0,0.0,0.0,0.0,0.0,0.0,0.0,0.0,0.0,0.0,-2.6787,-2.6894,0.0,0.0,0.0,0.0,0.0,0.0,0.0,0.0,-2.7148,0.0,0.0,0.0,0.0,0.0,0.0,0.0,0.0,0.0,0.0,0.0,0.0,0.0,0.0,0.0,0.0,0.0,0.0,0.0,0.0,0.0,0.0,0.0,0.0,0.0,0.0,0.0,0.0,0.0,0.0,0.0,0.0,0.0,0.0,0.0,0.0,0.0,0.0,0.0,0.0,0.0,0.0,0.0,0.0,0.0,0.0,0.0,0.0,0.0,0.0,0.0,0.0,0.0,0.0,0.0,-2.974,-3.0434,-3.0742,-3.0595,-3.0862,-3.0875,-3.0595,-3.0434,-3.002,0.0,0.0,0.0,0.0,0.0,0.0,0.0,0.0,0.0,0.0,0.0,0.0,0.0,0.0,0.0,0.0,0.0,0.0,0.0,0.0,0.0,0.0,0.0,0.0,0.0,0.0,0.0,0.0,0.0,0.0,0.0,0.0,0.0,0.0,0.0,0.0,0.0,0.0,0.0,0.0,-2.7081,-2.7268,-2.7268,0.0,0.0,0.0,0.0,0.0,0.0,-2.7629,-2.7615,0.0,0.0,0.0,0.0,0.0,0.0,0.0,0.0,0.0,0.0,0.0,0.0,0.0,0.0,0.0,0.0,0.0,0.0,0.0,0.0,0.0,0.0,0.0,0.0,0.0,0.0,0.0,0.0,0.0,0.0,0.0,0.0,0.0,0.0,0.0,0.0,0.0,0.0,0.0,0.0,0.0,0.0,0.0,0.0,0.0,0.0,0.0,0.0,0.0,0.0,0.0,0.0,0.0,0.0,0.0,-3.0034,-3.0808,-3.1116,-3.0902,-3.1169,-3.1183,-3.0889,-3.0608,-3.0167,0.0,0.0,0.0,0.0,0.0,0.0,0.0,0.0,0.0,0.0,0.0,0.0,0.0,0.0,0.0,0.0,0.0,0.0,0.0,0.0,0.0,0.0,0.0,0.0,0.0,0.0,0.0,0.0,0.0,0.0,0.0,0.0,0.0,0.0,0.0,0.0,0.0,0.0,0.0,0.0,0.0,-2.7722,-2.7562,-2.7789,0.0,0.0,0.0,0.0,-2.7963,-2.8177,0.0,0.0,0.0,0.0,0.0,0.0,0.0,0.0,0.0,0.0,0.0,0.0,0.0,0.0,0.0,0.0,0.0,0.0,0.0,0.0,0.0,0.0,0.0,0.0,0.0,0.0,0.0,0.0,0.0,0.0,0.0,0.0,0.0,0.0,0.0,0.0,0.0,0.0,0.0,0.0,0.0,0.0,0.0,0.0,0.0,0.0,0.0,0.0,0.0,0.0,0.0,0.0,0.0,0.0,0.0,0.0,-3.0314,-3.0915,-3.1209,-3.1196,-3.1463,-3.1476,-3.1183,-3.0902,-3.0461,0.0,0.0,0.0,0.0,0.0,0.0,0.0,0.0,0.0,0.0,0.0,0.0,0.0,0.0,0.0,0.0,0.0,0.0,0.0,0.0,0.0,0.0,0.0,0.0,0.0,0.0,0.0,0.0,0.0,0.0,0.0,0.0,0.0,0.0,0.0,0.0,0.0,0.0,0.0,0.0,0.0,-2.8177,-2.8417,-2.8698,-2.8871,0.0,0.0,-2.8885,-2.8885,-2.8911,0.0,0.0,0.0,0.0,0.0,0.0,0.0,0.0,0.0,0.0,0.0,0.0,0.0,0.0,0.0,0.0,0.0,0.0,0.0,0.0,0.0,0.0,0.0,0.0,0.0,0.0,0.0,0.0,0.0,0.0,0.0,0.0,0.0,0.0,0.0,0.0,0.0,0.0,0.0,0.0,0.0,0.0,0.0,0.0,0.0,0.0,0.0,0.0,0.0,0.0,0.0,0.0,0.0,0.0,0.0,-3.0648,-3.1102,-3.1503,-3.1797,-3.1971,-3.2104,-3.2024,-3.173,-3.1436,-3.0942,0.0,0.0,0.0,0.0,0.0,0.0,0.0,0.0,0.0,0.0,0.0,0.0,0.0,0.0,0.0,0.0,0.0,0.0,0.0,0.0,0.0,0.0,0.0,0.0,0.0,0.0,0.0,0.0,0.0,0.0,0.0,0.0,0.0,0.0,0.0,0.0,0.0,0.0,0.0,0.0,0.0,0.0,-2.8804,-2.8965,0.0,0.0,0.0,-2.9045,-2.9045,0.0,0.0,0.0,0.0,0.0,0.0,0.0,0.0,0.0,0.0,0.0,0.0,0.0,0.0,0.0,0.0,0.0,0.0,0.0,0.0,0.0,0.0,0.0,0.0,0.0,0.0,0.0,0.0,0.0,0.0,0.0,0.0,0.0,0.0,0.0,0.0,0.0,0.0,0.0,0.0,0.0,0.0,0.0,0.0,0.0,0.0,0.0,0.0,0.0,0.0,0.0,0.0,0.0,0.0,0.0,0.0,0.0,-3.1664,-3.1957,-3.2251,-3.2532,-3.2545,-3.2438,-3.2211,-3.1864,0.0,0.0,0.0,0.0,0.0,0.0,0.0,0.0,0.0,0.0,0.0,0.0,0.0,0.0,0.0,0.0,0.0,0.0,0.0,0.0,0.0,0.0,0.0,0.0,0.0,0.0,0.0,-2.6613,0.0,0.0,0.0,0.0,0.0,0.0,0.0,0.0,0.0,0.0,0.0,0.0,0.0,0.0,-2.8818,-2.9112,-2.9205,-2.9259,0.0,0.0,-2.9259,-2.9259,-2.9259,-2.9165,0.0,0.0,0.0,0.0,0.0,0.0,0.0,0.0,0.0,0.0,0.0,0.0,0.0,0.0,0.0,0.0,0.0,0.0,0.0,0.0,0.0,0.0,0.0,0.0,0.0,0.0,0.0,0.0,0.0,0.0,0.0,0.0,0.0,0.0,0.0,0.0,0.0,0.0,0.0,0.0,0.0,0.0,0.0,0.0,0.0,0.0,0.0,0.0,0.0,0.0,0.0,0.0,0.0,0.0,0.0,-3.165,-3.1957,-3.2251,-3.2532,-3.2545,-3.2545,-3.2505,-3.1971,-3.1637,0.0,0.0,0.0,0.0,0.0,0.0,0.0,0.0,0.0,0.0,0.0,0.0,0.0,0.0,0.0,0.0,0.0,0.0,0.0,0.0,0.0,0.0,0.0,0.0,0.0,0.0,0.0,0.0,0.0,0.0,0.0,0.0,0.0,0.0,0.0,0.0,0.0,0.0,0.0,0.0,0.0,-2.9125,-2.9406,-2.9686,-2.9847,0.0,-2.986,-2.986,-2.9847,-2.986,-2.9753,-2.9472,0.0,0.0,0.0,0.0,0.0,0.0,0.0,0.0,0.0,0.0,0.0,0.0,0.0,0.0,0.0,0.0,0.0,0.0,0.0,0.0,0.0,0.0,0.0,0.0,0.0,0.0,0.0,0.0,0.0,0.0,0.0,0.0,0.0,0.0,0.0,0.0,0.0,0.0,0.0,0.0,0.0,0.0,0.0,0.0,0.0,0.0,0.0,0.0,0.0,0.0,0.0,0.0,0.0,-3.1263,-3.2198,-3.2318,-3.2599,-3.3053,-3.308,-3.3,-3.2812,-3.2425,-3.2038,0.0,0.0,0.0,0.0,0.0,0.0,0.0,0.0,0.0,0.0,0.0,0.0,0.0,0.0,0.0,0.0,0.0,0.0,0.0,0.0,0.0,0.0,0.0,0.0,0.0,0.0,0.0,0.0,-2.7642,-2.7602,-2.7789,0.0,0.0,0.0,0.0,0.0,0.0,0.0,0.0,0.0,0.0,-2.9419,-2.9713,-2.9847,0.0,0.0,-2.9913,-2.9913,-2.9913,-2.9913,-2.982,-2.9526,-2.9392,0.0,0.0,0.0,0.0,0.0,0.0,0.0,0.0,0.0,0.0,0.0,0.0,0.0,0.0,0.0,0.0,0.0,0.0,0.0,0.0,0.0,0.0,0.0,0.0,0.0,0.0,0.0,0.0,0.0,0.0,0.0,0.0,0.0,0.0,0.0,0.0,0.0,0.0,0.0,0.0,0.0,0.0,0.0,0.0,0.0,0.0,0.0,0.0,0.0,0.0,0.0,0.0,-3.137,-3.2532,-3.2545,-3.2826,-3.34,-3.3414,-3.3307,-3.3106,-3.2826,-3.2478,0.0,0.0,0.0,0.0,0.0,0.0,0.0,0.0,0.0,0.0,0.0,0.0,0.0,0.0,0.0,0.0,0.0,0.0,0.0,0.0,0.0,0.0,0.0,0.0,0.0,0.0,0.0,0.0,-2.8096,-2.8016,-2.8136,0.0,0.0,0.0,0.0,0.0,0.0,0.0,0.0,0.0,0.0,-2.9593,-2.9873,-2.9913,-2.9913,-2.9913,-2.9913,-2.9913,-2.9913,-2.9913,-2.9873,-2.9766,0.0,0.0,0.0,0.0,0.0,0.0,0.0,0.0,0.0,0.0,0.0,0.0,0.0,0.0,0.0,0.0,0.0,0.0,0.0,0.0,0.0,0.0,0.0,0.0,0.0,0.0,0.0,-3.0354,0.0,0.0,-2.994,0.0,0.0,0.0,0.0,0.0,0.0,0.0,0.0,0.0,0.0,0.0,0.0,0.0,0.0,0.0,0.0,0.0,0.0,0.0,0.0,0.0,0.0,-3.1383,-3.2519,-3.2545,-3.2826,-3.3387,-3.3414,-3.34,-3.3387,-3.312,-3.2959,-3.2919,0.0,0.0,0.0,0.0,0.0,0.0,0.0,0.0,0.0,0.0,0.0,0.0,0.0,0.0,0.0,0.0,0.0,0.0,0.0,0.0,0.0,0.0,0.0,0.0,0.0,0.0,-2.8551,-2.8591,-2.8457,0.0,0.0,0.0,0.0,0.0,0.0,0.0,0.0,0.0,-2.9432,-2.9486,-2.9593,-2.9873,-2.9913,-2.9927,-2.9927,-2.9927,-2.9927,-2.9927,-2.9927,-3.002,0.0,0.0,0.0,0.0,0.0,0.0,0.0,0.0,0.0,0.0,0.0,0.0,0.0,0.0,0.0,0.0,0.0,0.0,0.0,0.0,0.0,0.0,0.0,0.0,0.0,0.0,0.0,-3.0648,-3.0648,0.0,0.0,0.0,0.0,0.0,0.0,0.0,0.0,0.0,0.0,0.0,-3.1957,-3.1957,0.0,0.0,0.0,0.0,0.0,0.0,0.0,0.0,0.0,0.0,0.0,0.0,-3.1557,-3.2492,-3.2545,-3.2826,-3.3387,-3.3414,-3.3414,-3.3414,-3.3133,-3.2893,-3.2692,0.0,0.0,0.0,0.0,0.0,0.0,0.0,0.0,0.0,0.0,0.0,0.0,0.0,0.0,0.0,0.0,0.0,0.0,0.0,0.0,0.0,0.0,0.0,0.0,0.0,-2.8698,0.0,0.0,0.0,0.0,0.0,0.0,0.0,0.0,0.0,0.0,0.0,-2.9366,-2.9472,-2.9646,-2.9887,-3.0167,-3.0207,-3.0287,0.0,0.0,0.0,0.0,0.0,0.0,0.0,0.0,0.0,0.0,0.0,0.0,0.0,0.0,-2.9554,-2.9582,-2.9259,-2.9045,-2.9045,0.0,0.0,0.0,0.0,0.0,0.0,0.0,0.0,0.0,0.0,0.0,0.0,0.0,0.0,-3.1102,0.0,-3.1102,0.0,0.0,0.0,0.0,0.0,0.0,0.0,0.0,-3.2118,-3.2358,-3.2545,-3.2545,-3.2345,0.0,-3.1971,-3.1784,0.0,0.0,0.0,0.0,0.0,0.0,0.0,0.0,-3.177,-3.2519,-3.2652,-3.2933,-3.3387,-3.3414,-3.3414,-3.3414,-3.3426,-3.3381,-3.3293,-3.2719,-3.2367,0.0,0.0,0.0,0.0,0.0,0.0,0.0,0.0,0.0,0.0,0.0,0.0,0.0,0.0,0.0,0.0,0.0,0.0,0.0,0.0,0.0,0.0,0.0,-2.9112,0.0,0.0,0.0,0.0,0.0,0.0,0.0,0.0,0.0,-2.9392,-2.9686,-2.994,-2.994,-3.01,-3.0301,-3.0488,0.0,0.0,0.0,0.0,0.0,0.0,0.0,-3.0768,-3.0675,-3.0822,-3.0942,-3.0942,-3.0862,-3.0782,-3.0373,0.0,0.0,-3.0191,-3.0055,-2.9851,-2.9646,-2.9646,-2.9713,-2.99,-2.994,-2.98,0.0,0.0,0.0,0.0,0.0,0.0,0.0,0.0,-3.1704,-3.169,0.0,-3.1704,0.0,0.0,0.0,0.0,-3.1289,-3.1583,0.0,0.0,-3.2425,-3.2559,-3.2585,-3.2585,-3.2572,-3.2559,-3.2545,-3.2545,-3.2465,-3.1396,0.0,0.0,0.0,0.0,0.0,0.0,-3.1971,-3.2559,-3.2839,-3.312,-3.34,-3.3414,-3.3414,-3.3414,-3.4014,-3.4262,-3.4591,-3.4142,-3.3546,-3.3261,-3.2611,0.0,0.0,0.0,0.0,0.0,0.0,0.0,0.0,0.0,0.0,0.0,0.0,0.0,0.0,0.0,0.0,0.0,0.0,0.0,0.0,-2.969,0.0,0.0,0.0,0.0,0.0,0.0,0.0,0.0,0.0,-2.9967,-2.9967,-3.0434,-3.0795,-3.0782,0.0,0.0,0.0,0.0,-3.0808,-3.0835,-3.0822,-3.0822,-3.0808,-3.0822,-3.0915,-3.1169,0.0,0.0,-3.1236,-3.1009,-3.0849,-3.1033,-3.0862,-3.0822,-3.0808,-3.0755,-3.0742,-3.0742,-3.0715,-3.0782,-3.0795,-3.0742,-3.0768,-3.2185,0.0,0.0,0.0,0.0,-3.1637,-3.1944,-3.2291,-3.2291,-3.2291,-3.2291,-3.2291,0.0,0.0,0.0,0.0,0.0,0.0,-3.2452,-3.2719,-3.2812,-3.2959,-3.316,-3.316,-3.3053,-3.2866,-3.2853,-3.2746,-3.2532,-3.2211,-3.1944,-3.173,0.0,0.0,0.0,0.0,-3.2265,-3.2826,-3.2933,-3.312,-3.34,-3.3814,-3.42,-3.4612,-3.4612,-3.477,-3.4871,-3.4478,-3.4241,-3.4157,-3.3336,0.0,0.0,0.0,0.0,0.0,0.0,0.0,0.0,0.0,0.0,0.0,0.0,0.0,0.0,0.0,0.0,0.0,0.0,0.0,-3.1371,-3.06,-2.994,0.0,0.0,0.0,0.0,0.0,0.0,0.0,0.0,0.0,-3.0849,-3.0808,-3.0795,0.0,0.0,-3.0862,-3.1076,-3.1102,-3.1169,-3.1396,-3.1423,0.0,-3.1129,-3.1276,-3.137,-3.1249,-3.1396,-3.1543,-3.1543,-3.1476,-3.1423,-3.1611,-3.1423,-3.1423,-3.1396,-3.1488,-3.1245,-3.0993,-3.0795,-3.0862,-3.1049,-3.1102,-3.1169,-3.2666,-3.2185,-3.2064,-3.2024,-3.2038,-3.2198,-3.2438,-3.2719,-3.2719,-3.2719,-3.2719,-3.2719,-3.2652,-3.2545,-3.2545,0.0,0.0,0.0,-3.2812,-3.2986,-3.3093,-3.3253,-3.34,-3.3414,-3.332,-3.316,-3.3146,-3.3066,-3.2893,-3.2893,-3.2746,-3.2452,0.0,0.0,-3.2278,-3.2579,-3.3016,-3.3368,-3.3885,-3.4036,-3.4,-3.4612,-3.5196,-3.6187,-3.6004,-3.6202,-3.6765,-3.621,-3.5854,-3.6114,-3.5174,-3.4696,0.0,0.0,0.0,0.0,0.0,0.0,0.0,0.0,0.0,0.0,0.0,-3.2654,-3.419,0.0,0.0,0.0,-3.4296,-3.3382,-3.2503,-3.1427,0.0,0.0,0.0,0.0,0.0,0.0,0.0,-3.0261,-3.0822,-3.1223,-3.1223,-3.1169,-3.1142,-3.1142,-3.1142,-3.1209,-3.1383,0.0,-3.1463,-3.1637,-3.1677,-3.161,-3.1436,-3.1543,-3.161,-3.1436,-3.1543,-3.1664,-3.1677,-3.1677,-3.1677,-3.1677,-3.1677,-3.1677,-3.1677,-3.1786,-3.157,-3.1342,-3.1142,-3.1209,-3.137,-3.1396,-3.1463,-3.3013,-3.3,-3.2719,-3.2599,-3.2585,-3.2585,-3.2746,-3.3,-3.3013,-3.3013,-3.3013,-3.3013,-3.2866,-3.2625,-3.2612,0.0,-3.2625,-3.2893,-3.3013,-3.3026,-3.3293,-3.3414,-3.3414,-3.3414,-3.3414,-3.3414,-3.3414,-3.3414,-3.34,-3.34,-3.328,-3.3013,-3.2746,-3.2599,-3.2599,-3.3429,-3.3776,-3.3803,-3.5069,-3.5607,-3.521,-3.5805,-3.6795,-3.8353,-3.778,-3.8369,-3.9704,-3.8369,-3.7824,-3.8473,-3.746,-3.6828,-3.628,0.0,0.0,0.0,0.0,0.0,0.0,0.0,0.0,0.0,0.0,0.0,0.0,0.0,0.0,0.0,-3.6067,0.0,-3.3196,-3.2097,0.0,0.0,0.0,-3.0795,-3.0795,-3.0808,-3.0822,-3.0822,0.0,0.0,-3.1263,-3.1503,-3.1677,-3.1677,-3.1677,-3.1677,-3.1677,-3.1664,-3.1677,-3.1677,-3.169,-3.1704,-3.1717,-3.1757,-3.1797,-3.177,-3.1717,-3.1717,-3.1717,-3.1677,-3.1677,-3.1677,-3.1677,-3.1677,-3.1677,-3.165,-3.1677,-3.1637,-3.165,-3.1664,-3.165,-3.165,-3.165,-3.3307,-3.3293,-3.3227,-3.308,-3.2879,-3.2879,-3.304,-3.3307,-3.3307,-3.3307,-3.3307,-3.3307,-3.3267,-3.3213,-3.32,-3.32,-3.3213,-3.328,-3.3307,-3.3307,-3.3374,-3.3414,-3.3414,-3.3414,-3.3414,-3.3414,-3.3414,-3.3414,-3.3414,-3.3414,-3.3374,-3.3307,-3.324,-3.3093,-3.2893,-3.3538,-3.3872,-3.4104,-3.5167,-3.64,-3.7371,-3.7583,-3.8353,-3.9931,-3.9526,-3.972,-4.0885,-3.972,-3.9173,-3.902,-3.8177,-3.7644,-3.7148,-3.6437,0.0,0.0,0.0,0.0,0.0,0.0,0.0,0.0,0.0,-3.6443,-3.8353,0.0,-3.9526,0.0,-3.6829,-3.4983,-3.4066,-3.2788,0.0,0.0,-3.0795,-3.0795,-3.0795,-3.0996,-3.1116,-3.1129,-3.1383,-3.157,-3.157,-3.1623,-3.1677,-3.1677,-3.1677,-3.1677,-3.1677,-3.1677,-3.1677,-3.1704,-3.1864,-3.1998,-3.2011,-3.2198,-3.2318,-3.2332,-3.2158,-3.1998,-3.1998,-3.181,-3.1677,-3.1677,-3.1677,-3.1677,-3.169,-3.1677,-3.1677,-3.1677,-3.1677,-3.1677,-3.1677,-3.1677,-3.1677,-3.3414,-3.3414,-3.3414,-3.332,-3.3173,-3.3173,-3.3253,-3.3414,-3.3414,-3.3414,-3.3414,-3.3414,-3.3414,-3.3414,-3.3414,-3.3414,-3.3414,-3.3414,-3.3414,-3.3414,-3.3414,-3.3414,-3.3414,-3.3414,-3.3414,-3.3414,-3.3414,-3.3414,-3.3414,-3.3414,-3.3414,-3.3414,-3.3414,-3.3334,-3.3173,-3.3967,-3.4446,-3.5011,-3.6385,-3.7976,-3.9136,-3.9526,-4.0109,-4.1481,-4.1271,-4.1574,-4.2379,-4.1215,-4.0476,-4.0306,-3.9163,-3.8545,-3.8382,-3.7814,-3.7186,0.0,0.0,0.0,0.0,0.0,0.0,0.0,0.0,0.0,0.0,0.0,-4.0307,-3.943,-3.7424,-3.5514,-3.4216,-3.3098,-3.2107,-3.1383,-3.1183,-3.1236,-3.1356,-3.1517,-3.1664,-3.1797,-3.1957,-3.2064,-3.2064,-3.2064,-3.2064,-3.2064,-3.2064,-3.2011,-3.1891,-3.1864,-3.1904,-3.2051,-3.2198,-3.2305,-3.2291,-3.2438,-3.2545,-3.2532,-3.2412,-3.2291,-3.2305,-3.2171,-3.2064,-3.2064,-3.1845,-3.1832,-3.2051,-3.2064,-3.2064,-3.2064,-3.2064,-3.1971,-3.173,-3.1677,-3.1677,-3.3414,-3.3414,-3.3414,-3.3414,-3.3414,-3.3414,-3.3414,-3.3414,-3.3414,-3.3414,-3.3414,-3.3414,-3.3414,-3.3414,-3.3414,-3.3414,-3.3414,-3.3414,-3.3414,-3.3414,-3.3414,-3.3414,-3.3414,-3.3414,-3.3414,-3.3414,-3.3414,-3.3414,-3.3414,-3.3414,-3.3414,-3.3414,-3.3414,-3.3427,-3.3467,-3.4468,-3.5252,-3.6004,-3.7976,-3.9346,-4.0513,-4.1078,-4.1866,-4.3018,-4.3018,-4.321,-4.399,-4.2451,-4.1679,-4.1662,-4.032,-3.9609,-3.9637,-3.9233,-3.8553,0.0,-3.7328,0.0,0.0,0.0,0.0,0.0,0.0,0.0,0.0,-4.0773,-4.0504,-3.9073,-3.7581,-3.6093,-3.4219,-3.3464,-3.291,-3.1974,-3.1784,-3.1877,-3.2118,-3.2158,-3.2251,-3.2519,-3.2545,-3.2545,-3.2519,-3.2545,-3.2532,-3.2505,-3.2492,-3.2425,-3.2278,-3.2185,-3.2251,-3.2519,-3.2585,-3.2612,-3.2666,-3.2679,-3.2679,-3.2679,-3.2639,-3.2599,-3.2599,-3.2559,-3.2532,-3.2519,-3.2257,-3.2062,-3.2532,-3.2727,-3.2727,-3.2505,-3.2492,-3.2345,-3.1957,-3.1837,-3.1784,-3.3414,-3.3414,-3.3414,-3.3414,-3.3414,-3.3414,-3.3414,-3.3414,-3.3414,-3.3414,-3.3414,-3.3414,-3.3414,-3.3414,-3.3414,-3.3414,-3.3414,-3.3414,-3.3414,-3.3414,-3.3414,-3.3414,-3.3414,-3.3414,-3.3414,-3.3414,-3.3414,-3.3414,-3.3414,-3.3414,-3.3414,-3.3414,-3.3414,-3.3547,-3.3788,0.0,0.0,0.0,-3.7991,-3.8971,-4.0513,-4.1481,-4.2652,-4.399,-4.418,0.0,-4.4943,-4.358,-4.2515,-4.1856,-4.0882,0.0,0.0,0.0,0.0,0.0,0.0,0.0,0.0,0.0,0.0,0.0,-3.7782,-3.8489,-3.9385,-3.974,-3.9501,-3.8826,-3.7346,-3.6015,-3.4674,-3.3905,-3.2953,-3.2579,-3.2385,-3.2412,-3.2452,-3.2465,-3.2492,-3.2532,-3.2545,-3.2545,-3.2572,-3.2545,-3.2559,-3.2572,-3.2545,-3.2625,-3.2786,-3.2599,-3.2492,-3.2559,-3.2759,-3.2986,-3.3213,-3.3227,-3.3187,-3.3227,-3.304,-3.2906,-3.2879,-3.2706,-3.2559,-3.2572,-3.2532,-3.2545,-3.2559,-3.2976,-3.303,-3.2754,-3.2559,-3.2519,-3.2412,-3.2372,-3.2358,-3.3414,-3.3414,-3.3414,-3.3414,0.0,-3.3414,-3.3414,-3.3414,-3.3414,-3.3414,-3.3414,-3.3414,-3.3414,-3.3414,-3.3414,-3.3414,-3.3414,-3.3414,-3.3414,-3.3414,-3.3414,-3.3414,-3.3414,-3.3414,-3.3414,-3.3414,-3.3414,-3.3414,-3.3414,-3.3574,-3.3641,-3.3654,-3.3788,-3.3935,-3.4095,-3.4898,-3.6031,-3.748,-3.8676,-3.9771,-4.0789,-4.2151,-4.3225,-4.4008,-4.4198,0.0,0.0,0.0,0.0,0.0,0.0,0.0,0.0,-4.0209,0.0,-3.9037,-3.8819,-3.8184,-3.7301,-3.7241,-3.7227,-3.7398,-3.7192,-3.7711,-3.8836,-3.8585,-3.8119,-3.7516,-3.6385,-3.5246,-3.4073,-3.3699,-3.313,-3.274,-3.2545,-3.2599,-3.2732,-3.2759,-3.2812,-3.2946,-3.2973,-3.2973,-3.2973,-3.2973,-3.2973,-3.2973,-3.2973,-3.3013,-3.3133,-3.2946,-3.2799,-3.2946,-3.308,-3.324,-3.3374,-3.3414,-3.3414,-3.3387,-3.3293,-3.32,-3.3187,-3.308,-3.2973,-3.2973,-3.2973,-3.2973,-3.2973,-3.3197,-3.3408,-3.2986,-3.2973,-3.2973,-3.2959,-3.2759,-3.2532,-3.3414,-3.3414,-3.3414,-3.3414,-3.3414,-3.3414,-3.3414,-3.3414,-3.3414,0.0,0.0,-3.3414,-3.3414,-3.3414,-3.3414,-3.3414,-3.3414,-3.3414,-3.3414,-3.3414,-3.3414,-3.3414,-3.3414,-3.3414,-3.344,-3.3494,-3.3494,-3.3521,-3.3587,-3.3841,-3.3961,-3.3988,-3.4202,-3.4349,-3.4402,-3.5459,-3.6499,-3.752,-3.9427,-4.0642,-4.0767,-4.2324,-4.3358,-4.3434,-4.394,-4.4092,-4.3704,-4.3051,-4.2467,-4.2104,-4.1357,-4.0966,-4.134,-4.0574,-4.0198,-4.001,-3.9066,-3.8514,-3.7753,-3.7165,-3.6813,-3.6873,-3.6342,-3.6534,-3.8006,-3.7241,-3.6504,-3.6179,-3.5212,-3.4435,-3.3475,-3.3279,-3.3084,-3.2692,-3.2692,-3.2799,-3.3013,-3.3053,-3.3146,-3.336,-3.3387,-3.34,-3.3387,-3.3374,-3.3414,-3.34,-3.336,-3.3414,-3.3387,-3.32,-3.3133,-3.332,-3.336,-3.34,-3.3414,-3.3414,-3.3414,-3.3414,-3.34,-3.3414,-3.3414,-3.3414,-3.3414,-3.336,-3.34,-3.3387,-3.34,-3.3374,-3.3414,-3.3414,-3.3414,-3.3414,-3.3374,-3.304,-3.2732,-3.3414,-3.3414,-3.3414,-3.3414,-3.3414,-3.3414,-3.3414,-3.3414,-3.3414,-3.3414,-3.3414,-3.3414,-3.3414,-3.3414,-3.3414,-3.3414,-3.3414,-3.3414,-3.3414,-3.3414,-3.3414,-3.3414,-3.3414,-3.3414,-3.3561,-3.3801,-3.3828,-3.3948,-3.4175,-3.4229,-3.4255,-3.4269,-3.4295,-3.4456,-3.4904,-3.5982,-3.6927,-3.7136,-3.8657,-3.9567,-4.0137,-4.17,-4.2673,-4.318,-4.3283,-4.3328,-4.2932,-4.2053,-4.1525,-4.117,-4.0591,-4.0419,-4.0419,-4.0248,-3.9854,-3.9066,-3.8688,-3.8308,-3.7356,-3.6783,-3.6134,-3.5637,-3.5322,-3.5365,-3.5681,-3.5652,-3.5376,-3.5239,-3.4645,-3.4289,-3.409,-3.3665,-3.3453,-3.3267,-3.328,-3.3307,-3.3334,-3.3334,-3.3347,-3.34,-3.3414,-3.3414,-3.3414,-3.3414,-3.3414,-3.3414,-3.3414,-3.3414,-3.34,-3.3374,-3.336,-3.34,-3.3414,-3.3414,-3.3414,-3.3414,-3.3414,-3.3414,-3.3414,-3.3414,-3.3414,-3.3414,-3.3414,-3.3414,-3.3414,-3.3414,-3.3414,-3.3414,-3.3414,-3.3414,-3.3414,-3.3414,-3.3414,-3.3293,-3.3253,-3.3761,-3.3895,-3.3908,-3.3908,-3.3908,-3.3908,-3.3908,-3.3908,-3.3908,-3.3721,-3.3427,-3.3414,-3.3414,-3.3414,-3.3414,-3.3414,-3.3414,-3.3414,-3.3507,-3.3668,-3.3668,-3.3761,-3.3895,-3.3895,-3.3988,-3.4122,-3.4122,-3.4189,-3.4322,-3.4482,-3.4563,-3.4576,-3.471,-3.4857,-3.5004,-3.5965,-3.6439,-3.6439,-3.8236,-3.9434,-3.986,-4.0668,-4.1377,-4.1765,-4.2196,-4.2244,-4.2061,-4.1912,-4.184,-4.1474,-4.109,-4.1007,-4.0825,-4.0252,-3.966,-3.926,-3.8489,-3.7715,-3.6938,-3.6144,-3.5433,-3.4787,-3.4529,-3.4557,-3.422,-3.4589,-3.4659,-3.4585,-3.4014,-3.3814,-3.3814,-3.3614,-3.3414,-3.3414,-3.3414,-3.3414,-3.3414,-3.3414,-3.3414,-3.3414,-3.3414,-3.3414,-3.3414,-3.3414,-3.3414,-3.3414,-3.3414,-3.3414,-3.3414,-3.3414,-3.3414,-3.3414,-3.3414,-3.3414,-3.3414,-3.3414,-3.3414,-3.3414,-3.3414,-3.3414,-3.3414,-3.3414,-3.3414,-3.3414,-3.3414,-3.3414,-3.3414,-3.3414,-3.3414,-3.3414,-3.3414,-3.3414,-3.3414,-3.3414,-3.3414,-3.4108,-3.4322,-3.4322,-3.4322,-3.4322,-3.4322,-3.4322,-3.4322,-3.4309,-3.4055,-3.3654,-3.3614,-3.3614,-3.3614,-3.3614,-3.3614,-3.3614,-3.3614,-3.3748,-3.3975,-3.3975,-3.4108,-3.4309,-3.4322,-3.4349,-3.4416,-3.4416,-3.4456,-3.4536,-3.475,-3.487,-3.4883,-3.5084,-3.5204,-3.5191,-3.5823,-3.6047,-3.6033,-3.7904,-3.9018,-3.9191,-3.979,-4.0279,-4.0435,-4.0944,-4.1112,-4.1112,-4.1416,-4.1437,-4.1178,-4.1145,-4.0999,-4.0692,-3.9863,-3.9441,-3.9183,-3.7991,-3.6809,-3.6004,-3.521,-3.4612,-3.4014,-3.4014,-3.3814,-3.3414,-3.3814,-3.4014,-3.4014,-3.3614,-3.3414,-3.3414,-3.3414,-3.3414,-3.3414,-3.3414,-3.3414,-3.3414,-3.3414,-3.3414,-3.3414,-3.3414,-3.3414,-3.3414,-3.3414,-3.3414,-3.3414,-3.3414,-3.3414,-3.3414,-3.3414,-3.3414,-3.3414,-3.3414,-3.3414,-3.3414,-3.3414,-3.3414,-3.3414,-3.3414,-3.3414,-3.3414,-3.3414,-3.3414,-3.3414,-3.3414,-3.3414,-3.3414,-3.3414,-3.3414,-3.3414,-3.3414,-3.3414,-3.3414,-3.3414,-3.3414,-3.4295,-3.4322,-3.4349,-3.4322,-3.4349,-3.4336,-3.4349,-3.4349,-3.4322,-3.4295,-3.4242,-3.4242,-3.4229,-3.4229,-3.4215,-3.4202,-3.4202,-3.4229,-3.4242,-3.4269,-3.4282,-3.4295,-3.4349,-3.4336,-3.4456,-3.4696,-3.4723,-3.4843,-3.5057,-3.5124,-3.5151,-3.5164,-3.5177,-3.5204,-3.5204,-3.5612,-3.6047,-3.6047,-3.6649,-3.7472,-3.7861,-3.89,-3.9507,-3.9477,-3.979,-3.9841,-3.9841,-3.9535,-3.935,-3.932,-3.932,-3.9182,-3.9104,-3.886,-3.8524,-3.7643,-3.7022,-3.6004,-3.4612,-3.4413,-3.4014,-3.3614,-3.3414,-3.3414,-3.3414,-3.3414,-3.3414,-3.3414,-3.3414,-3.3414,-3.3414,-3.3414,-3.3414,-3.3414,-3.3414,-3.3414,-3.3414,-3.3414,-3.3414,-3.3414,-3.3414,-3.3414,-3.3414,-3.3414,-3.3414,-3.3414,-3.3414,-3.3414,-3.3414,-3.3454,-3.3454,-3.344,-3.3427,-3.344,-3.3427,-3.3414,-3.3414,-3.3414,-3.3414,-3.3414,-3.3414,-3.3414,-3.3414,-3.3414,-3.3414,-3.3414,-3.3414,-3.3414,-3.3414,-3.3414,-3.3414,-3.3414,-3.3414,-3.3414,-3.3414,-3.4683,-3.4843,-3.4843,-3.4843,-3.4843,-3.483,-3.4843,-3.483,-3.483,-3.483,-3.4843,-3.483,-3.4643,-3.4322,-3.4322,-3.4322,-3.4322,-3.4322,-3.4416,-3.4576,-3.4589,-3.467,-3.483,-3.4843,-3.491,-3.5004,-3.5017,-3.5084,-3.5177,-3.5204,-3.5204,-3.5204,-3.5204,-3.5204,-3.5191,-3.5415,-3.5612,-3.5626,-3.5823,-3.6033,-3.6229,-3.7277,-3.7904,-3.7889,-3.8397,-3.8752,-3.8944,-3.9236,-3.9275,-3.95,-3.947,-3.9317,-3.8997,-3.838,-3.7918,-3.7369,-3.6192,-3.5021,-3.4227,-3.4,-3.3614,-3.3414,-3.3414,-3.3414,-3.3414,-3.3414,-3.3414,-3.3414,-3.3414,-3.3414,-3.3414,-3.3414,-3.3414,-3.3414,-3.3414,-3.3414,-3.3414,-3.3414,-3.3414,-3.3414,-3.3414,-3.3414,-3.3414,-3.3414,-3.3414,-3.3414,-3.3414,-3.344,-3.3427,-3.3561,-3.3681,-3.3721,-3.3828,-3.3761,-3.3534,-3.3414,-3.3414,-3.3414,-3.3414,-3.3414,-3.344,-3.3414,-3.3414,-3.3427,-3.3454,-3.3454,-3.3414,-3.3414,-3.3414,-3.3427,-3.3414,-3.3414,-3.3414,-3.3414,-3.3414,-3.5004,-3.5177,-3.5204,-3.5204,-3.5204,-3.5204,-3.5204,-3.5204,-3.5204,-3.5204,-3.5204,-3.5204,-3.4977,-3.4603,-3.4563,-3.4563,-3.4563,-3.4563,-3.467,-3.487,-3.4883,-3.499,-3.5191,-3.5204,-3.5204,-3.5204,-3.5191,-3.5191,-3.5204,-3.5204,-3.5204,-3.5204,-3.5204,-3.5204,-3.5204,-3.5204,-3.5204,-3.5204,-3.5204,-3.5204,-3.5401,-3.6033,-3.6453,-3.6649,-3.7277,-3.7695,-3.8127,-3.8529,-3.9048,-3.9221,-3.9206,-3.9056,-3.8522,-3.7695,-3.704,-3.675,-3.5549,-3.472,-3.4272,-3.3856,-3.3668,-3.3668,-3.3654,-3.3668,-3.3654,-3.3654,-3.3654,-3.3681,-3.3654,-3.3641,-3.3414,-3.3414,-3.3414,-3.3414,-3.3414,-3.3414,-3.3414,-3.3414,-3.3414,-3.3414,-3.3414,-3.3454,-3.3521,-3.3561,-3.3587,-3.3681,-3.3681,-3.3654,-3.3681,-3.3868,-3.4002,-3.4002,-3.4189,-3.4122,-3.3748,-3.3708,-3.3654,-3.3654,-3.3708,-3.3721,-3.3654,-3.3668,-3.3668,-3.3828,-3.3492,-3.3466,-3.3774,-3.3721,-3.3601,-3.3547,-3.3494,-3.344,-3.3414,-3.3414,-3.3414,-3.5191,-3.5204,-3.5204,-3.5204,-3.5204,-3.5204,-3.5204,-3.5204,-3.5204,-3.5204,-3.5204,-3.5204,-3.5177,-3.5124,-3.5097,-3.5151,-3.5137,-3.511,-3.5124,-3.5151,-3.5164,-3.5177,-3.5191,-3.5204,-3.5204,-3.5204,-3.5204,-3.5204,-3.5204,-3.5204,-3.5204,-3.5204,-3.5217,-3.5217,-3.5231,-3.5244,-3.5217,-3.5257,-3.5257,-3.5231,-3.5231,-3.5217,-3.5653,-3.606,-3.6649,-3.6859,-3.7068,-3.7486,-3.7889,-3.7889,-3.7861,-3.7717,-3.7237,-3.6782,-3.6051,-3.539,-3.513,-3.4911,-3.4461,-3.4229,-3.4229,-3.4255,-3.4202,-3.4255,-3.4189,-3.4189,-3.4189,-3.4255,-3.4202,-3.4015,-3.3574,-3.3521,-3.3494,-3.348,-3.3454,-3.3454,-3.344,-3.3507,-3.3427,-3.3454,-3.3494,-3.3614,-3.3828,-3.3868,-3.3975,-3.4135,-3.4242,-3.4229,-3.4189,-3.4255,-3.4295,-3.4309,-3.4349,-3.4322,-3.4282,-3.4135,-3.4175,-3.4162,-3.4082,-3.4202,-3.4255,-3.4282,-3.4255,-3.401,-3.3712,-3.3699,-3.4023,-3.4202,-3.4068,-3.3908,-3.3627,-3.3521,-3.3534,-3.344,-3.3414,-3.5204,-3.5204,-3.5204,-3.5204,-3.5204,-3.5204,-3.5204,-3.5204,-3.5204,-3.5204,-3.5204,-3.5204,-3.5204,-3.5204,-3.5204,-3.5204,-3.5204,-3.5204,-3.5204,-3.5204,-3.5204,-3.5204,-3.5204,-3.5204,-3.5204,-3.5204,-3.5204,-3.5204,-3.5204,-3.5204,-3.5204,-3.5231,-3.5378,-3.5471,-3.5498,-3.5672,-3.5752,-3.5752,-3.5765,-3.5752,-3.5738,-3.5765,-3.5885,-3.5684,-3.5707,-3.6033,-3.6243,-3.6453,-3.6859,-3.7068,-3.7277,-3.7221,-3.6913,-3.6496,-3.5732,-3.5058,-3.5017,-3.4729,-3.4349,-3.4322,-3.4322,-3.4322,-3.4322,-3.4336,-3.4322,-3.4322,-3.4322,-3.4322,-3.4322,-3.4175,-3.4068,-3.3988,-3.3988,-3.3988,-3.3988,-3.3975,-3.3988,-3.3988,-3.3988,-3.3988,-3.3988,-3.4055,-3.4108,-3.4162,-3.4202,-3.4295,-3.4322,-3.4336,-3.4362,-3.4469,-3.4603,-3.4643,-3.4763,-3.4883,-3.4883,-3.4509,-3.4309,-3.4309,-3.4295,-3.4309,-3.4349,-3.4389,-3.4362,-3.4402,-3.3963,-3.3976,-3.4429,-3.4376,-3.4282,-3.4202,-3.3921,-3.3734,-3.3721,-3.3641,-3.3521,-3.5204,-3.5204,-3.5204,-3.5204,-3.5204,-3.5204,-3.5204,-3.5204,-3.5204,-3.5204,-3.5204,-3.5204,-3.5204,-3.5204,-3.5204,-3.5204,-3.5204,-3.5204,-3.5204,-3.5204,-3.5204,-3.5204,-3.5204,-3.5204,-3.5204,-3.5217,-3.5297,-3.5338,-3.5351,-3.5431,-3.5485,-3.5498,-3.5685,-3.5765,-3.5805,-3.5979,-3.6072,-3.6072,-3.6072,-3.6072,-3.6072,-3.6072,-3.5979,-3.5778,-3.5578,-3.559,-3.585,-3.5823,-3.6243,-3.6453,-3.6649,-3.6439,-3.6243,-3.6033,-3.5531,-3.4937,-3.491,-3.483,-3.4643,-3.4603,-3.4603,-3.4603,-3.4616,-3.4603,-3.4603,-3.4603,-3.4603,-3.4603,-3.4603,-3.4603,-3.4603,-3.4603,-3.4536,-3.4376,-3.4322,-3.4322,-3.4322,-3.4309,-3.4309,-3.4282,-3.4282,-3.4336,-3.4442,-3.4456,-3.4509,-3.4576,-3.4603,-3.4603,-3.4643,-3.4763,-3.491,-3.4923,-3.5044,-3.5124,-3.511,-3.4843,-3.471,-3.4696,-3.4643,-3.4589,-3.4536,-3.4549,-3.4563,-3.4576,-3.4589,-3.4603,-3.4576,-3.4509,-3.4469,-3.4456,-3.4242,-3.4028,-3.3961,-3.3868,-3.3761,-3.5204,-3.5204,-3.5204,-3.5204,-3.5204,-3.5204,-3.5204,-3.5204,-3.5204,-3.5204,-3.5204,-3.5204,-3.5204,-3.5204,-3.5204,-3.5204,-3.5204,-3.5231,-3.5231,-3.5204,-3.5204,-3.5204,-3.5204,-3.5231,-3.5271,-3.5297,-3.5511,-3.5631,-3.5645,-3.5859,-3.5992,-3.6032,-3.6046,-3.6072,-3.6072,-3.6126,-3.6126,-3.6153,-3.6166,-3.6139,-3.6086,-3.6139,-3.6139,-3.6086,-3.6046,-3.5792,-3.5271,-3.5666,-3.6101,-3.6074,-3.606,-3.5836,-3.5415,-3.5191,-3.5191,-3.5177,-3.5177,-3.5177,-3.5164,-3.5137,-3.5097,-3.5097,-3.5151,-3.511,-3.5084,-3.511,-3.511,-3.5097,-3.511,-3.5137,-3.5124,-3.511,-3.4923,-3.4456,-3.4429,-3.4429,-3.4402,-3.4349,-3.4336,-3.4389,-3.4416,-3.4482,-3.467,-3.4763,-3.4843,-3.5017,-3.5084,-3.5084,-3.5057,-3.5097,-3.5164,-3.5164,-3.5177,-3.5191,-3.5204,-3.5191,-3.5177,-3.5151,-3.5084,-3.503,-3.4963,-3.4963,-3.4923,-3.4937,-3.4923,-3.4937,-3.491,-3.4843,-3.4776,-3.4723,-3.4496,-3.4336,-3.4269,-3.4189,-3.3837,-3.5204,-3.5204,-3.5204,-3.5204,-3.5204,-3.5204,-3.5204,-3.5204,-3.5204,-3.5204,-3.5204,-3.5204,-3.5204,-3.5204,-3.5204,-3.5204,-3.5217,-3.5378,-3.5391,-3.5244,-3.5217,-3.5217,-3.5244,-3.5404,-3.5605,-3.5778,-3.5885,-3.5939,-3.5952,-3.6046,-3.6072,-3.6099,-3.6286,-3.6366,-3.638,-3.6553,-3.6674,-3.6674,-3.6674,-3.6674,-3.666,-3.666,-3.6567,-3.6393,-3.6366,-3.6179,-3.5832,-3.602,-3.5912,-3.5724,-3.5697,-3.5616,-3.5244,-3.5204,-3.5204,-3.5204,-3.5204,-3.5204,-3.5204,-3.5204,-3.5204,-3.5204,-3.5204,-3.5204,-3.5204,-3.5204,-3.5204,-3.5204,-3.5204,-3.5204,-3.5204,-3.5204,-3.5097,-3.4937,-3.4923,-3.4897,-3.487,-3.4897,-3.4923,-3.4923,-3.4923,-3.4977,-3.503,-3.5057,-3.5084,-3.5164,-3.5204,-3.5204,-3.5204,-3.5204,-3.5204,-3.5204,-3.5204,-3.5204,-3.5204,-3.5204,-3.5204,-3.5204,-3.5204,-3.5204,-3.5204,-3.5204,-3.5204,-3.5204,-3.5204,-3.5191,-3.5177,-3.5124,-3.503,-3.4963,-3.479,-3.4683,-3.4629,-3.4509,-3.4183,-3.5204,-3.5204,-3.5204,-3.5204,-3.5204,-3.5204,-3.5204,-3.5204,-3.5204,-3.5257,-3.5338,-3.5364,-3.5431,-3.5498,-3.5525,-3.5525,-3.5551,-3.5725,-3.5698,-3.5538,-3.5525,-3.5525,-3.5538,-3.5698,-3.5872,-3.6059,-3.6179,-3.6233,-3.6246,-3.634,-3.6393,-3.6433,-3.658,-3.6674,-3.6674,-3.6834,-3.6941,-3.6941,-3.6927,-3.6941,-3.6941,-3.6941,-3.6847,-3.6687,-3.666,-3.6567,-3.6406,-3.6393,-3.6206,-3.5872,-3.5792,-3.5658,-3.5391,-3.5364,-3.5311,-3.5217,-3.5204,-3.5204,-3.5204,-3.5204,-3.5204,-3.5204,-3.5204,-3.5204,-3.5204,-3.5204,-3.5204,-3.5204,-3.5204,-3.5204,-3.5204,-3.5204,-3.5204,-3.5191,-3.5177,-3.5204,-3.5204,-3.5204,-3.5191,-3.5164,-3.5177,-3.5204,-3.5204,-3.5204,-3.5204,-3.5204,-3.5204,-3.5204,-3.5204,-3.5204,-3.5204,-3.5204,-3.5204,-3.5204,-3.5204,-3.5204,-3.5204,-3.5204,-3.5204,-3.5204,-3.5204,-3.5204,-3.5204,-3.5204,-3.5204,-3.5204,-3.5191,-3.5191,-3.5137,-3.5084,-3.503,-3.499,-3.491,-3.4857,-3.4736,-3.5204,-3.5204,-3.5204,-3.5217,-3.5244,-3.5244,-3.5284,-3.5284,-3.5284,-3.5444,-3.5618,-3.5658,-3.5792,-3.6006,-3.5965,-3.5979,-3.6059,-3.6072,-3.6086,-3.6072,-3.6099,-3.6099,-3.6072,-3.6072,-3.6139,-3.6219,-3.642,-3.6527,-3.654,-3.674,-3.6941,-3.6874,-3.6874,-3.6927,-3.6901,-3.6941,-3.6941,-3.6941,-3.6941,-3.6941,-3.6941,-3.6941,-3.6927,-3.6914,-3.6901,-3.6887,-3.6861,-3.6834,-3.6633,-3.6179,-3.6059,-3.5912,-3.5712,-3.5658,-3.5538,-3.5338,-3.5257,-3.5244,-3.5231,-3.5217,-3.5204,-3.5204,-3.5204,-3.5204,-3.5204,-3.5204,-3.5204,-3.5204,-3.5204,-3.5204,-3.5204,-3.5204,-3.5204,-3.5204,-3.5204,-3.5204,-3.5204,-3.5204,-3.5204,-3.5204,-3.5204,-3.5204,-3.5204,-3.5204,-3.5204,-3.5204,-3.5204,-3.5204,-3.5204,-3.5204,-3.5204,-3.5204,-3.5204,-3.5204,-3.5204,-3.5204,-3.5204,-3.5204,-3.5204,-3.5204,-3.5204,-3.5204,-3.5204,-3.5204,-3.5204,-3.5204,-3.5204,-3.5204,-3.5204,-3.5164,-3.5151,-3.5191,-3.5151,-3.5057,-3.499,-3.5204,-3.5204,-3.5204,-3.5324,-3.5498,-3.5511,-3.5645,-3.5819,-3.5832,-3.5859,-3.5952,-3.5965,-3.6006,-3.6072,-3.6086,-3.6072,-3.6153,-3.6299,-3.6393,-3.6433,-3.662,-3.6567,-3.6433,-3.6393,-3.65,-3.6674,-3.674,-3.6821,-3.6834,-3.6901,-3.6941,-3.6941,-3.6941,-3.6941,-3.6941,-3.6941,-3.6941,-3.6941,-3.6941,-3.6941,-3.6941,-3.6941,-3.6941,-3.6941,-3.6941,-3.6941,-3.6941,-3.6941,-3.678,-3.642,-3.6179,-3.6046,-3.5965,-3.5952,-3.5899,-3.5792,-3.5618,-3.5525,-3.5471,-3.5338,-3.5231,-3.5204,-3.5231,-3.5204,-3.5204,-3.5204,-3.5204,-3.5204,-3.5204,-3.5204,-3.5204,-3.5204,-3.5204,-3.5204,-3.5204,-3.5204,-3.5204,-3.5204,-3.5204,-3.5204,-3.5204,-3.5204,-3.5204,-3.5204,-3.5204,-3.5204,-3.5204,-3.5204,-3.5204,-3.5204,-3.5204,-3.5204,-3.5204,-3.5204,-3.5204,-3.5204,-3.5204,-3.5204,-3.5204,-3.5204,-3.5204,-3.5204,-3.5204,-3.5204,-3.5204,-3.5204,-3.5204,-3.5204,-3.5204,-3.5204,-3.5204,-3.5204,-3.5204,-3.5151,-3.5137,-3.5444,-3.5565,-3.5565,-3.5658,-3.5805,-3.5819,-3.5912,-3.6046,-3.6072,-3.6153,-3.6233,-3.6259,-3.6313,-3.6433,-3.6446,-3.6433,-3.646,-3.6607,-3.6687,-3.6714,-3.6847,-3.6821,-3.6714,-3.6687,-3.678,-3.6914,-3.6941,-3.6927,-3.6927,-3.6941,-3.6941,-3.6941,-3.6941,-3.6941,-3.6941,-3.6941,-3.6941,-3.6941,-3.6941,-3.6941,-3.6941,-3.6941,-3.6941,-3.6941,-3.6941,-3.6941,-3.6941,-3.6941,-3.6847,-3.6687,-3.6527,-3.638,-3.6259,-3.6259,-3.6193,-3.6086,-3.5899,-3.5819,-3.5792,-3.5645,-3.5511,-3.5404,-3.5378,-3.5311,-3.5231,-3.5204,-3.5204,-3.5204,-3.5204,-3.5204,-3.5204,-3.5204,-3.5204,-3.5204,-3.5204,-3.5204,-3.5204,-3.5204,-3.5204,-3.5204,-3.5204,-3.5204,-3.5204,-3.5204,-3.5204,-3.5204,-3.5204,-3.5204,-3.5204,-3.5204,-3.5204,-3.5204,-3.5204,-3.5204,-3.5204,-3.5204,-3.5204,-3.5204,-3.5204,-3.5204,-3.5204,-3.5204,-3.5204,-3.5204,-3.5204,-3.5204,-3.5204,-3.5204,-3.5204,-3.5204,-3.5204,-3.5204,-3.5204,-3.5204,-3.5204,-3.5832,-3.6072,-3.6072,-3.6086,-3.6112,-3.6112,-3.6166,-3.6179,-3.6219,-3.634,-3.6513,-3.654,-3.666,-3.6941,-3.6834,-3.6914,-3.6901,-3.6874,-3.6901,-3.6914,-3.6941,-3.6914,-3.6901,-3.6887,-3.6901,-3.6941,-3.6941,-3.6941,-3.6941,-3.6941,-3.6941,-3.6941,-3.6941,-3.6941,-3.6941,-3.6941,-3.6941,-3.6941,-3.6941,-3.6941,-3.6941,-3.6941,-3.6941,-3.6941,-3.6941,-3.6941,-3.6941,-3.6941,-3.6927,-3.6927,-3.6941,-3.6767,-3.6567,-3.6553,-3.6446,-3.6246,-3.6179,-3.6126,-3.6099,-3.6046,-3.5939,-3.5725,-3.5672,-3.5578,-3.5418,-3.5391,-3.5391,-3.5404,-3.5297,-3.5364,-3.5364,-3.5324,-3.5324,-3.5324,-3.5271,-3.5244,-3.5204,-3.5204,-3.5204,-3.5204,-3.5204,-3.5204,-3.5204,-3.5204,-3.5204,-3.5204,-3.5204,-3.5204,-3.5204,-3.5204,-3.5204,-3.5204,-3.5204,-3.5204,-3.5204,-3.5204,-3.5204,-3.5204,-3.5204,-3.5204,-3.5204,-3.5204,-3.5204,-3.5204,-3.5204,-3.5204,-3.5204,-3.5204,-3.5204,-3.5204,-3.5204,-3.5204,-3.5204,-3.5204,-3.5204,-3.6019,-3.6072,-3.6072,-3.6206,-3.6393,-3.642,-3.654,-3.6727,-3.674,-3.674,-3.6834,-3.6834,-3.6874,-3.6941,-3.6941,-3.6941,-3.6941,-3.6941,-3.6941,-3.6941,-3.6941,-3.6941,-3.6941,-3.6941,-3.6941,-3.6941,-3.6941,-3.6941,-3.6941,-3.6941,-3.6941,-3.6941,-3.6941,-3.6941,-3.6941,-3.6941,-3.6941,-3.6941,-3.6941,-3.6941,-3.6941,-3.6941,-3.6941,-3.6941,-3.6941,-3.6941,-3.6941,-3.6941,-3.6941,-3.6941,-3.6927,-3.6887,-3.6834,-3.6821,-3.6767,-3.6674,-3.65,-3.6406,-3.638,-3.6233,-3.6059,-3.6006,-3.5965,-3.5952,-3.5912,-3.5845,-3.5859,-3.5885,-3.5885,-3.5819,-3.5805,-3.5859,-3.5738,-3.5591,-3.5538,-3.5458,-3.5271,-3.5204,-3.5204,-3.5204,-3.5204,-3.5204,-3.5204,-3.5204,-3.5204,-3.5204,-3.5204,-3.5204,-3.5204,-3.5204,-3.5204,-3.5204,-3.5204,-3.5204,-3.5204,-3.5204,-3.5204,-3.5204,-3.5204,-3.5204,-3.5204,-3.5204,-3.5204,-3.5204,-3.5204,-3.5204,-3.5204,-3.5204,-3.5204,-3.5204,-3.5204,-3.5204,-3.5204,-3.5204,-3.5204,-3.6366,-3.6473,-3.6473,-3.6567,-3.6687,-3.67,-3.6794,-3.6914,-3.6941,-3.6941,-3.6941,-3.6941,-3.6941,-3.6941,-3.6941,-3.6941,-3.6941,-3.6941,-3.6941,-3.6941,-3.6941,-3.6941,-3.6941,-3.6941,-3.6941,-3.6941,-3.6941,-3.6941,-3.6941,-3.6941,-3.6941,-3.6941,-3.6941,-3.6941,-3.6941,-3.6954,-3.6941,-3.6941,-3.6941,-3.6941,-3.6941,-3.6941,-3.6941,-3.6941,-3.6941,-3.6941,-3.6941,-3.6941,-3.6941,-3.6941,-3.6941,-3.6941,-3.6941,-3.6941,-3.6941,-3.6901,-3.6821,-3.67,-3.6647,-3.658,-3.6433,-3.6286,-3.6273,-3.6179,-3.6112,-3.6072,-3.6072,-3.6072,-3.6059,-3.6059,-3.6072,-3.6059,-3.5965,-3.5899,-3.5845,-3.5765,-3.5605,-3.5378,-3.5204,-3.5204,-3.5204,-3.5204,-3.5204,-3.5271,-3.5244,-3.5257,-3.5244,-3.5231,-3.5204,-3.5204,-3.5204,-3.5204,-3.5204,-3.5204,-3.5204,-3.5204,-3.5204,-3.5204,-3.5204,-3.5204,-3.5204,-3.5204,-3.5204,-3.5204,-3.5204,-3.5204,-3.5204,-3.5204,-3.5204,-3.5204,-3.5204,-3.5204,-3.5204,-3.5204,-3.5204,-3.6714,-3.6941,-3.6941,-3.6941,-3.6941,-3.6927,-3.6927,-3.6941,-3.6941,-3.6941,-3.6941,-3.6941,-3.6941,-3.6941,-3.6941,-3.6941,-3.6941,-3.6941,-3.6941,-3.6941,-3.6941,-3.6941,-3.6941,-3.6941,-3.6941,-3.6941,-3.6941,-3.6941,-3.6941,-3.6941,-3.6941,-3.6941,-3.6941,-3.6941,-3.6941,-3.6994,-3.7048,-3.7061,-3.7141,-3.7155,-3.7141,-3.7141,-3.7128,-3.7048,-3.6954,-3.6941,-3.6941,-3.6941,-3.6941,-3.6941,-3.6941,-3.6941,-3.6941,-3.6941,-3.6941,-3.6941,-3.6901,-3.6887,-3.6887,-3.6874,-3.678,-3.658,-3.6567,-3.6473,-3.6299,-3.6286,-3.6299,-3.6273,-3.6286,-3.6286,-3.6206,-3.6286,-3.6233,-3.6153,-3.6139,-3.6112,-3.5992,-3.5618,-3.5444,-3.5391,-3.5485,-3.5511,-3.5471,-3.5485,-3.5391,-3.5324,-3.5311,-3.5311,-3.5297,-3.5324,-3.5404,-3.5471,-3.5525,-3.5551,-3.5538,-3.5511,-3.5485,-3.5431,-3.5378,-3.5338,-3.5338,-3.5338,-3.5351,-3.5217,-3.5204,-3.5204,-3.5204,-3.5204,-3.5204,-3.5204,-3.5204,-3.5204,-3.5204,-3.5204,-3.5204,-3.6901,-3.6941,-3.6941,-3.6941,-3.6941,-3.6941,-3.6941,-3.6941,-3.6941,-3.6941,-3.6941,-3.6941,-3.6941,-3.6941,-3.6941,-3.6941,-3.6941,-3.6941,-3.6941,-3.6941,-3.6954,-3.6981,-3.6994,-3.7048,-3.7008,-3.6941,-3.6981,-3.7008,-3.6967,-3.6941,-3.7048,-3.6981,-3.6994,-3.6994,-3.7074,-3.7168,-3.7301,-3.7328,-3.7475,-3.7569,-3.7582,-3.7569,-3.7489,-3.7315,-3.7141,-3.7021,-3.6967,-3.6954,-3.6941,-3.6941,-3.6941,-3.6941,-3.6941,-3.6941,-3.6941,-3.6941,-3.6941,-3.6941,-3.6941,-3.6927,-3.6914,-3.6874,-3.6834,-3.6847,-3.6767,-3.6754,-3.6687,-3.6714,-3.6727,-3.6767,-3.6794,-3.67,-3.6633,-3.6513,-3.642,-3.6353,-3.6153,-3.6019,-3.5925,-3.5925,-3.5925,-3.5859,-3.5778,-3.5738,-3.5725,-3.5698,-3.5712,-3.5712,-3.5725,-3.5778,-3.5845,-3.5912,-3.5965,-3.5965,-3.5965,-3.5925,-3.5899,-3.5845,-3.5778,-3.5685,-3.5658,-3.5591,-3.5511,-3.5364,-3.5244,-3.5204,-3.5204,-3.5204,-3.5204,-3.5204,-3.5204,-3.5204,-3.5204,-3.5204,-3.5204,-3.7162,-3.6941,-3.6941,-3.6941,-3.6941,-3.6941,-3.6941,-3.6941,-3.6941,-3.6941,-3.6941,-3.6941,-3.6941,-3.6941,-3.6941,-3.6941,-3.6941,-3.6941,-3.6941,-3.6954,-3.7088,-3.7168,-3.7195,-3.7301,-3.7382,-3.7395,-3.7395,-3.7288,-3.7208,-3.7342,-3.7342,-3.7395,-3.7395,-3.7395,-3.7408,-3.7529,-3.7595,-3.7649,-3.7742,-3.7836,-3.7823,-3.7823,-3.7716,-3.7609,-3.7462,-3.7328,-3.7181,-3.7168,-3.7088,-3.6981,-3.6941,-3.6941,-3.6941,-3.6941,-3.6941,-3.6941,-3.6941,-3.6941,-3.6941,-3.6941,-3.6927,-3.6941,-3.6941,-3.6941,-3.6941,-3.6914,-3.6941,-3.6941,-3.6941,-3.6941,-3.6914,-3.6941,-3.6861,-3.678,-3.6727,-3.6647,-3.6553,-3.6513,-3.6487,-3.642,-3.6206,-3.6072,-3.6019,-3.6006,-3.6046,-3.6072,-3.6086,-3.6112,-3.6139,-3.6153,-3.6193,-3.6179,-3.6193,-3.6193,-3.6206,-3.6206,-3.6219,-3.6193,-3.6153,-3.6059,-3.5965,-3.5885,-3.5471,-3.5285,-3.5165,-3.5086,-3.5204,-3.5204,-3.5204,-3.5204,-3.5204,-3.5204,-3.5204,-3.5204,-3.5204,-3.7604,-3.7162,-3.6927,-3.6941,-3.6941,-3.6941,-3.6941,-3.6941,-3.6941,-3.6941,-3.6941,-3.6941,-3.6941,-3.6941,-3.6954,-3.6967,-3.7008,-3.7034,-3.7088,-3.7208,-3.7368,-3.7475,-3.7542,-3.7662,-3.7756,-3.7716,-3.7849,-3.7742,-3.7542,-3.7635,-3.7769,-3.7742,-3.7782,-3.7809,-3.7782,-3.7836,-3.7876,-3.7916,-3.7983,-3.7996,-3.7996,-3.7929,-3.7903,-3.7876,-3.7849,-3.7676,-3.7489,-3.7462,-3.7368,-3.7208,-3.7101,-3.7048,-3.7021,-3.6967,-3.6941,-3.6941,-3.6941,-3.6941,-3.6941,-3.6941,-3.6941,-3.6941,-3.6941,-3.6941,-3.6941,-3.6941,-3.6941,-3.6941,-3.6941,-3.6941,-3.6941,-3.6941,-3.6941,-3.6927,-3.6914,-3.6927,-3.6874,-3.6847,-3.6821,-3.6674,-3.6433,-3.6353,-3.6353,-3.638,-3.6446,-3.6446,-3.646,-3.6446,-3.646,-3.642,-3.642,-3.6366,-3.6353,-3.6353,-3.638,-3.642,-3.6446,-3.6473,-3.6433,-3.638,-3.6273,-3.6166,-3.5952,-3.5537,-3.5164,-3.5085,-3.5152,-3.5204,-3.5204,-3.5204,-3.5204,-3.5204,-3.5204,-3.5204,-3.5204,-3.7825,-3.7604,-3.7162,-3.6941,-3.6941,-3.6941,-3.6941,-3.6941,-3.6941,-3.6941,-3.6941,-3.6941,-3.6941,-3.6981,-3.6994,-3.7114,-3.7261,-3.7342,-3.7435,-3.7595,-3.7716,-3.7769,-3.7769,-3.7782,-3.7916,-3.7969,-3.813,-3.8023,-3.7889,-3.7876,-3.7863,-3.7889,-3.7916,-3.7836,-3.7956,-3.8116,-3.8197,-3.825,-3.845,-3.8584,-3.8531,-3.833,-3.8223,-3.8143,-3.801,-3.7849,-3.7782,-3.7769,-3.7716,-3.7649,-3.7435,-3.7342,-3.7288,-3.7061,-3.6967,-3.6941,-3.6941,-3.6941,-3.6941,-3.6941,-3.6941,-3.6941,-3.6941,-3.6941,-3.6941,-3.6941,-3.6941,-3.6941,-3.6941,-3.6941,-3.6941,-3.6941,-3.6941,-3.6941,-3.6941,-3.6941,-3.6941,-3.6941,-3.6941,-3.6927,-3.6674,-3.6727,-3.6767,-3.6807,-3.6847,-3.6834,-3.6821,-3.678,-3.6754,-3.6687,-3.666,-3.6607,-3.6593,-3.6593,-3.658,-3.662,-3.6633,-3.67,-3.6674,-3.6647,-3.6553,-3.6433,-3.6286,-3.5883,-3.571,-3.5283,-3.5298,-3.5364,-3.5257,-3.5204,-3.5204,-3.5204,-3.5204,-3.5204,-3.5204,-3.8706,-3.7839,-3.7162,-3.6941,-3.6941,-3.6941,-3.6941,-3.6941,-3.6941,-3.6941,-3.6941,-3.6941,-3.7021,-3.7181,-3.7342,-3.7502,-3.7609,-3.7622,-3.7676,-3.7863,-3.7983,-3.8063,-3.8116,-3.8237,-3.833,-3.8317,-3.8437,-3.8477,-3.8344,-3.8303,-3.833,-3.8303,-3.8317,-3.8357,-3.8263,-3.8437,-3.8504,-3.8557,-3.8651,-3.8704,-3.8691,-3.8597,-3.8517,-3.8517,-3.837,-3.8237,-3.8103,-3.8063,-3.7969,-3.7863,-3.7662,-3.7635,-3.7609,-3.7489,-3.7382,-3.7195,-3.7195,-3.7114,-3.6981,-3.6954,-3.6941,-3.6941,-3.6941,-3.6941,-3.6941,-3.6941,-3.6941,-3.6941,-3.6941,-3.6941,-3.6941,-3.6941,-3.6941,-3.6941,-3.6941,-3.6941,-3.6941,-3.6941,-3.6941,-3.6941,-3.6941,-3.6941,-3.6941,-3.6927,-3.6901,-3.6901,-3.6887,-3.6874,-3.6861,-3.6847,-3.6847,-3.6874,-3.6861,-3.6861,-3.6834,-3.6834,-3.6807,-3.6834,-3.6834,-3.6807,-3.6794,-3.6687,-3.654,-3.6433,-3.6313,-3.6046,-3.5725,-3.5511,-3.5179,-3.5297,-3.5204,-3.5204,-3.5204,-3.5204,-3.5204,-3.9814,-3.8266,-3.7451,-3.6941,-3.6941,-3.6941,-3.6941,-3.6941,-3.7034,-3.7061,-3.7074,-3.7141,-3.7301,-3.7475,-3.7689,-3.7809,-3.7916,-3.7929,-3.7983,-3.8103,-3.8237,-3.8357,-3.8424,-3.8597,-3.8678,-3.8718,-3.8651,-3.8664,-3.8678,-3.8678,-3.8651,-3.8718,-3.8624,-3.8664,-3.8704,-3.8678,-3.8678,-3.8691,-3.8704,-3.8718,-3.8718,-3.8718,-3.8704,-3.8704,-3.8691,-3.8611,-3.8424,-3.8384,-3.8237,-3.813,-3.7969,-3.7929,-3.7916,-3.7796,-3.7676,-3.7515,-3.7489,-3.7355,-3.7141,-3.7021,-3.6954,-3.6941,-3.6941,-3.6941,-3.6941,-3.6941,-3.6941,-3.6941,-3.6941,-3.6941,-3.6941,-3.6941,-3.6941,-3.6941,-3.6941,-3.6941,-3.6941,-3.6941,-3.6941,-3.6941,-3.6941,-3.6941,-3.6941,-3.6941,-3.6941,-3.6941,-3.6941,-3.6941,-3.6941,-3.6941,-3.6941,-3.6941,-3.6941,-3.6941,-3.6941,-3.6941,-3.6941,-3.6941,-3.6941,-3.6927,-3.6887,-3.6874,-3.678,-3.67,-3.684,-3.6651,-3.6139,-3.5617,-3.5325,-3.5219,-3.5338,-3.5231,-3.5204,-3.5204,-3.5191,-4.0682,-3.928,-3.8293,-3.741,-3.6967,-3.6941,-3.6954,-3.7034,-3.7261,-3.7355,-3.7382,-3.7609,-3.7729,-3.7809,-3.7889,-3.8036,-3.8223,-3.8223,-3.8357,-3.8531,-3.8678,-3.8638,-3.8664,-3.8678,-3.8718,-3.8718,-3.8718,-3.8718,-3.8718,-3.8718,-3.8718,-3.8718,-3.8718,-3.8718,-3.8718,-3.8718,-3.8718,-3.8718,-3.8718,-3.8718,-3.8718,-3.8718,-3.8718,-3.8718,-3.8718,-3.8704,-3.8691,-3.8651,-3.8611,-3.8531,-3.8344,-3.8237,-3.8197,-3.8063,-3.7929,-3.7823,-3.7782,-3.7635,-3.7408,-3.7141,-3.6967,-3.6941,-3.6941,-3.6941,-3.6941,-3.6941,-3.6941,-3.6941,-3.6941,-3.6941,-3.6941,-3.6941,-3.6941,-3.6941,-3.6941,-3.6941,-3.6941,-3.6941,-3.6941,-3.6941,-3.6941,-3.6941,-3.6941,-3.6941,-3.6941,-3.6941,-3.6941,-3.6941,-3.6941,-3.6941,-3.6941,-3.6941,-3.6941,-3.6941,-3.6941,-3.6941,-3.6941,-3.6941,-3.6941,-3.6941,-3.6927,-3.6914,-3.6901,-3.6874,-3.678,-3.666,-3.6513,-3.6153,-3.563,-3.5618,-3.5444,-3.5271,-3.5204,-3.5204,-3.5191,-4.1873,-4.0052,-3.935,-3.8372,-3.7475,-3.7475,-3.7475,-3.7489,-3.7595,-3.7649,-3.7676,-3.7943,-3.809,-3.813,-3.8317,-3.8424,-3.8544,-3.8544,-3.8624,-3.8678,-3.8718,-3.8718,-3.8718,-3.8718,-3.8718,-3.8718,-3.8718,-3.8718,-3.8718,-3.8718,-3.8718,-3.8718,-3.8718,-3.8718,-3.8718,-3.8718,-3.8718,-3.8718,-3.8718,-3.8718,-3.8718,-3.8718,-3.8718,-3.8718,-3.8718,-3.8718,-3.8718,-3.8718,-3.8718,-3.8691,-3.8584,-3.8531,-3.8504,-3.837,-3.825,-3.8116,-3.809,-3.7929,-3.7662,-3.7368,-3.7141,-3.6954,-3.6941,-3.6941,-3.6941,-3.6941,-3.6941,-3.6941,-3.6941,-3.6941,-3.6941,-3.6941,-3.6941,-3.6941,-3.6941,-3.6941,-3.6941,-3.6941,-3.6941,-3.6941,-3.6941,-3.6941,-3.6941,-3.6941,-3.6941,-3.6941,-3.6941,-3.6941,-3.6941,-3.6941,-3.6941,-3.6941,-3.6941,-3.6941,-3.6941,-3.6941,-3.6941,-3.6941,-3.6941,-3.6941,-3.6941,-3.6941,-3.6927,-3.6941,-3.6941,-3.6821,-3.6647,-3.6406,-3.6112,-3.5792,-3.5498,-3.5231,-3.5204,-3.5191,-3.5164,-4.3052,-4.1028,-4.0349,-3.9105,-3.7823,-3.7809,-3.7809,-3.7836,-3.7903,-3.8023,-3.809,-3.8317,-3.8397,-3.8464,-3.8584,-3.8691,-3.8691,-3.8691,-3.8704,-3.8718,-3.8718,-3.8718,-3.8718,-3.8718,-3.8718,-3.8718,-3.8718,-3.8718,-3.8718,-3.8718,-3.8718,-3.8718,-3.8718,-3.8718,-3.8718,-3.8718,-3.8718,-3.8718,-3.8718,-3.8718,-3.8718,-3.8718,-3.8718,-3.8718,-3.8718,-3.8718,-3.8718,-3.8718,-3.8718,-3.8718,-3.8704,-3.8704,-3.8718,-3.8691,-3.8597,-3.8477,-3.8357,-3.825,-3.7956,-3.7582,-3.7301,-3.7141,-3.6967,-3.6954,-3.6941,-3.6941,-3.6941,-3.6941,-3.6941,-3.6941,-3.6941,-3.6941,-3.6941,-3.6941,-3.6941,-3.6941,-3.6941,-3.6941,-3.6941,-3.6941,-3.6941,-3.6941,-3.6941,-3.6941,-3.6941,-3.6941,-3.6941,-3.6941,-3.6941,-3.6941,-3.6941,-3.6941,-3.6941,-3.6941,-3.6941,-3.6941,-3.6941,-3.6941,-3.6941,-3.6941,-3.6941,-3.6941,-3.6941,-3.6941,-3.6941,-3.6941,-3.6794,-3.6553,-3.6233,-3.5885,-3.5565,-3.5231,-3.5401,-3.5388,-3.5321,-4.414,-4.2377,-4.1188,-3.9477,-3.7889,-3.7823,-3.7849,-3.7943,-3.8143,-3.8384,-3.8584,-3.8664,-3.8664,-3.8678,-3.8704,-3.8718,-3.8718,-3.8718,-3.8718,-3.8718,-3.8718,-3.8718,-3.8718,-3.8718,-3.8718,-3.8718,-3.8718,-3.8718,-3.8718,-3.8718,-3.8718,-3.8718,-3.8718,-3.8718,-3.8718,-3.8718,-3.8718,-3.8718,-3.8718,-3.8718,-3.8718,-3.8718,-3.8718,-3.8718,-3.8718,-3.8718,-3.8718,-3.8718,-3.8718,-3.8718,-3.8718,-3.8718,-3.8718,-3.8718,-3.8691,-3.8664,-3.8664,-3.8531,-3.8263,-3.7716,-3.7475,-3.7355,-3.7195,-3.7021,-3.6967,-3.6954,-3.6941,-3.6941,-3.6941,-3.6941,-3.6941,-3.6941,-3.6941,-3.6941,-3.6941,-3.6941,-3.6941,-3.6941,-3.6941,-3.6941,-3.6941,-3.6941,-3.6941,-3.6941,-3.6941,-3.6941,-3.6941,-3.6941,-3.6941,-3.6941,-3.6941,-3.6941,-3.6941,-3.6941,-3.6941,-3.6941,-3.6941,-3.6941,-3.6941,-3.6941,-3.6941,-3.6941,-3.6941,-3.6941,-3.6941,-3.6941,-3.6847,-3.6934,-3.6393,-3.6059,-3.5791,-3.5482,-3.5639,-3.5782,-3.5714,-4.5319,-4.3519,-4.1919,-4.0428,-3.91,-3.8641,-3.841,-3.8437,-3.8531,-3.8624,-3.8704,-3.8718,-3.8718,-3.8718,-3.8718,-3.8718,-3.8718,-3.8718,-3.8718,-3.8718,-3.8718,-3.8718,-3.8718,-3.8718,-3.8718,-3.8718,-3.8718,-3.8718,-3.8718,-3.8718,-3.8718,-3.8718,-3.8718,-3.8718,-3.8718,-3.8718,-3.8718,-3.8718,-3.8718,-3.8718,-3.8718,-3.8718,-3.8718,-3.8718,-3.8718,-3.8718,-3.8718,-3.8718,-3.8718,-3.8718,-3.8718,-3.8718,-3.8718,-3.8718,-3.8718,-3.8718,-3.8718,-3.8691,-3.8504,-3.8183,-3.7889,-3.7676,-3.7422,-3.7248,-3.7235,-3.7034,-3.6981,-3.6941,-3.6954,-3.6954,-3.6941,-3.6941,-3.6941,-3.6941,-3.6941,-3.6941,-3.6941,-3.6941,-3.6941,-3.6941,-3.6941,-3.6941,-3.6941,-3.6941,-3.6941,-3.6941,-3.6941,-3.6941,-3.6941,-3.6941,-3.6941,-3.6941,-3.6941,-3.6941,-3.6941,-3.6941,-3.6941,-3.6941,-3.6941,-3.6941,-3.6941,-3.6941,-3.6941,-3.6941,-3.6941,-3.6927,-3.6861,-3.6754,-3.6567,-3.6233,-3.6006,-3.604,-3.6115,-3.6439,-3.6538,-4.6221,-4.4413,-4.2606,-4.1015,-3.9862,-3.895,-3.8718,-3.8718,-3.8718,-3.8718,-3.8718,-3.8718,-3.8718,-3.8718,-3.8718,-3.8718,-3.8718,-3.8718,-3.8718,-3.8718,-3.8718,-3.8718,-3.8718,-3.8718,-3.8718,-3.8718,-3.8718,-3.8718,-3.8718,-3.8718,-3.8718,-3.8718,-3.8718,-3.8718,-3.8718,-3.8718,-3.8718,-3.8718,-3.8718,-3.8718,-3.8718,-3.8718,-3.8718,-3.8718,-3.8718,-3.8718,-3.8718,-3.8718,-3.8718,-3.8718,-3.8718,-3.8718,-3.8718,-3.8718,-3.8718,-3.8718,-3.8718,-3.8718,-3.8624,-3.8557,-3.8303,-3.817,-3.7769,-3.7555,-3.7489,-3.7288,-3.7168,-3.7101,-3.7021,-3.6967,-3.6954,-3.6954,-3.6954,-3.6954,-3.6941,-3.6941,-3.6941,-3.6941,-3.6941,-3.6941,-3.6941,-3.6941,-3.6941,-3.6941,-3.6941,-3.6941,-3.6941,-3.6941,-3.6941,-3.6941,-3.6941,-3.6941,-3.6941,-3.6941,-3.6941,-3.6941,-3.6941,-3.6941,-3.6941,-3.6941,-3.6941,-3.6941,-3.6941,-3.6941,-3.6941,-3.6927,-3.6901,-3.6794,-3.666,-3.6869,-3.6936,-3.6794,-3.6675,-3.6873,-3.7136,-4.6896,-4.5093,-4.3291,-4.169,-4.054,-3.9181,-3.8718,-3.8718,-3.8718,-3.8718,-3.8718,-3.8718,-3.8718,-3.8718,-3.8718,-3.8718,-3.8718,-3.8718,-3.8718,-3.8718,-3.8718,-3.8718,-3.8718,-3.8718,-3.8718,-3.8718,-3.8718,-3.8718,-3.8718,-3.8718,-3.8718,-3.8718,-3.8718,-3.8718,-3.8718,-3.8718,-3.8718,-3.8718,-3.8718,-3.8718,-3.8718,-3.8718,-3.8718,-3.8718,-3.8718,-3.8718,-3.8718,-3.8718,-3.8718,-3.8718,-3.8718,-3.8718,-3.8718,-3.8718,-3.8718,-3.8718,-3.8718,-3.8718,-3.8718,-3.8664,-3.8664,-3.8491,-3.817,-3.7943,-3.7742,-3.7582,-3.7435,-3.7342,-3.7261,-3.7101,-3.7008,-3.6994,-3.6981,-3.6967,-3.6941,-3.6941,-3.6941,-3.6941,-3.6941,-3.6941,-3.6941,-3.6941,-3.6941,-3.6941,-3.6941,-3.6941,-3.6941,-3.6941,-3.6941,-3.6941,-3.6941,-3.6941,-3.6941,-3.6941,-3.6941,-3.6941,-3.6941,-3.6941,-3.6941,-3.6941,-3.6941,-3.6941,-3.6941,-3.6941,-3.6941,-3.6927,-3.6914,-3.6874,-3.7028,-3.721,-3.7399,-3.7643,-3.7702,-3.7681,-3.8102,-4.8255,-4.6896,-4.464,-4.2835,-4.1015,-3.9413,-3.8718,-3.8718,-3.8718,-3.8718,-3.8718,-3.8718,-3.8718,-3.8718,-3.8718,-3.8718,-3.8718,-3.8718,-3.8718,-3.8718,-3.8718,-3.8718,-3.8718,-3.8718,-3.8718,-3.8718,-3.8718,-3.8718,-3.8718,-3.8718,-3.8718,-3.8718,-3.8718,-3.8718,-3.8718,-3.8718,-3.8718,-3.8718,-3.8718,-3.8718,-3.8718,-3.8718,-3.8718,-3.8718,-3.8718,-3.8718,-3.8718,-3.8718,-3.8718,-3.8718,-3.8718,-3.8718,-3.8718,-3.8718,-3.8718,-3.8718,-3.8718,-3.8718,-3.8718,-3.8718,-3.8718,-3.8718,-3.8504,-3.8357,-3.8143,-3.7889,-3.7702,-3.7635,-3.7542,-3.7408,-3.7288,-3.7248,-3.7141,-3.7048,-3.7021,-3.6994,-3.6981,-3.6941,-3.6941,-3.6941,-3.6941,-3.6941,-3.6941,-3.6941,-3.6941,-3.6941,-3.6941,-3.6941,-3.6941,-3.6941,-3.6941,-3.6941,-3.6941,-3.6941,-3.6941,-3.6941,-3.6941,-3.6941,-3.6941,-3.6941,-3.6941,-3.6941,-3.6941,-3.6941,-3.6941,-3.6941,-3.6927,-3.7122,-3.7316,-3.7688,-3.8097,-3.8526,-3.872,-3.866,-3.9326,-4.9352,-4.7568,-4.5786,-4.3519,-4.1489,-3.9644,-3.895,-3.8718,-3.8718,-3.8718,-3.8718,-3.8718,-3.8718,-3.8718,-3.8718,-3.8718,-3.8718,-3.8718,-3.8718,-3.8718,-3.8718,-3.8718,-3.8718,-3.8718,-3.8718,-3.8718,-3.8718,-3.8718,-3.8718,-3.8718,-3.8718,-3.8718,-3.8718,-3.8718,-3.8718,-3.8718,-3.8718,-3.8718,-3.8718,-3.8718,-3.8718,-3.8718,-3.8718,-3.8718,-3.8718,-3.8718,-3.8718,-3.8718,-3.8718,-3.8718,-3.8718,-3.8718,-3.8718,-3.8718,-3.8718,-3.8718,-3.8718,-3.8718,-3.8718,-3.8718,-3.8718,-3.8718,-3.8718,-3.8611,-3.8424,-3.8183,-3.8063,-3.7956,-3.7849,-3.7742,-3.7635,-3.7529,-3.7342,-3.7155,-3.7114,-3.7061,-3.7008,-3.6954,-3.6941,-3.6941,-3.6941,-3.6941,-3.6941,-3.6941,-3.6941,-3.6941,-3.6941,-3.6941,-3.6941,-3.6941,-3.6941,-3.6941,-3.6941,-3.6941,-3.6941,-3.6941,-3.6941,-3.6941,-3.6941,-3.6941,-3.6941,-3.6941,-3.6941,-3.6941,-3.6941,-3.6941,-3.7162,-3.7383,-3.7577,-3.8169,-3.8905,-3.9572,-3.9925,-3.9807,-4.0744,-5.0017,-4.8016,-4.6462,-4.4201,-4.1475,-4.0079,-3.9168,-3.8718,-3.8718,-3.8718,-3.8718,-3.8718,-3.8718,-3.8718,-3.8718,-3.8718,-3.8718,-3.8718,-3.8718,-3.8718,-3.8718,-3.8718,-3.8718,-3.8718,-3.8718,-3.8718,-3.8718,-3.8718,-3.8718,-3.8718,-3.8718,-3.8718,-3.8718,-3.8718,-3.8718,-3.8718,-3.8718,-3.8718,-3.8718,-3.8718,-3.8718,-3.8718,-3.8718,-3.8718,-3.8718,-3.8718,-3.8718,-3.8718,-3.8718,-3.8718,-3.8718,-3.8718,-3.8718,-3.8718,-3.8718,-3.8718,-3.8718,-3.8718,-3.8718,-3.8718,-3.8718,-3.8718,-3.8718,-3.8691,-3.8557,-3.8437,-3.833,-3.8277,-3.8183,-3.8036,-3.7916,-3.7849,-3.7702,-3.7515,-3.7408,-3.7275,-3.7141,-3.7048,-3.6941,-3.6941,-3.6941,-3.6941,-3.6941,-3.6941,-3.6941,-3.6941,-3.6941,-3.6941,-3.6941,-3.6941,-3.6941,-3.6941,-3.6941,-3.6941,-3.6941,-3.6941,-3.6941,-3.6941,-3.6941,-3.6941,-3.6941,-3.6941,-3.6941,-3.6927,-3.6914,-3.7149,-3.7383,-3.7825,-3.8472,-3.9089,-3.9791,-4.0795,-4.1164,-4.1255,-4.2038,-5.1577,-4.9573,-4.5996,-4.3747,-4.1934,-4.0324,-3.9631,-3.9399,-3.895,-3.8718,-3.8718,-3.8718,-3.8718,-3.8718,-3.8718,-3.8718,-3.8718,-3.8718,-3.8718,-3.8718,-3.8718,-3.8718,-3.8718,-3.8718,-3.8718,-3.8718,-3.8718,-3.8718,-3.8718,-3.8718,-3.8718,-3.8718,-3.8718,-3.8718,-3.8718,-3.8718,-3.8718,-3.8718,-3.8718,-3.8718,-3.8718,-3.8718,-3.8718,-3.8718,-3.8718,-3.8718,-3.8718,-3.8718,-3.8718,-3.8718,-3.8718,-3.8718,-3.8718,-3.8718,-3.8718,-3.8718,-3.8718,-3.8718,-3.8718,-3.8718,-3.8718,-3.8718,-3.8718,-3.8718,-3.8691,-3.8638,-3.8597,-3.8571,-3.8491,-3.833,-3.821,-3.8157,-3.805,-3.7876,-3.7689,-3.7502,-3.7301,-3.7128,-3.6981,-3.6941,-3.6941,-3.6941,-3.6941,-3.6941,-3.6941,-3.6941,-3.6941,-3.6941,-3.7162,-3.7149,-3.7162,-3.7162,-3.6941,-3.6941,-3.6941,-3.6941,-3.6941,-3.6941,-3.6941,-3.6941,-3.6941,-3.6941,-3.7162,-3.7135,-3.7122,-3.7825,-3.85,-3.8926,-3.9571,-3.9994,-4.143,-4.2663,-4.3347,-4.3653,-4.3919,-5.2654,-5.0882,-4.7104,-4.464,-4.3063,-4.1231,-4.0093,-3.9631,-3.895,-3.8718,-3.8718,-3.8718,-3.8718,-3.8718,-3.8718,-3.8718,-3.8718,-3.8718,-3.8718,-3.8718,-3.8718,-3.8718,-3.8718,-3.8718,-3.8718,-3.8718,-3.8718,-3.8718,-3.8744,-3.8718,-3.8718,-3.8731,-3.8731,-3.8731,-3.8731,-3.8718,-3.8718,-3.8718,-3.8718,-3.8718,-3.8718,-3.8718,-3.8718,-3.8718,-3.8718,-3.8718,-3.8718,-3.8718,-3.8718,-3.8718,-3.8718,-3.8718,-3.8718,-3.8718,-3.8718,-3.8718,-3.8718,-3.8718,-3.8718,-3.8718,-3.8718,-3.8718,-3.8718,-3.8718,-3.8718,-3.8678,-3.8678,-3.8651,-3.8651,-3.8517,-3.8504,-3.845,-3.829,-3.8116,-3.7983,-3.7823,-3.7529,-3.7275,-3.7088,-3.6941,-3.6941,-3.6941,-3.6941,-3.6941,-3.6941,-3.7383,-3.7383,-3.7604,-3.7604,-3.7591,-3.7591,-3.7591,-3.7383,-3.7162,-3.6941,-3.6941,-3.6941,-3.6941,-3.6941,-3.7162,-3.7383,-3.7383,-3.737,-3.7523,-3.7977,-3.9217,-3.9876,-4.0504,-4.0679,-4.1318,-4.2774,-4.4382,-4.5229,-4.582,-4.606,-5.3308,-5.1779,-4.8445,-4.6221,-4.4413,-4.2621,-4.1015,-3.9862,-3.9181,-3.8718,-3.8718,-3.8718,-3.8718,-3.8718,-3.8718,-3.8718,-3.8718,-3.8718,-3.8718,-3.8718,-3.8718,-3.8718,-3.8718,-3.8718,-3.8718,-3.8718,-3.8718,-3.8771,-3.8838,-3.8838,-3.8838,-3.8784,-3.8771,-3.8758,-3.8731,-3.8718,-3.8718,-3.8718,-3.8718,-3.8718,-3.8718,-3.8718,-3.8718,-3.8718,-3.8718,-3.8718,-3.8718,-3.8718,-3.8718,-3.8718,-3.8718,-3.8718,-3.8718,-3.8718,-3.8718,-3.8718,-3.8718,-3.8718,-3.8718,-3.8718,-3.8718,-3.8718,-3.8718,-3.8718,-3.8718,-3.8718,-3.8718,-3.8718,-3.8718,-3.8718,-3.8704,-3.8664,-3.8491,-3.8357,-3.8237,-3.8103,-3.7782,-3.7448,-3.7444,-3.7243,-3.7202,-3.7202,-3.7162,-3.7176,-3.7383,-3.7825,-3.8046,-3.8486,-3.8706,-3.8692,-3.8912,-3.8692,-3.8472,-3.7811,-3.7162,-3.7162,-3.7162,-3.6941,-3.7162,-3.7383,-3.7825,-3.8046,-3.8211,-3.7839,-3.8552,-4.0504,-4.1889,-4.2945,-4.2914,-4.2836,-4.4725,-4.6559,-4.7129,-4.77,-4.8154,-5.4177,-5.1998,-4.9352,-4.7568,-4.6221,-4.3959,-4.2148,-4.1015,-3.9862,-3.9181,-3.8718,-3.8718,-3.8718,-3.8718,-3.8718,-3.8718,-3.8718,-3.8718,-3.8718,-3.8718,-3.8718,-3.8718,-3.8771,-3.8865,-3.8744,-3.8771,-3.8851,-3.8891,-3.9038,-3.9078,-3.9065,-3.9078,-3.9078,-3.8972,-3.8758,-3.8758,-3.8771,-3.8771,-3.8731,-3.8718,-3.8718,-3.8718,-3.8718,-3.8718,-3.8718,-3.8718,-3.8718,-3.8718,-3.8718,-3.8718,-3.8718,-3.8718,-3.8718,-3.8718,-3.8718,-3.8718,-3.8718,-3.8718,-3.8718,-3.8718,-3.8718,-3.8718,-3.8718,-3.8718,-3.8718,-3.8718,-3.8718,-3.8718,-3.8718,-3.8718,-3.8718,-3.8718,-3.8597,-3.8531,-3.8437,-3.829,-3.8291,-3.8167,-3.8094,-3.8126,-3.8225,-3.817,-3.8308,-3.8294,-3.8472,-3.8926,-3.9146,-3.9585,-3.979,-4.0009,-4.0227,-4.0009,-3.9571,-3.8486,-3.7825,-3.7604,-3.7604,-3.7383,-3.7383,-3.8266,-3.8706,-3.9146,-3.9061,-3.9095,-4.0719,-4.2682,-4.4042,-4.5167,-4.5267,-4.5613,-4.7101,-4.8491,-4.9096,-4.9339,-4.9772]}]]